<?xml version="1.0" encoding="UTF-8" standalone="no" ?>
<gpx xmlns="http://www.topografix.com/GPX/1/1" xmlns:xsi="http://www.w3.org/2001/XMLSchema-instance" xsi:schemaLocation="http://www.topografix.com/GPX/1/1 http://www.topografix.com/GPX/1/1/gpx.xsd" version="1.1" creator="VisuGPX - https://www.visugpx.com">
  <metadata>
    <name>randonnée nordique Briis sous Forge 15/12/2013</name>
    <desc><![CDATA[un peu trop de bitume]]></desc>
  </metadata>
  <trk>
    <name><![CDATA[15 déc. 2013 09:47:52]]></name>
    <cmt><![CDATA[15 déc. 2013 09:47:52]]></cmt>
    <trkseg>
      <trkpt lat="48.62628" lon="2.12304">
        <ele>106</ele>
        <time>2013-12-15T08:47:52Z</time>
      </trkpt>
      <trkpt lat="48.62629" lon="2.12297">
        <ele>110</ele>
        <time>2013-12-15T08:48:03Z</time>
      </trkpt>
      <trkpt lat="48.62625" lon="2.12292">
        <ele>112</ele>
        <time>2013-12-15T08:48:10Z</time>
      </trkpt>
      <trkpt lat="48.62621" lon="2.12286">
        <ele>113</ele>
        <time>2013-12-15T08:48:16Z</time>
      </trkpt>
      <trkpt lat="48.62618" lon="2.1228">
        <ele>114</ele>
        <time>2013-12-15T08:48:22Z</time>
      </trkpt>
      <trkpt lat="48.62614" lon="2.12276">
        <ele>114</ele>
        <time>2013-12-15T08:48:26Z</time>
      </trkpt>
      <trkpt lat="48.62612" lon="2.12269">
        <ele>114</ele>
        <time>2013-12-15T08:48:30Z</time>
      </trkpt>
      <trkpt lat="48.6261" lon="2.12263">
        <ele>118</ele>
        <time>2013-12-15T08:48:34Z</time>
      </trkpt>
      <trkpt lat="48.62606" lon="2.12257">
        <ele>119</ele>
        <time>2013-12-15T08:48:39Z</time>
      </trkpt>
      <trkpt lat="48.62602" lon="2.12258">
        <ele>117</ele>
        <time>2013-12-15T08:48:47Z</time>
      </trkpt>
      <trkpt lat="48.62598" lon="2.12262">
        <ele>118</ele>
        <time>2013-12-15T08:48:50Z</time>
      </trkpt>
      <trkpt lat="48.62591" lon="2.12268">
        <ele>117</ele>
        <time>2013-12-15T08:48:54Z</time>
      </trkpt>
      <trkpt lat="48.6259" lon="2.12275">
        <ele>116</ele>
        <time>2013-12-15T08:48:57Z</time>
      </trkpt>
      <trkpt lat="48.62588" lon="2.12283">
        <ele>115</ele>
        <time>2013-12-15T08:49:01Z</time>
      </trkpt>
      <trkpt lat="48.62583" lon="2.12289">
        <ele>114</ele>
        <time>2013-12-15T08:49:05Z</time>
      </trkpt>
      <trkpt lat="48.62579" lon="2.12294">
        <ele>113</ele>
        <time>2013-12-15T08:49:09Z</time>
      </trkpt>
      <trkpt lat="48.62575" lon="2.123">
        <ele>112</ele>
        <time>2013-12-15T08:49:14Z</time>
      </trkpt>
      <trkpt lat="48.62572" lon="2.12305">
        <ele>112</ele>
        <time>2013-12-15T08:49:18Z</time>
      </trkpt>
      <trkpt lat="48.62568" lon="2.12309">
        <ele>111</ele>
        <time>2013-12-15T08:49:22Z</time>
      </trkpt>
      <trkpt lat="48.62562" lon="2.12309">
        <ele>114</ele>
        <time>2013-12-15T08:49:25Z</time>
      </trkpt>
      <trkpt lat="48.62557" lon="2.1231">
        <ele>114</ele>
        <time>2013-12-15T08:49:27Z</time>
      </trkpt>
      <trkpt lat="48.62552" lon="2.12313">
        <ele>115</ele>
        <time>2013-12-15T08:49:30Z</time>
      </trkpt>
      <trkpt lat="48.62547" lon="2.12316">
        <ele>116</ele>
        <time>2013-12-15T08:49:37Z</time>
      </trkpt>
      <trkpt lat="48.62542" lon="2.12316">
        <ele>116</ele>
        <time>2013-12-15T08:49:42Z</time>
      </trkpt>
      <trkpt lat="48.62537" lon="2.12319">
        <ele>116</ele>
        <time>2013-12-15T08:49:48Z</time>
      </trkpt>
      <trkpt lat="48.62533" lon="2.12317">
        <ele>113</ele>
        <time>2013-12-15T08:49:56Z</time>
      </trkpt>
      <trkpt lat="48.6253" lon="2.12323">
        <ele>109</ele>
        <time>2013-12-15T08:50:03Z</time>
      </trkpt>
      <trkpt lat="48.62526" lon="2.12324">
        <ele>107</ele>
        <time>2013-12-15T08:50:06Z</time>
      </trkpt>
      <trkpt lat="48.6252" lon="2.12322">
        <ele>106</ele>
        <time>2013-12-15T08:50:09Z</time>
      </trkpt>
      <trkpt lat="48.62514" lon="2.12321">
        <ele>106</ele>
        <time>2013-12-15T08:50:12Z</time>
      </trkpt>
      <trkpt lat="48.62509" lon="2.12322">
        <ele>106</ele>
        <time>2013-12-15T08:50:14Z</time>
      </trkpt>
      <trkpt lat="48.62503" lon="2.12322">
        <ele>106</ele>
        <time>2013-12-15T08:50:17Z</time>
      </trkpt>
      <trkpt lat="48.62498" lon="2.12319">
        <ele>106</ele>
        <time>2013-12-15T08:50:20Z</time>
      </trkpt>
      <trkpt lat="48.62493" lon="2.12316">
        <ele>104</ele>
        <time>2013-12-15T08:50:24Z</time>
      </trkpt>
      <trkpt lat="48.6249" lon="2.1231">
        <ele>102</ele>
        <time>2013-12-15T08:50:29Z</time>
      </trkpt>
      <trkpt lat="48.62486" lon="2.12304">
        <ele>102</ele>
        <time>2013-12-15T08:50:32Z</time>
      </trkpt>
      <trkpt lat="48.62483" lon="2.12299">
        <ele>102</ele>
        <time>2013-12-15T08:50:35Z</time>
      </trkpt>
      <trkpt lat="48.6248" lon="2.12294">
        <ele>101</ele>
        <time>2013-12-15T08:50:40Z</time>
      </trkpt>
      <trkpt lat="48.62475" lon="2.12292">
        <ele>100</ele>
        <time>2013-12-15T08:50:45Z</time>
      </trkpt>
      <trkpt lat="48.62471" lon="2.12291">
        <ele>100</ele>
        <time>2013-12-15T08:50:49Z</time>
      </trkpt>
      <trkpt lat="48.62462" lon="2.1229">
        <ele>100</ele>
        <time>2013-12-15T08:50:53Z</time>
      </trkpt>
      <trkpt lat="48.62457" lon="2.12293">
        <ele>100</ele>
        <time>2013-12-15T08:50:56Z</time>
      </trkpt>
      <trkpt lat="48.62453" lon="2.12297">
        <ele>101</ele>
        <time>2013-12-15T08:50:58Z</time>
      </trkpt>
      <trkpt lat="48.62448" lon="2.12297">
        <ele>101</ele>
        <time>2013-12-15T08:51:02Z</time>
      </trkpt>
      <trkpt lat="48.62444" lon="2.12291">
        <ele>102</ele>
        <time>2013-12-15T08:51:06Z</time>
      </trkpt>
      <trkpt lat="48.62439" lon="2.12286">
        <ele>103</ele>
        <time>2013-12-15T08:51:10Z</time>
      </trkpt>
      <trkpt lat="48.62434" lon="2.12282">
        <ele>104</ele>
        <time>2013-12-15T08:51:14Z</time>
      </trkpt>
      <trkpt lat="48.6243" lon="2.12278">
        <ele>105</ele>
        <time>2013-12-15T08:51:17Z</time>
      </trkpt>
      <trkpt lat="48.62426" lon="2.12275">
        <ele>107</ele>
        <time>2013-12-15T08:51:21Z</time>
      </trkpt>
      <trkpt lat="48.62422" lon="2.12272">
        <ele>109</ele>
        <time>2013-12-15T08:51:28Z</time>
      </trkpt>
      <trkpt lat="48.6241" lon="2.12258">
        <ele>116</ele>
        <time>2013-12-15T08:51:42Z</time>
      </trkpt>
      <trkpt lat="48.62404" lon="2.12257">
        <ele>116</ele>
        <time>2013-12-15T08:51:46Z</time>
      </trkpt>
      <trkpt lat="48.62399" lon="2.12251">
        <ele>114</ele>
        <time>2013-12-15T08:51:50Z</time>
      </trkpt>
      <trkpt lat="48.62398" lon="2.12245">
        <ele>113</ele>
        <time>2013-12-15T08:51:53Z</time>
      </trkpt>
      <trkpt lat="48.62396" lon="2.12237">
        <ele>114</ele>
        <time>2013-12-15T08:51:57Z</time>
      </trkpt>
      <trkpt lat="48.62396" lon="2.12229">
        <ele>115</ele>
        <time>2013-12-15T08:51:59Z</time>
      </trkpt>
      <trkpt lat="48.62394" lon="2.12221">
        <ele>115</ele>
        <time>2013-12-15T08:52:02Z</time>
      </trkpt>
      <trkpt lat="48.62388" lon="2.12218">
        <ele>115</ele>
        <time>2013-12-15T08:52:06Z</time>
      </trkpt>
      <trkpt lat="48.62383" lon="2.12217">
        <ele>115</ele>
        <time>2013-12-15T08:52:09Z</time>
      </trkpt>
      <trkpt lat="48.62379" lon="2.12213">
        <ele>115</ele>
        <time>2013-12-15T08:52:12Z</time>
      </trkpt>
      <trkpt lat="48.62375" lon="2.12207">
        <ele>115</ele>
        <time>2013-12-15T08:52:14Z</time>
      </trkpt>
      <trkpt lat="48.62373" lon="2.12201">
        <ele>115</ele>
        <time>2013-12-15T08:52:16Z</time>
      </trkpt>
      <trkpt lat="48.62372" lon="2.12193">
        <ele>115</ele>
        <time>2013-12-15T08:52:19Z</time>
      </trkpt>
      <trkpt lat="48.6237" lon="2.12185">
        <ele>116</ele>
        <time>2013-12-15T08:52:23Z</time>
      </trkpt>
      <trkpt lat="48.6237" lon="2.12175">
        <ele>116</ele>
        <time>2013-12-15T08:52:26Z</time>
      </trkpt>
      <trkpt lat="48.62371" lon="2.12167">
        <ele>117</ele>
        <time>2013-12-15T08:52:30Z</time>
      </trkpt>
      <trkpt lat="48.62374" lon="2.1216">
        <ele>117</ele>
        <time>2013-12-15T08:52:36Z</time>
      </trkpt>
      <trkpt lat="48.62379" lon="2.12153">
        <ele>119</ele>
        <time>2013-12-15T08:52:39Z</time>
      </trkpt>
      <trkpt lat="48.62383" lon="2.1215">
        <ele>120</ele>
        <time>2013-12-15T08:52:42Z</time>
      </trkpt>
      <trkpt lat="48.62386" lon="2.12143">
        <ele>122</ele>
        <time>2013-12-15T08:52:46Z</time>
      </trkpt>
      <trkpt lat="48.62387" lon="2.12135">
        <ele>123</ele>
        <time>2013-12-15T08:52:50Z</time>
      </trkpt>
      <trkpt lat="48.62387" lon="2.12127">
        <ele>124</ele>
        <time>2013-12-15T08:52:54Z</time>
      </trkpt>
      <trkpt lat="48.62389" lon="2.1212">
        <ele>124</ele>
        <time>2013-12-15T08:52:58Z</time>
      </trkpt>
      <trkpt lat="48.62391" lon="2.12114">
        <ele>124</ele>
        <time>2013-12-15T08:53:01Z</time>
      </trkpt>
      <trkpt lat="48.6239" lon="2.12105">
        <ele>122</ele>
        <time>2013-12-15T08:53:05Z</time>
      </trkpt>
      <trkpt lat="48.62389" lon="2.12097">
        <ele>121</ele>
        <time>2013-12-15T08:53:10Z</time>
      </trkpt>
      <trkpt lat="48.6239" lon="2.12089">
        <ele>120</ele>
        <time>2013-12-15T08:53:15Z</time>
      </trkpt>
      <trkpt lat="48.62393" lon="2.12082">
        <ele>119</ele>
        <time>2013-12-15T08:53:18Z</time>
      </trkpt>
      <trkpt lat="48.62394" lon="2.12075">
        <ele>118</ele>
        <time>2013-12-15T08:53:21Z</time>
      </trkpt>
      <trkpt lat="48.62394" lon="2.12066">
        <ele>117</ele>
        <time>2013-12-15T08:53:25Z</time>
      </trkpt>
      <trkpt lat="48.62394" lon="2.12058">
        <ele>116</ele>
        <time>2013-12-15T08:53:28Z</time>
      </trkpt>
      <trkpt lat="48.62395" lon="2.12049">
        <ele>115</ele>
        <time>2013-12-15T08:53:31Z</time>
      </trkpt>
      <trkpt lat="48.62397" lon="2.12041">
        <ele>115</ele>
        <time>2013-12-15T08:53:35Z</time>
      </trkpt>
      <trkpt lat="48.62398" lon="2.12034">
        <ele>113</ele>
        <time>2013-12-15T08:53:39Z</time>
      </trkpt>
      <trkpt lat="48.624" lon="2.12027">
        <ele>112</ele>
        <time>2013-12-15T08:53:42Z</time>
      </trkpt>
      <trkpt lat="48.62401" lon="2.1202">
        <ele>110</ele>
        <time>2013-12-15T08:53:45Z</time>
      </trkpt>
      <trkpt lat="48.62401" lon="2.12013">
        <ele>109</ele>
        <time>2013-12-15T08:53:48Z</time>
      </trkpt>
      <trkpt lat="48.62401" lon="2.12004">
        <ele>108</ele>
        <time>2013-12-15T08:53:52Z</time>
      </trkpt>
      <trkpt lat="48.62403" lon="2.11995">
        <ele>107</ele>
        <time>2013-12-15T08:53:55Z</time>
      </trkpt>
      <trkpt lat="48.62405" lon="2.11989">
        <ele>107</ele>
        <time>2013-12-15T08:53:57Z</time>
      </trkpt>
      <trkpt lat="48.62407" lon="2.1198">
        <ele>107</ele>
        <time>2013-12-15T08:54:00Z</time>
      </trkpt>
      <trkpt lat="48.62411" lon="2.11974">
        <ele>108</ele>
        <time>2013-12-15T08:54:03Z</time>
      </trkpt>
      <trkpt lat="48.62413" lon="2.11966">
        <ele>108</ele>
        <time>2013-12-15T08:54:07Z</time>
      </trkpt>
      <trkpt lat="48.62415" lon="2.11959">
        <ele>108</ele>
        <time>2013-12-15T08:54:11Z</time>
      </trkpt>
      <trkpt lat="48.62416" lon="2.11952">
        <ele>108</ele>
        <time>2013-12-15T08:54:15Z</time>
      </trkpt>
      <trkpt lat="48.6242" lon="2.11947">
        <ele>108</ele>
        <time>2013-12-15T08:54:20Z</time>
      </trkpt>
      <trkpt lat="48.6242" lon="2.11939">
        <ele>106</ele>
        <time>2013-12-15T08:54:24Z</time>
      </trkpt>
      <trkpt lat="48.62419" lon="2.1193">
        <ele>104</ele>
        <time>2013-12-15T08:54:28Z</time>
      </trkpt>
      <trkpt lat="48.6242" lon="2.11923">
        <ele>102</ele>
        <time>2013-12-15T08:54:31Z</time>
      </trkpt>
      <trkpt lat="48.62419" lon="2.11916">
        <ele>101</ele>
        <time>2013-12-15T08:54:34Z</time>
      </trkpt>
      <trkpt lat="48.6242" lon="2.11909">
        <ele>99</ele>
        <time>2013-12-15T08:54:38Z</time>
      </trkpt>
      <trkpt lat="48.62422" lon="2.11902">
        <ele>98</ele>
        <time>2013-12-15T08:54:45Z</time>
      </trkpt>
      <trkpt lat="48.62425" lon="2.11893">
        <ele>98</ele>
        <time>2013-12-15T08:54:50Z</time>
      </trkpt>
      <trkpt lat="48.62426" lon="2.11884">
        <ele>97</ele>
        <time>2013-12-15T08:54:53Z</time>
      </trkpt>
      <trkpt lat="48.62428" lon="2.11878">
        <ele>98</ele>
        <time>2013-12-15T08:54:56Z</time>
      </trkpt>
      <trkpt lat="48.62431" lon="2.11872">
        <ele>100</ele>
        <time>2013-12-15T08:55:01Z</time>
      </trkpt>
      <trkpt lat="48.62432" lon="2.11864">
        <ele>102</ele>
        <time>2013-12-15T08:55:07Z</time>
      </trkpt>
      <trkpt lat="48.62433" lon="2.11856">
        <ele>102</ele>
        <time>2013-12-15T08:55:10Z</time>
      </trkpt>
      <trkpt lat="48.62435" lon="2.11848">
        <ele>101</ele>
        <time>2013-12-15T08:55:13Z</time>
      </trkpt>
      <trkpt lat="48.62436" lon="2.1184">
        <ele>99</ele>
        <time>2013-12-15T08:55:17Z</time>
      </trkpt>
      <trkpt lat="48.62438" lon="2.11832">
        <ele>98</ele>
        <time>2013-12-15T08:55:21Z</time>
      </trkpt>
      <trkpt lat="48.62441" lon="2.11826">
        <ele>98</ele>
        <time>2013-12-15T08:55:24Z</time>
      </trkpt>
      <trkpt lat="48.62443" lon="2.11819">
        <ele>99</ele>
        <time>2013-12-15T08:55:27Z</time>
      </trkpt>
      <trkpt lat="48.62445" lon="2.11813">
        <ele>100</ele>
        <time>2013-12-15T08:55:30Z</time>
      </trkpt>
      <trkpt lat="48.62447" lon="2.11805">
        <ele>98</ele>
        <time>2013-12-15T08:55:34Z</time>
      </trkpt>
      <trkpt lat="48.62448" lon="2.11796">
        <ele>96</ele>
        <time>2013-12-15T08:55:38Z</time>
      </trkpt>
      <trkpt lat="48.62448" lon="2.11787">
        <ele>95</ele>
        <time>2013-12-15T08:55:41Z</time>
      </trkpt>
      <trkpt lat="48.62448" lon="2.11779">
        <ele>94</ele>
        <time>2013-12-15T08:55:44Z</time>
      </trkpt>
      <trkpt lat="48.62446" lon="2.11772">
        <ele>93</ele>
        <time>2013-12-15T08:55:47Z</time>
      </trkpt>
      <trkpt lat="48.62445" lon="2.11765">
        <ele>92</ele>
        <time>2013-12-15T08:55:51Z</time>
      </trkpt>
      <trkpt lat="48.62448" lon="2.1176">
        <ele>92</ele>
        <time>2013-12-15T08:55:55Z</time>
      </trkpt>
      <trkpt lat="48.62449" lon="2.11753">
        <ele>92</ele>
        <time>2013-12-15T08:56:00Z</time>
      </trkpt>
      <trkpt lat="48.6245" lon="2.11746">
        <ele>92</ele>
        <time>2013-12-15T08:56:04Z</time>
      </trkpt>
      <trkpt lat="48.6245" lon="2.11736">
        <ele>93</ele>
        <time>2013-12-15T08:56:08Z</time>
      </trkpt>
      <trkpt lat="48.6245" lon="2.11728">
        <ele>92</ele>
        <time>2013-12-15T08:56:11Z</time>
      </trkpt>
      <trkpt lat="48.62447" lon="2.11722">
        <ele>91</ele>
        <time>2013-12-15T08:56:15Z</time>
      </trkpt>
      <trkpt lat="48.62444" lon="2.11718">
        <ele>91</ele>
        <time>2013-12-15T08:56:19Z</time>
      </trkpt>
      <trkpt lat="48.62442" lon="2.11711">
        <ele>91</ele>
        <time>2013-12-15T08:56:23Z</time>
      </trkpt>
      <trkpt lat="48.62438" lon="2.11705">
        <ele>91</ele>
        <time>2013-12-15T08:56:26Z</time>
      </trkpt>
      <trkpt lat="48.62434" lon="2.11702">
        <ele>93</ele>
        <time>2013-12-15T08:56:29Z</time>
      </trkpt>
      <trkpt lat="48.6243" lon="2.11696">
        <ele>95</ele>
        <time>2013-12-15T08:56:33Z</time>
      </trkpt>
      <trkpt lat="48.62428" lon="2.11689">
        <ele>97</ele>
        <time>2013-12-15T08:56:39Z</time>
      </trkpt>
      <trkpt lat="48.62424" lon="2.11683">
        <ele>98</ele>
        <time>2013-12-15T08:56:43Z</time>
      </trkpt>
      <trkpt lat="48.62424" lon="2.1168">
        <ele>98</ele>
        <time>2013-12-15T08:56:49Z</time>
      </trkpt>
      <trkpt lat="48.6242" lon="2.11675">
        <ele>99</ele>
        <time>2013-12-15T08:56:53Z</time>
      </trkpt>
      <trkpt lat="48.62415" lon="2.11671">
        <ele>99</ele>
        <time>2013-12-15T08:56:57Z</time>
      </trkpt>
      <trkpt lat="48.62411" lon="2.1167">
        <ele>99</ele>
        <time>2013-12-15T08:57:00Z</time>
      </trkpt>
      <trkpt lat="48.62405" lon="2.11669">
        <ele>100</ele>
        <time>2013-12-15T08:57:03Z</time>
      </trkpt>
      <trkpt lat="48.624" lon="2.11667">
        <ele>101</ele>
        <time>2013-12-15T08:57:06Z</time>
      </trkpt>
      <trkpt lat="48.62396" lon="2.11666">
        <ele>101</ele>
        <time>2013-12-15T08:57:09Z</time>
      </trkpt>
      <trkpt lat="48.6239" lon="2.11664">
        <ele>102</ele>
        <time>2013-12-15T08:57:13Z</time>
      </trkpt>
      <trkpt lat="48.62385" lon="2.11662">
        <ele>102</ele>
        <time>2013-12-15T08:57:17Z</time>
      </trkpt>
      <trkpt lat="48.62379" lon="2.11661">
        <ele>102</ele>
        <time>2013-12-15T08:57:20Z</time>
      </trkpt>
      <trkpt lat="48.62374" lon="2.11665">
        <ele>99</ele>
        <time>2013-12-15T08:57:31Z</time>
      </trkpt>
      <trkpt lat="48.62369" lon="2.11664">
        <ele>99</ele>
        <time>2013-12-15T08:57:34Z</time>
      </trkpt>
      <trkpt lat="48.62364" lon="2.11659">
        <ele>99</ele>
        <time>2013-12-15T08:58:06Z</time>
      </trkpt>
      <trkpt lat="48.62359" lon="2.11657">
        <ele>99</ele>
        <time>2013-12-15T08:58:12Z</time>
      </trkpt>
      <trkpt lat="48.62355" lon="2.11653">
        <ele>100</ele>
        <time>2013-12-15T08:58:15Z</time>
      </trkpt>
      <trkpt lat="48.62351" lon="2.11644">
        <ele>100</ele>
        <time>2013-12-15T08:58:18Z</time>
      </trkpt>
      <trkpt lat="48.62345" lon="2.11642">
        <ele>101</ele>
        <time>2013-12-15T08:58:21Z</time>
      </trkpt>
      <trkpt lat="48.6234" lon="2.11642">
        <ele>102</ele>
        <time>2013-12-15T08:58:23Z</time>
      </trkpt>
      <trkpt lat="48.62336" lon="2.11642">
        <ele>103</ele>
        <time>2013-12-15T08:58:25Z</time>
      </trkpt>
      <trkpt lat="48.62333" lon="2.11642">
        <ele>103</ele>
        <time>2013-12-15T08:58:27Z</time>
      </trkpt>
      <trkpt lat="48.62328" lon="2.11641">
        <ele>104</ele>
        <time>2013-12-15T08:58:32Z</time>
      </trkpt>
      <trkpt lat="48.62323" lon="2.11644">
        <ele>104</ele>
        <time>2013-12-15T08:58:38Z</time>
      </trkpt>
      <trkpt lat="48.62319" lon="2.11642">
        <ele>105</ele>
        <time>2013-12-15T08:58:42Z</time>
      </trkpt>
      <trkpt lat="48.62313" lon="2.1164">
        <ele>105</ele>
        <time>2013-12-15T08:58:45Z</time>
      </trkpt>
      <trkpt lat="48.62308" lon="2.11641">
        <ele>105</ele>
        <time>2013-12-15T08:58:48Z</time>
      </trkpt>
      <trkpt lat="48.62303" lon="2.11641">
        <ele>105</ele>
        <time>2013-12-15T08:58:51Z</time>
      </trkpt>
      <trkpt lat="48.62298" lon="2.11639">
        <ele>105</ele>
        <time>2013-12-15T08:58:54Z</time>
      </trkpt>
      <trkpt lat="48.62292" lon="2.11638">
        <ele>105</ele>
        <time>2013-12-15T08:58:58Z</time>
      </trkpt>
      <trkpt lat="48.62287" lon="2.11638">
        <ele>106</ele>
        <time>2013-12-15T08:59:01Z</time>
      </trkpt>
      <trkpt lat="48.62281" lon="2.1164">
        <ele>105</ele>
        <time>2013-12-15T08:59:04Z</time>
      </trkpt>
      <trkpt lat="48.62276" lon="2.11642">
        <ele>105</ele>
        <time>2013-12-15T08:59:07Z</time>
      </trkpt>
      <trkpt lat="48.6227" lon="2.11643">
        <ele>105</ele>
        <time>2013-12-15T08:59:10Z</time>
      </trkpt>
      <trkpt lat="48.62264" lon="2.11643">
        <ele>106</ele>
        <time>2013-12-15T08:59:13Z</time>
      </trkpt>
      <trkpt lat="48.6226" lon="2.11643">
        <ele>106</ele>
        <time>2013-12-15T08:59:15Z</time>
      </trkpt>
      <trkpt lat="48.62256" lon="2.11644">
        <ele>106</ele>
        <time>2013-12-15T08:59:17Z</time>
      </trkpt>
      <trkpt lat="48.62253" lon="2.11644">
        <ele>106</ele>
        <time>2013-12-15T08:59:19Z</time>
      </trkpt>
      <trkpt lat="48.6225" lon="2.11644">
        <ele>106</ele>
        <time>2013-12-15T08:59:21Z</time>
      </trkpt>
      <trkpt lat="48.62244" lon="2.11646">
        <ele>105</ele>
        <time>2013-12-15T08:59:25Z</time>
      </trkpt>
      <trkpt lat="48.6224" lon="2.11645">
        <ele>105</ele>
        <time>2013-12-15T08:59:27Z</time>
      </trkpt>
      <trkpt lat="48.62236" lon="2.11644">
        <ele>105</ele>
        <time>2013-12-15T08:59:29Z</time>
      </trkpt>
      <trkpt lat="48.62233" lon="2.11645">
        <ele>105</ele>
        <time>2013-12-15T08:59:31Z</time>
      </trkpt>
      <trkpt lat="48.62229" lon="2.1165">
        <ele>104</ele>
        <time>2013-12-15T08:59:40Z</time>
      </trkpt>
      <trkpt lat="48.62223" lon="2.11651">
        <ele>104</ele>
        <time>2013-12-15T08:59:44Z</time>
      </trkpt>
      <trkpt lat="48.62218" lon="2.11654">
        <ele>104</ele>
        <time>2013-12-15T08:59:47Z</time>
      </trkpt>
      <trkpt lat="48.62215" lon="2.11659">
        <ele>103</ele>
        <time>2013-12-15T08:59:55Z</time>
      </trkpt>
      <trkpt lat="48.62211" lon="2.11661">
        <ele>101</ele>
        <time>2013-12-15T08:59:58Z</time>
      </trkpt>
      <trkpt lat="48.62205" lon="2.11662">
        <ele>100</ele>
        <time>2013-12-15T09:00:01Z</time>
      </trkpt>
      <trkpt lat="48.622" lon="2.11663">
        <ele>99</ele>
        <time>2013-12-15T09:00:05Z</time>
      </trkpt>
      <trkpt lat="48.62195" lon="2.11666">
        <ele>99</ele>
        <time>2013-12-15T09:00:09Z</time>
      </trkpt>
      <trkpt lat="48.62191" lon="2.11668">
        <ele>99</ele>
        <time>2013-12-15T09:00:13Z</time>
      </trkpt>
      <trkpt lat="48.62186" lon="2.1167">
        <ele>99</ele>
        <time>2013-12-15T09:00:20Z</time>
      </trkpt>
      <trkpt lat="48.62181" lon="2.1167">
        <ele>99</ele>
        <time>2013-12-15T09:00:23Z</time>
      </trkpt>
      <trkpt lat="48.62175" lon="2.1167">
        <ele>99</ele>
        <time>2013-12-15T09:00:25Z</time>
      </trkpt>
      <trkpt lat="48.62171" lon="2.11671">
        <ele>99</ele>
        <time>2013-12-15T09:00:27Z</time>
      </trkpt>
      <trkpt lat="48.62165" lon="2.11671">
        <ele>99</ele>
        <time>2013-12-15T09:00:29Z</time>
      </trkpt>
      <trkpt lat="48.62162" lon="2.1167">
        <ele>99</ele>
        <time>2013-12-15T09:00:30Z</time>
      </trkpt>
      <trkpt lat="48.62159" lon="2.1167">
        <ele>100</ele>
        <time>2013-12-15T09:00:32Z</time>
      </trkpt>
      <trkpt lat="48.62152" lon="2.11671">
        <ele>100</ele>
        <time>2013-12-15T09:00:37Z</time>
      </trkpt>
      <trkpt lat="48.62146" lon="2.11674">
        <ele>100</ele>
        <time>2013-12-15T09:00:41Z</time>
      </trkpt>
      <trkpt lat="48.6214" lon="2.11676">
        <ele>102</ele>
        <time>2013-12-15T09:00:44Z</time>
      </trkpt>
      <trkpt lat="48.62134" lon="2.11676">
        <ele>102</ele>
        <time>2013-12-15T09:00:47Z</time>
      </trkpt>
      <trkpt lat="48.62131" lon="2.11677">
        <ele>102</ele>
        <time>2013-12-15T09:00:49Z</time>
      </trkpt>
      <trkpt lat="48.62129" lon="2.11678">
        <ele>101</ele>
        <time>2013-12-15T09:00:51Z</time>
      </trkpt>
      <trkpt lat="48.62125" lon="2.11684">
        <ele>99</ele>
        <time>2013-12-15T09:00:59Z</time>
      </trkpt>
      <trkpt lat="48.6212" lon="2.11687">
        <ele>98</ele>
        <time>2013-12-15T09:01:03Z</time>
      </trkpt>
      <trkpt lat="48.62115" lon="2.11688">
        <ele>98</ele>
        <time>2013-12-15T09:01:06Z</time>
      </trkpt>
      <trkpt lat="48.6211" lon="2.11688">
        <ele>98</ele>
        <time>2013-12-15T09:01:09Z</time>
      </trkpt>
      <trkpt lat="48.62105" lon="2.11688">
        <ele>98</ele>
        <time>2013-12-15T09:01:14Z</time>
      </trkpt>
      <trkpt lat="48.62103" lon="2.11687">
        <ele>98</ele>
        <time>2013-12-15T09:01:20Z</time>
      </trkpt>
      <trkpt lat="48.62098" lon="2.11689">
        <ele>98</ele>
        <time>2013-12-15T09:01:25Z</time>
      </trkpt>
      <trkpt lat="48.62093" lon="2.11687">
        <ele>98</ele>
        <time>2013-12-15T09:01:28Z</time>
      </trkpt>
      <trkpt lat="48.62089" lon="2.11686">
        <ele>98</ele>
        <time>2013-12-15T09:01:31Z</time>
      </trkpt>
      <trkpt lat="48.62083" lon="2.11686">
        <ele>99</ele>
        <time>2013-12-15T09:01:34Z</time>
      </trkpt>
      <trkpt lat="48.62078" lon="2.11689">
        <ele>99</ele>
        <time>2013-12-15T09:01:39Z</time>
      </trkpt>
      <trkpt lat="48.62074" lon="2.11688">
        <ele>100</ele>
        <time>2013-12-15T09:01:44Z</time>
      </trkpt>
      <trkpt lat="48.62069" lon="2.11687">
        <ele>101</ele>
        <time>2013-12-15T09:01:47Z</time>
      </trkpt>
      <trkpt lat="48.62064" lon="2.1169">
        <ele>102</ele>
        <time>2013-12-15T09:01:51Z</time>
      </trkpt>
      <trkpt lat="48.62059" lon="2.11694">
        <ele>101</ele>
        <time>2013-12-15T09:01:54Z</time>
      </trkpt>
      <trkpt lat="48.62054" lon="2.11698">
        <ele>101</ele>
        <time>2013-12-15T09:01:57Z</time>
      </trkpt>
      <trkpt lat="48.6205" lon="2.117">
        <ele>101</ele>
        <time>2013-12-15T09:02:00Z</time>
      </trkpt>
      <trkpt lat="48.62045" lon="2.11699">
        <ele>101</ele>
        <time>2013-12-15T09:02:04Z</time>
      </trkpt>
      <trkpt lat="48.62041" lon="2.11696">
        <ele>100</ele>
        <time>2013-12-15T09:02:11Z</time>
      </trkpt>
      <trkpt lat="48.62035" lon="2.11695">
        <ele>101</ele>
        <time>2013-12-15T09:02:14Z</time>
      </trkpt>
      <trkpt lat="48.6203" lon="2.11695">
        <ele>101</ele>
        <time>2013-12-15T09:02:17Z</time>
      </trkpt>
      <trkpt lat="48.62024" lon="2.11697">
        <ele>101</ele>
        <time>2013-12-15T09:02:20Z</time>
      </trkpt>
      <trkpt lat="48.6202" lon="2.11698">
        <ele>101</ele>
        <time>2013-12-15T09:02:22Z</time>
      </trkpt>
      <trkpt lat="48.62016" lon="2.11697">
        <ele>101</ele>
        <time>2013-12-15T09:02:24Z</time>
      </trkpt>
      <trkpt lat="48.6201" lon="2.11695">
        <ele>102</ele>
        <time>2013-12-15T09:02:30Z</time>
      </trkpt>
      <trkpt lat="48.62006" lon="2.11699">
        <ele>101</ele>
        <time>2013-12-15T09:02:35Z</time>
      </trkpt>
      <trkpt lat="48.62001" lon="2.11702">
        <ele>100</ele>
        <time>2013-12-15T09:02:39Z</time>
      </trkpt>
      <trkpt lat="48.61996" lon="2.11705">
        <ele>99</ele>
        <time>2013-12-15T09:02:42Z</time>
      </trkpt>
      <trkpt lat="48.61991" lon="2.11706">
        <ele>98</ele>
        <time>2013-12-15T09:02:45Z</time>
      </trkpt>
      <trkpt lat="48.61985" lon="2.11706">
        <ele>98</ele>
        <time>2013-12-15T09:02:48Z</time>
      </trkpt>
      <trkpt lat="48.61981" lon="2.11705">
        <ele>98</ele>
        <time>2013-12-15T09:02:50Z</time>
      </trkpt>
      <trkpt lat="48.61974" lon="2.11704">
        <ele>98</ele>
        <time>2013-12-15T09:02:53Z</time>
      </trkpt>
      <trkpt lat="48.61968" lon="2.11705">
        <ele>98</ele>
        <time>2013-12-15T09:02:56Z</time>
      </trkpt>
      <trkpt lat="48.61964" lon="2.11706">
        <ele>98</ele>
        <time>2013-12-15T09:02:58Z</time>
      </trkpt>
      <trkpt lat="48.61962" lon="2.11708">
        <ele>97</ele>
        <time>2013-12-15T09:03:00Z</time>
      </trkpt>
      <trkpt lat="48.61959" lon="2.11712">
        <ele>97</ele>
        <time>2013-12-15T09:03:07Z</time>
      </trkpt>
      <trkpt lat="48.61953" lon="2.11712">
        <ele>97</ele>
        <time>2013-12-15T09:03:12Z</time>
      </trkpt>
      <trkpt lat="48.61947" lon="2.11713">
        <ele>96</ele>
        <time>2013-12-15T09:03:15Z</time>
      </trkpt>
      <trkpt lat="48.61943" lon="2.11713">
        <ele>95</ele>
        <time>2013-12-15T09:03:18Z</time>
      </trkpt>
      <trkpt lat="48.61937" lon="2.11713">
        <ele>95</ele>
        <time>2013-12-15T09:03:21Z</time>
      </trkpt>
      <trkpt lat="48.61932" lon="2.11714">
        <ele>94</ele>
        <time>2013-12-15T09:03:24Z</time>
      </trkpt>
      <trkpt lat="48.61926" lon="2.11715">
        <ele>94</ele>
        <time>2013-12-15T09:03:27Z</time>
      </trkpt>
      <trkpt lat="48.61921" lon="2.11713">
        <ele>94</ele>
        <time>2013-12-15T09:03:30Z</time>
      </trkpt>
      <trkpt lat="48.61915" lon="2.11712">
        <ele>95</ele>
        <time>2013-12-15T09:03:33Z</time>
      </trkpt>
      <trkpt lat="48.61911" lon="2.11713">
        <ele>94</ele>
        <time>2013-12-15T09:03:35Z</time>
      </trkpt>
      <trkpt lat="48.61905" lon="2.11718">
        <ele>92</ele>
        <time>2013-12-15T09:03:41Z</time>
      </trkpt>
      <trkpt lat="48.61901" lon="2.11723">
        <ele>91</ele>
        <time>2013-12-15T09:03:47Z</time>
      </trkpt>
      <trkpt lat="48.61896" lon="2.11726">
        <ele>91</ele>
        <time>2013-12-15T09:03:51Z</time>
      </trkpt>
      <trkpt lat="48.61891" lon="2.11727">
        <ele>90</ele>
        <time>2013-12-15T09:03:54Z</time>
      </trkpt>
      <trkpt lat="48.61886" lon="2.11726">
        <ele>90</ele>
        <time>2013-12-15T09:03:57Z</time>
      </trkpt>
      <trkpt lat="48.6188" lon="2.11727">
        <ele>89</ele>
        <time>2013-12-15T09:04:00Z</time>
      </trkpt>
      <trkpt lat="48.61876" lon="2.11726">
        <ele>89</ele>
        <time>2013-12-15T09:04:03Z</time>
      </trkpt>
      <trkpt lat="48.61872" lon="2.11729">
        <ele>88</ele>
        <time>2013-12-15T09:04:07Z</time>
      </trkpt>
      <trkpt lat="48.61867" lon="2.11728">
        <ele>88</ele>
        <time>2013-12-15T09:04:11Z</time>
      </trkpt>
      <trkpt lat="48.61861" lon="2.11729">
        <ele>89</ele>
        <time>2013-12-15T09:04:16Z</time>
      </trkpt>
      <trkpt lat="48.61856" lon="2.11732">
        <ele>89</ele>
        <time>2013-12-15T09:04:20Z</time>
      </trkpt>
      <trkpt lat="48.61851" lon="2.11734">
        <ele>89</ele>
        <time>2013-12-15T09:04:24Z</time>
      </trkpt>
      <trkpt lat="48.61846" lon="2.11733">
        <ele>89</ele>
        <time>2013-12-15T09:04:27Z</time>
      </trkpt>
      <trkpt lat="48.6184" lon="2.11733">
        <ele>90</ele>
        <time>2013-12-15T09:04:30Z</time>
      </trkpt>
      <trkpt lat="48.61835" lon="2.11733">
        <ele>90</ele>
        <time>2013-12-15T09:04:33Z</time>
      </trkpt>
      <trkpt lat="48.61831" lon="2.11734">
        <ele>90</ele>
        <time>2013-12-15T09:04:36Z</time>
      </trkpt>
      <trkpt lat="48.61826" lon="2.11735">
        <ele>90</ele>
        <time>2013-12-15T09:04:39Z</time>
      </trkpt>
      <trkpt lat="48.6182" lon="2.11734">
        <ele>92</ele>
        <time>2013-12-15T09:04:42Z</time>
      </trkpt>
      <trkpt lat="48.61815" lon="2.11735">
        <ele>93</ele>
        <time>2013-12-15T09:04:45Z</time>
      </trkpt>
      <trkpt lat="48.6181" lon="2.11737">
        <ele>94</ele>
        <time>2013-12-15T09:04:49Z</time>
      </trkpt>
      <trkpt lat="48.61806" lon="2.1174">
        <ele>95</ele>
        <time>2013-12-15T09:04:58Z</time>
      </trkpt>
      <trkpt lat="48.618" lon="2.11741">
        <ele>95</ele>
        <time>2013-12-15T09:05:02Z</time>
      </trkpt>
      <trkpt lat="48.61795" lon="2.11742">
        <ele>96</ele>
        <time>2013-12-15T09:05:04Z</time>
      </trkpt>
      <trkpt lat="48.6179" lon="2.11744">
        <ele>95</ele>
        <time>2013-12-15T09:05:06Z</time>
      </trkpt>
      <trkpt lat="48.61785" lon="2.11748">
        <ele>95</ele>
        <time>2013-12-15T09:05:09Z</time>
      </trkpt>
      <trkpt lat="48.61782" lon="2.11752">
        <ele>95</ele>
        <time>2013-12-15T09:05:12Z</time>
      </trkpt>
      <trkpt lat="48.61777" lon="2.11755">
        <ele>94</ele>
        <time>2013-12-15T09:05:15Z</time>
      </trkpt>
      <trkpt lat="48.61772" lon="2.11757">
        <ele>93</ele>
        <time>2013-12-15T09:05:18Z</time>
      </trkpt>
      <trkpt lat="48.61768" lon="2.11759">
        <ele>93</ele>
        <time>2013-12-15T09:05:21Z</time>
      </trkpt>
      <trkpt lat="48.61763" lon="2.11758">
        <ele>94</ele>
        <time>2013-12-15T09:05:24Z</time>
      </trkpt>
      <trkpt lat="48.61759" lon="2.11761">
        <ele>93</ele>
        <time>2013-12-15T09:05:27Z</time>
      </trkpt>
      <trkpt lat="48.61756" lon="2.11766">
        <ele>93</ele>
        <time>2013-12-15T09:05:30Z</time>
      </trkpt>
      <trkpt lat="48.61752" lon="2.11772">
        <ele>92</ele>
        <time>2013-12-15T09:05:35Z</time>
      </trkpt>
      <trkpt lat="48.61748" lon="2.11776">
        <ele>92</ele>
        <time>2013-12-15T09:05:42Z</time>
      </trkpt>
      <trkpt lat="48.61743" lon="2.11778">
        <ele>93</ele>
        <time>2013-12-15T09:05:45Z</time>
      </trkpt>
      <trkpt lat="48.61738" lon="2.1178">
        <ele>93</ele>
        <time>2013-12-15T09:05:48Z</time>
      </trkpt>
      <trkpt lat="48.61733" lon="2.11784">
        <ele>93</ele>
        <time>2013-12-15T09:05:51Z</time>
      </trkpt>
      <trkpt lat="48.61728" lon="2.11789">
        <ele>93</ele>
        <time>2013-12-15T09:05:54Z</time>
      </trkpt>
      <trkpt lat="48.61724" lon="2.11791">
        <ele>92</ele>
        <time>2013-12-15T09:05:57Z</time>
      </trkpt>
      <trkpt lat="48.61718" lon="2.11795">
        <ele>93</ele>
        <time>2013-12-15T09:06:00Z</time>
      </trkpt>
      <trkpt lat="48.61713" lon="2.11801">
        <ele>93</ele>
        <time>2013-12-15T09:06:03Z</time>
      </trkpt>
      <trkpt lat="48.6171" lon="2.11806">
        <ele>92</ele>
        <time>2013-12-15T09:06:06Z</time>
      </trkpt>
      <trkpt lat="48.61706" lon="2.1181">
        <ele>92</ele>
        <time>2013-12-15T09:06:10Z</time>
      </trkpt>
      <trkpt lat="48.61701" lon="2.11813">
        <ele>91</ele>
        <time>2013-12-15T09:06:14Z</time>
      </trkpt>
      <trkpt lat="48.61698" lon="2.11819">
        <ele>92</ele>
        <time>2013-12-15T09:06:20Z</time>
      </trkpt>
      <trkpt lat="48.61694" lon="2.11823">
        <ele>92</ele>
        <time>2013-12-15T09:06:23Z</time>
      </trkpt>
      <trkpt lat="48.61689" lon="2.11826">
        <ele>92</ele>
        <time>2013-12-15T09:06:26Z</time>
      </trkpt>
      <trkpt lat="48.61684" lon="2.11829">
        <ele>93</ele>
        <time>2013-12-15T09:06:29Z</time>
      </trkpt>
      <trkpt lat="48.61679" lon="2.11833">
        <ele>94</ele>
        <time>2013-12-15T09:06:32Z</time>
      </trkpt>
      <trkpt lat="48.61675" lon="2.11835">
        <ele>95</ele>
        <time>2013-12-15T09:06:35Z</time>
      </trkpt>
      <trkpt lat="48.6167" lon="2.11837">
        <ele>96</ele>
        <time>2013-12-15T09:06:38Z</time>
      </trkpt>
      <trkpt lat="48.61665" lon="2.11837">
        <ele>97</ele>
        <time>2013-12-15T09:06:41Z</time>
      </trkpt>
      <trkpt lat="48.61661" lon="2.11834">
        <ele>99</ele>
        <time>2013-12-15T09:06:46Z</time>
      </trkpt>
      <trkpt lat="48.61656" lon="2.11835">
        <ele>100</ele>
        <time>2013-12-15T09:06:53Z</time>
      </trkpt>
      <trkpt lat="48.61651" lon="2.11834">
        <ele>100</ele>
        <time>2013-12-15T09:06:56Z</time>
      </trkpt>
      <trkpt lat="48.61646" lon="2.11833">
        <ele>99</ele>
        <time>2013-12-15T09:06:59Z</time>
      </trkpt>
      <trkpt lat="48.61641" lon="2.11832">
        <ele>98</ele>
        <time>2013-12-15T09:07:02Z</time>
      </trkpt>
      <trkpt lat="48.61636" lon="2.11832">
        <ele>97</ele>
        <time>2013-12-15T09:07:05Z</time>
      </trkpt>
      <trkpt lat="48.61631" lon="2.11831">
        <ele>98</ele>
        <time>2013-12-15T09:07:08Z</time>
      </trkpt>
      <trkpt lat="48.61625" lon="2.11831">
        <ele>97</ele>
        <time>2013-12-15T09:07:11Z</time>
      </trkpt>
      <trkpt lat="48.61622" lon="2.11831">
        <ele>97</ele>
        <time>2013-12-15T09:07:13Z</time>
      </trkpt>
      <trkpt lat="48.61616" lon="2.11836">
        <ele>97</ele>
        <time>2013-12-15T09:07:20Z</time>
      </trkpt>
      <trkpt lat="48.61611" lon="2.11837">
        <ele>96</ele>
        <time>2013-12-15T09:07:25Z</time>
      </trkpt>
      <trkpt lat="48.61606" lon="2.11836">
        <ele>95</ele>
        <time>2013-12-15T09:07:28Z</time>
      </trkpt>
      <trkpt lat="48.616" lon="2.11834">
        <ele>95</ele>
        <time>2013-12-15T09:07:31Z</time>
      </trkpt>
      <trkpt lat="48.61595" lon="2.11833">
        <ele>95</ele>
        <time>2013-12-15T09:07:34Z</time>
      </trkpt>
      <trkpt lat="48.61589" lon="2.11832">
        <ele>95</ele>
        <time>2013-12-15T09:07:37Z</time>
      </trkpt>
      <trkpt lat="48.61584" lon="2.11829">
        <ele>95</ele>
        <time>2013-12-15T09:07:40Z</time>
      </trkpt>
      <trkpt lat="48.61579" lon="2.11825">
        <ele>95</ele>
        <time>2013-12-15T09:07:44Z</time>
      </trkpt>
      <trkpt lat="48.61574" lon="2.11824">
        <ele>94</ele>
        <time>2013-12-15T09:07:51Z</time>
      </trkpt>
      <trkpt lat="48.6157" lon="2.11821">
        <ele>95</ele>
        <time>2013-12-15T09:07:54Z</time>
      </trkpt>
      <trkpt lat="48.61566" lon="2.11818">
        <ele>95</ele>
        <time>2013-12-15T09:07:57Z</time>
      </trkpt>
      <trkpt lat="48.61561" lon="2.11815">
        <ele>96</ele>
        <time>2013-12-15T09:07:59Z</time>
      </trkpt>
      <trkpt lat="48.61556" lon="2.11814">
        <ele>96</ele>
        <time>2013-12-15T09:08:02Z</time>
      </trkpt>
      <trkpt lat="48.61551" lon="2.11814">
        <ele>96</ele>
        <time>2013-12-15T09:08:05Z</time>
      </trkpt>
      <trkpt lat="48.61546" lon="2.11813">
        <ele>96</ele>
        <time>2013-12-15T09:08:08Z</time>
      </trkpt>
      <trkpt lat="48.6154" lon="2.11812">
        <ele>96</ele>
        <time>2013-12-15T09:08:11Z</time>
      </trkpt>
      <trkpt lat="48.61536" lon="2.11812">
        <ele>95</ele>
        <time>2013-12-15T09:08:15Z</time>
      </trkpt>
      <trkpt lat="48.6153" lon="2.11808">
        <ele>95</ele>
        <time>2013-12-15T09:08:21Z</time>
      </trkpt>
      <trkpt lat="48.61526" lon="2.11805">
        <ele>95</ele>
        <time>2013-12-15T09:08:24Z</time>
      </trkpt>
      <trkpt lat="48.61521" lon="2.11803">
        <ele>95</ele>
        <time>2013-12-15T09:08:28Z</time>
      </trkpt>
      <trkpt lat="48.61516" lon="2.11804">
        <ele>94</ele>
        <time>2013-12-15T09:08:32Z</time>
      </trkpt>
      <trkpt lat="48.61512" lon="2.11801">
        <ele>94</ele>
        <time>2013-12-15T09:08:35Z</time>
      </trkpt>
      <trkpt lat="48.61506" lon="2.11798">
        <ele>94</ele>
        <time>2013-12-15T09:08:38Z</time>
      </trkpt>
      <trkpt lat="48.61503" lon="2.11796">
        <ele>92</ele>
        <time>2013-12-15T09:08:46Z</time>
      </trkpt>
      <trkpt lat="48.61504" lon="2.11789">
        <ele>91</ele>
        <time>2013-12-15T09:09:04Z</time>
      </trkpt>
      <trkpt lat="48.61502" lon="2.11781">
        <ele>90</ele>
        <time>2013-12-15T09:09:09Z</time>
      </trkpt>
      <trkpt lat="48.615" lon="2.11774">
        <ele>90</ele>
        <time>2013-12-15T09:09:15Z</time>
      </trkpt>
      <trkpt lat="48.615" lon="2.11767">
        <ele>91</ele>
        <time>2013-12-15T09:09:19Z</time>
      </trkpt>
      <trkpt lat="48.61498" lon="2.11758">
        <ele>92</ele>
        <time>2013-12-15T09:09:23Z</time>
      </trkpt>
      <trkpt lat="48.61495" lon="2.11751">
        <ele>93</ele>
        <time>2013-12-15T09:09:28Z</time>
      </trkpt>
      <trkpt lat="48.61493" lon="2.11745">
        <ele>94</ele>
        <time>2013-12-15T09:09:32Z</time>
      </trkpt>
      <trkpt lat="48.61492" lon="2.11737">
        <ele>94</ele>
        <time>2013-12-15T09:09:35Z</time>
      </trkpt>
      <trkpt lat="48.61491" lon="2.1173">
        <ele>94</ele>
        <time>2013-12-15T09:09:37Z</time>
      </trkpt>
      <trkpt lat="48.6149" lon="2.11724">
        <ele>94</ele>
        <time>2013-12-15T09:09:39Z</time>
      </trkpt>
      <trkpt lat="48.61488" lon="2.11715">
        <ele>93</ele>
        <time>2013-12-15T09:09:42Z</time>
      </trkpt>
      <trkpt lat="48.61486" lon="2.11708">
        <ele>92</ele>
        <time>2013-12-15T09:09:46Z</time>
      </trkpt>
      <trkpt lat="48.61484" lon="2.11701">
        <ele>92</ele>
        <time>2013-12-15T09:09:52Z</time>
      </trkpt>
      <trkpt lat="48.61482" lon="2.11693">
        <ele>92</ele>
        <time>2013-12-15T09:09:56Z</time>
      </trkpt>
      <trkpt lat="48.61483" lon="2.11686">
        <ele>91</ele>
        <time>2013-12-15T09:10:00Z</time>
      </trkpt>
      <trkpt lat="48.61482" lon="2.11678">
        <ele>90</ele>
        <time>2013-12-15T09:10:03Z</time>
      </trkpt>
      <trkpt lat="48.61481" lon="2.11668">
        <ele>90</ele>
        <time>2013-12-15T09:10:06Z</time>
      </trkpt>
      <trkpt lat="48.61482" lon="2.1166">
        <ele>89</ele>
        <time>2013-12-15T09:10:09Z</time>
      </trkpt>
      <trkpt lat="48.61481" lon="2.11652">
        <ele>89</ele>
        <time>2013-12-15T09:10:12Z</time>
      </trkpt>
      <trkpt lat="48.61479" lon="2.11645">
        <ele>88</ele>
        <time>2013-12-15T09:10:17Z</time>
      </trkpt>
      <trkpt lat="48.61477" lon="2.11639">
        <ele>88</ele>
        <time>2013-12-15T09:10:24Z</time>
      </trkpt>
      <trkpt lat="48.61475" lon="2.11632">
        <ele>88</ele>
        <time>2013-12-15T09:10:29Z</time>
      </trkpt>
      <trkpt lat="48.61474" lon="2.11625">
        <ele>89</ele>
        <time>2013-12-15T09:10:32Z</time>
      </trkpt>
      <trkpt lat="48.61473" lon="2.11618">
        <ele>89</ele>
        <time>2013-12-15T09:10:36Z</time>
      </trkpt>
      <trkpt lat="48.61472" lon="2.11609">
        <ele>88</ele>
        <time>2013-12-15T09:10:41Z</time>
      </trkpt>
      <trkpt lat="48.61472" lon="2.11602">
        <ele>89</ele>
        <time>2013-12-15T09:10:44Z</time>
      </trkpt>
      <trkpt lat="48.61473" lon="2.11594">
        <ele>89</ele>
        <time>2013-12-15T09:10:48Z</time>
      </trkpt>
      <trkpt lat="48.61476" lon="2.11589">
        <ele>91</ele>
        <time>2013-12-15T09:10:51Z</time>
      </trkpt>
      <trkpt lat="48.61477" lon="2.11583">
        <ele>92</ele>
        <time>2013-12-15T09:10:55Z</time>
      </trkpt>
      <trkpt lat="48.61476" lon="2.11576">
        <ele>93</ele>
        <time>2013-12-15T09:10:59Z</time>
      </trkpt>
      <trkpt lat="48.61475" lon="2.11569">
        <ele>92</ele>
        <time>2013-12-15T09:11:04Z</time>
      </trkpt>
      <trkpt lat="48.61474" lon="2.11562">
        <ele>90</ele>
        <time>2013-12-15T09:11:09Z</time>
      </trkpt>
      <trkpt lat="48.61474" lon="2.11554">
        <ele>88</ele>
        <time>2013-12-15T09:11:13Z</time>
      </trkpt>
      <trkpt lat="48.61475" lon="2.11547">
        <ele>88</ele>
        <time>2013-12-15T09:11:17Z</time>
      </trkpt>
      <trkpt lat="48.61476" lon="2.1154">
        <ele>87</ele>
        <time>2013-12-15T09:11:20Z</time>
      </trkpt>
      <trkpt lat="48.61477" lon="2.11532">
        <ele>87</ele>
        <time>2013-12-15T09:11:23Z</time>
      </trkpt>
      <trkpt lat="48.61475" lon="2.11524">
        <ele>88</ele>
        <time>2013-12-15T09:11:29Z</time>
      </trkpt>
      <trkpt lat="48.61474" lon="2.11516">
        <ele>87</ele>
        <time>2013-12-15T09:11:34Z</time>
      </trkpt>
      <trkpt lat="48.61474" lon="2.11507">
        <ele>86</ele>
        <time>2013-12-15T09:11:37Z</time>
      </trkpt>
      <trkpt lat="48.61475" lon="2.11499">
        <ele>86</ele>
        <time>2013-12-15T09:11:42Z</time>
      </trkpt>
      <trkpt lat="48.61476" lon="2.1149">
        <ele>86</ele>
        <time>2013-12-15T09:11:46Z</time>
      </trkpt>
      <trkpt lat="48.61474" lon="2.11482">
        <ele>86</ele>
        <time>2013-12-15T09:11:49Z</time>
      </trkpt>
      <trkpt lat="48.61472" lon="2.11476">
        <ele>87</ele>
        <time>2013-12-15T09:11:55Z</time>
      </trkpt>
      <trkpt lat="48.6147" lon="2.11467">
        <ele>87</ele>
        <time>2013-12-15T09:12:00Z</time>
      </trkpt>
      <trkpt lat="48.61468" lon="2.11459">
        <ele>87</ele>
        <time>2013-12-15T09:12:03Z</time>
      </trkpt>
      <trkpt lat="48.61464" lon="2.11454">
        <ele>87</ele>
        <time>2013-12-15T09:12:06Z</time>
      </trkpt>
      <trkpt lat="48.61462" lon="2.11447">
        <ele>87</ele>
        <time>2013-12-15T09:12:11Z</time>
      </trkpt>
      <trkpt lat="48.61462" lon="2.11439">
        <ele>88</ele>
        <time>2013-12-15T09:12:16Z</time>
      </trkpt>
      <trkpt lat="48.61461" lon="2.11431">
        <ele>90</ele>
        <time>2013-12-15T09:12:21Z</time>
      </trkpt>
      <trkpt lat="48.61461" lon="2.11423">
        <ele>91</ele>
        <time>2013-12-15T09:12:25Z</time>
      </trkpt>
      <trkpt lat="48.61461" lon="2.11416">
        <ele>91</ele>
        <time>2013-12-15T09:12:29Z</time>
      </trkpt>
      <trkpt lat="48.61461" lon="2.11408">
        <ele>92</ele>
        <time>2013-12-15T09:12:34Z</time>
      </trkpt>
      <trkpt lat="48.61462" lon="2.11401">
        <ele>94</ele>
        <time>2013-12-15T09:12:38Z</time>
      </trkpt>
      <trkpt lat="48.61462" lon="2.11394">
        <ele>94</ele>
        <time>2013-12-15T09:12:41Z</time>
      </trkpt>
      <trkpt lat="48.61461" lon="2.11386">
        <ele>93</ele>
        <time>2013-12-15T09:12:44Z</time>
      </trkpt>
      <trkpt lat="48.6146" lon="2.11378">
        <ele>92</ele>
        <time>2013-12-15T09:12:47Z</time>
      </trkpt>
      <trkpt lat="48.61459" lon="2.1137">
        <ele>90</ele>
        <time>2013-12-15T09:12:50Z</time>
      </trkpt>
      <trkpt lat="48.61459" lon="2.11362">
        <ele>89</ele>
        <time>2013-12-15T09:12:54Z</time>
      </trkpt>
      <trkpt lat="48.61457" lon="2.11355">
        <ele>89</ele>
        <time>2013-12-15T09:12:58Z</time>
      </trkpt>
      <trkpt lat="48.61455" lon="2.11348">
        <ele>87</ele>
        <time>2013-12-15T09:13:04Z</time>
      </trkpt>
      <trkpt lat="48.61454" lon="2.1134">
        <ele>86</ele>
        <time>2013-12-15T09:13:09Z</time>
      </trkpt>
      <trkpt lat="48.61453" lon="2.11334">
        <ele>84</ele>
        <time>2013-12-15T09:13:15Z</time>
      </trkpt>
      <trkpt lat="48.61452" lon="2.11325">
        <ele>85</ele>
        <time>2013-12-15T09:13:20Z</time>
      </trkpt>
      <trkpt lat="48.61453" lon="2.11316">
        <ele>86</ele>
        <time>2013-12-15T09:13:26Z</time>
      </trkpt>
      <trkpt lat="48.61453" lon="2.11307">
        <ele>86</ele>
        <time>2013-12-15T09:13:29Z</time>
      </trkpt>
      <trkpt lat="48.61453" lon="2.113">
        <ele>87</ele>
        <time>2013-12-15T09:13:32Z</time>
      </trkpt>
      <trkpt lat="48.61451" lon="2.11293">
        <ele>88</ele>
        <time>2013-12-15T09:13:37Z</time>
      </trkpt>
      <trkpt lat="48.61451" lon="2.11286">
        <ele>90</ele>
        <time>2013-12-15T09:13:41Z</time>
      </trkpt>
      <trkpt lat="48.61451" lon="2.11276">
        <ele>90</ele>
        <time>2013-12-15T09:13:45Z</time>
      </trkpt>
      <trkpt lat="48.61452" lon="2.11268">
        <ele>90</ele>
        <time>2013-12-15T09:13:48Z</time>
      </trkpt>
      <trkpt lat="48.61451" lon="2.11259">
        <ele>91</ele>
        <time>2013-12-15T09:13:51Z</time>
      </trkpt>
      <trkpt lat="48.61451" lon="2.11251">
        <ele>91</ele>
        <time>2013-12-15T09:13:54Z</time>
      </trkpt>
      <trkpt lat="48.61452" lon="2.11244">
        <ele>91</ele>
        <time>2013-12-15T09:13:57Z</time>
      </trkpt>
      <trkpt lat="48.61454" lon="2.11237">
        <ele>91</ele>
        <time>2013-12-15T09:14:01Z</time>
      </trkpt>
      <trkpt lat="48.61456" lon="2.11231">
        <ele>91</ele>
        <time>2013-12-15T09:14:05Z</time>
      </trkpt>
      <trkpt lat="48.61456" lon="2.11223">
        <ele>91</ele>
        <time>2013-12-15T09:14:09Z</time>
      </trkpt>
      <trkpt lat="48.61457" lon="2.11216">
        <ele>92</ele>
        <time>2013-12-15T09:14:15Z</time>
      </trkpt>
      <trkpt lat="48.61459" lon="2.11207">
        <ele>93</ele>
        <time>2013-12-15T09:14:19Z</time>
      </trkpt>
      <trkpt lat="48.61462" lon="2.112">
        <ele>93</ele>
        <time>2013-12-15T09:14:22Z</time>
      </trkpt>
      <trkpt lat="48.61464" lon="2.11194">
        <ele>93</ele>
        <time>2013-12-15T09:14:25Z</time>
      </trkpt>
      <trkpt lat="48.61465" lon="2.11186">
        <ele>93</ele>
        <time>2013-12-15T09:14:30Z</time>
      </trkpt>
      <trkpt lat="48.61462" lon="2.1118">
        <ele>95</ele>
        <time>2013-12-15T09:14:35Z</time>
      </trkpt>
      <trkpt lat="48.6146" lon="2.11175">
        <ele>97</ele>
        <time>2013-12-15T09:14:40Z</time>
      </trkpt>
      <trkpt lat="48.6146" lon="2.11167">
        <ele>98</ele>
        <time>2013-12-15T09:14:44Z</time>
      </trkpt>
      <trkpt lat="48.61463" lon="2.11161">
        <ele>99</ele>
        <time>2013-12-15T09:14:47Z</time>
      </trkpt>
      <trkpt lat="48.61464" lon="2.11155">
        <ele>100</ele>
        <time>2013-12-15T09:14:50Z</time>
      </trkpt>
      <trkpt lat="48.61466" lon="2.11148">
        <ele>101</ele>
        <time>2013-12-15T09:14:54Z</time>
      </trkpt>
      <trkpt lat="48.61466" lon="2.11141">
        <ele>103</ele>
        <time>2013-12-15T09:14:59Z</time>
      </trkpt>
      <trkpt lat="48.61465" lon="2.11133">
        <ele>104</ele>
        <time>2013-12-15T09:15:04Z</time>
      </trkpt>
      <trkpt lat="48.61467" lon="2.11126">
        <ele>104</ele>
        <time>2013-12-15T09:15:08Z</time>
      </trkpt>
      <trkpt lat="48.61469" lon="2.11118">
        <ele>105</ele>
        <time>2013-12-15T09:15:11Z</time>
      </trkpt>
      <trkpt lat="48.61471" lon="2.11112">
        <ele>105</ele>
        <time>2013-12-15T09:15:13Z</time>
      </trkpt>
      <trkpt lat="48.61472" lon="2.11103">
        <ele>105</ele>
        <time>2013-12-15T09:15:16Z</time>
      </trkpt>
      <trkpt lat="48.61473" lon="2.11096">
        <ele>105</ele>
        <time>2013-12-15T09:15:19Z</time>
      </trkpt>
      <trkpt lat="48.61476" lon="2.11091">
        <ele>105</ele>
        <time>2013-12-15T09:15:23Z</time>
      </trkpt>
      <trkpt lat="48.61479" lon="2.11086">
        <ele>106</ele>
        <time>2013-12-15T09:15:26Z</time>
      </trkpt>
      <trkpt lat="48.61483" lon="2.11081">
        <ele>106</ele>
        <time>2013-12-15T09:15:29Z</time>
      </trkpt>
      <trkpt lat="48.6149" lon="2.11073">
        <ele>107</ele>
        <time>2013-12-15T09:15:33Z</time>
      </trkpt>
      <trkpt lat="48.61491" lon="2.11066">
        <ele>105</ele>
        <time>2013-12-15T09:15:40Z</time>
      </trkpt>
      <trkpt lat="48.61494" lon="2.11058">
        <ele>103</ele>
        <time>2013-12-15T09:15:47Z</time>
      </trkpt>
      <trkpt lat="48.61496" lon="2.11052">
        <ele>101</ele>
        <time>2013-12-15T09:15:51Z</time>
      </trkpt>
      <trkpt lat="48.61499" lon="2.11046">
        <ele>100</ele>
        <time>2013-12-15T09:15:55Z</time>
      </trkpt>
      <trkpt lat="48.61503" lon="2.11041">
        <ele>100</ele>
        <time>2013-12-15T09:15:59Z</time>
      </trkpt>
      <trkpt lat="48.61506" lon="2.11035">
        <ele>99</ele>
        <time>2013-12-15T09:16:01Z</time>
      </trkpt>
      <trkpt lat="48.61509" lon="2.1103">
        <ele>99</ele>
        <time>2013-12-15T09:16:03Z</time>
      </trkpt>
      <trkpt lat="48.61512" lon="2.11022">
        <ele>100</ele>
        <time>2013-12-15T09:16:06Z</time>
      </trkpt>
      <trkpt lat="48.61516" lon="2.11015">
        <ele>100</ele>
        <time>2013-12-15T09:16:09Z</time>
      </trkpt>
      <trkpt lat="48.61518" lon="2.11009">
        <ele>100</ele>
        <time>2013-12-15T09:16:13Z</time>
      </trkpt>
      <trkpt lat="48.61521" lon="2.10999">
        <ele>99</ele>
        <time>2013-12-15T09:16:23Z</time>
      </trkpt>
      <trkpt lat="48.61523" lon="2.10992">
        <ele>98</ele>
        <time>2013-12-15T09:16:27Z</time>
      </trkpt>
      <trkpt lat="48.61522" lon="2.10985">
        <ele>98</ele>
        <time>2013-12-15T09:16:32Z</time>
      </trkpt>
      <trkpt lat="48.61523" lon="2.10975">
        <ele>96</ele>
        <time>2013-12-15T09:16:35Z</time>
      </trkpt>
      <trkpt lat="48.61525" lon="2.10967">
        <ele>95</ele>
        <time>2013-12-15T09:16:38Z</time>
      </trkpt>
      <trkpt lat="48.61527" lon="2.10959">
        <ele>94</ele>
        <time>2013-12-15T09:16:43Z</time>
      </trkpt>
      <trkpt lat="48.6153" lon="2.10953">
        <ele>93</ele>
        <time>2013-12-15T09:16:46Z</time>
      </trkpt>
      <trkpt lat="48.61533" lon="2.10947">
        <ele>92</ele>
        <time>2013-12-15T09:16:49Z</time>
      </trkpt>
      <trkpt lat="48.61535" lon="2.10941">
        <ele>91</ele>
        <time>2013-12-15T09:16:54Z</time>
      </trkpt>
      <trkpt lat="48.61536" lon="2.10934">
        <ele>91</ele>
        <time>2013-12-15T09:16:58Z</time>
      </trkpt>
      <trkpt lat="48.61534" lon="2.10927">
        <ele>93</ele>
        <time>2013-12-15T09:17:04Z</time>
      </trkpt>
      <trkpt lat="48.61534" lon="2.1092">
        <ele>95</ele>
        <time>2013-12-15T09:17:09Z</time>
      </trkpt>
      <trkpt lat="48.61534" lon="2.10913">
        <ele>96</ele>
        <time>2013-12-15T09:17:13Z</time>
      </trkpt>
      <trkpt lat="48.61533" lon="2.10906">
        <ele>98</ele>
        <time>2013-12-15T09:17:17Z</time>
      </trkpt>
      <trkpt lat="48.6153" lon="2.109">
        <ele>99</ele>
        <time>2013-12-15T09:17:21Z</time>
      </trkpt>
      <trkpt lat="48.61525" lon="2.10897">
        <ele>100</ele>
        <time>2013-12-15T09:17:24Z</time>
      </trkpt>
      <trkpt lat="48.61523" lon="2.1089">
        <ele>102</ele>
        <time>2013-12-15T09:17:27Z</time>
      </trkpt>
      <trkpt lat="48.61523" lon="2.10881">
        <ele>104</ele>
        <time>2013-12-15T09:17:30Z</time>
      </trkpt>
      <trkpt lat="48.61521" lon="2.10874">
        <ele>106</ele>
        <time>2013-12-15T09:17:34Z</time>
      </trkpt>
      <trkpt lat="48.61517" lon="2.10869">
        <ele>108</ele>
        <time>2013-12-15T09:17:40Z</time>
      </trkpt>
      <trkpt lat="48.61514" lon="2.10863">
        <ele>109</ele>
        <time>2013-12-15T09:17:45Z</time>
      </trkpt>
      <trkpt lat="48.61511" lon="2.10856">
        <ele>109</ele>
        <time>2013-12-15T09:17:49Z</time>
      </trkpt>
      <trkpt lat="48.61509" lon="2.10849">
        <ele>109</ele>
        <time>2013-12-15T09:17:55Z</time>
      </trkpt>
      <trkpt lat="48.61508" lon="2.10842">
        <ele>110</ele>
        <time>2013-12-15T09:17:59Z</time>
      </trkpt>
      <trkpt lat="48.61505" lon="2.10835">
        <ele>111</ele>
        <time>2013-12-15T09:18:05Z</time>
      </trkpt>
      <trkpt lat="48.615" lon="2.1083">
        <ele>112</ele>
        <time>2013-12-15T09:18:09Z</time>
      </trkpt>
      <trkpt lat="48.61496" lon="2.10826">
        <ele>113</ele>
        <time>2013-12-15T09:18:12Z</time>
      </trkpt>
      <trkpt lat="48.61492" lon="2.10821">
        <ele>113</ele>
        <time>2013-12-15T09:18:17Z</time>
      </trkpt>
      <trkpt lat="48.61488" lon="2.10823">
        <ele>112</ele>
        <time>2013-12-15T09:18:24Z</time>
      </trkpt>
      <trkpt lat="48.61482" lon="2.10824">
        <ele>111</ele>
        <time>2013-12-15T09:18:31Z</time>
      </trkpt>
      <trkpt lat="48.61476" lon="2.10821">
        <ele>111</ele>
        <time>2013-12-15T09:18:34Z</time>
      </trkpt>
      <trkpt lat="48.6147" lon="2.10823">
        <ele>109</ele>
        <time>2013-12-15T09:18:40Z</time>
      </trkpt>
      <trkpt lat="48.61466" lon="2.10821">
        <ele>109</ele>
        <time>2013-12-15T09:18:42Z</time>
      </trkpt>
      <trkpt lat="48.61461" lon="2.10819">
        <ele>111</ele>
        <time>2013-12-15T09:18:45Z</time>
      </trkpt>
      <trkpt lat="48.61456" lon="2.10816">
        <ele>111</ele>
        <time>2013-12-15T09:18:51Z</time>
      </trkpt>
      <trkpt lat="48.61451" lon="2.10813">
        <ele>111</ele>
        <time>2013-12-15T09:18:55Z</time>
      </trkpt>
      <trkpt lat="48.61445" lon="2.10811">
        <ele>111</ele>
        <time>2013-12-15T09:18:59Z</time>
      </trkpt>
      <trkpt lat="48.6144" lon="2.10808">
        <ele>111</ele>
        <time>2013-12-15T09:19:02Z</time>
      </trkpt>
      <trkpt lat="48.61435" lon="2.10802">
        <ele>111</ele>
        <time>2013-12-15T09:19:05Z</time>
      </trkpt>
      <trkpt lat="48.61432" lon="2.10796">
        <ele>112</ele>
        <time>2013-12-15T09:19:09Z</time>
      </trkpt>
      <trkpt lat="48.61428" lon="2.10791">
        <ele>112</ele>
        <time>2013-12-15T09:19:13Z</time>
      </trkpt>
      <trkpt lat="48.61424" lon="2.10784">
        <ele>113</ele>
        <time>2013-12-15T09:19:17Z</time>
      </trkpt>
      <trkpt lat="48.6142" lon="2.1078">
        <ele>112</ele>
        <time>2013-12-15T09:19:21Z</time>
      </trkpt>
      <trkpt lat="48.61417" lon="2.10773">
        <ele>112</ele>
        <time>2013-12-15T09:19:24Z</time>
      </trkpt>
      <trkpt lat="48.61415" lon="2.10766">
        <ele>112</ele>
        <time>2013-12-15T09:19:27Z</time>
      </trkpt>
      <trkpt lat="48.61413" lon="2.10758">
        <ele>111</ele>
        <time>2013-12-15T09:19:31Z</time>
      </trkpt>
      <trkpt lat="48.61413" lon="2.10751">
        <ele>110</ele>
        <time>2013-12-15T09:19:36Z</time>
      </trkpt>
      <trkpt lat="48.61414" lon="2.10743">
        <ele>110</ele>
        <time>2013-12-15T09:19:42Z</time>
      </trkpt>
      <trkpt lat="48.61415" lon="2.10736">
        <ele>109</ele>
        <time>2013-12-15T09:19:47Z</time>
      </trkpt>
      <trkpt lat="48.61418" lon="2.1073">
        <ele>107</ele>
        <time>2013-12-15T09:19:54Z</time>
      </trkpt>
      <trkpt lat="48.61422" lon="2.10728">
        <ele>106</ele>
        <time>2013-12-15T09:19:58Z</time>
      </trkpt>
      <trkpt lat="48.61427" lon="2.10725">
        <ele>106</ele>
        <time>2013-12-15T09:20:02Z</time>
      </trkpt>
      <trkpt lat="48.61433" lon="2.10723">
        <ele>106</ele>
        <time>2013-12-15T09:20:06Z</time>
      </trkpt>
      <trkpt lat="48.61437" lon="2.1072">
        <ele>107</ele>
        <time>2013-12-15T09:20:09Z</time>
      </trkpt>
      <trkpt lat="48.6144" lon="2.10714">
        <ele>107</ele>
        <time>2013-12-15T09:20:12Z</time>
      </trkpt>
      <trkpt lat="48.6144" lon="2.10705">
        <ele>108</ele>
        <time>2013-12-15T09:20:16Z</time>
      </trkpt>
      <trkpt lat="48.6144" lon="2.10696">
        <ele>108</ele>
        <time>2013-12-15T09:20:19Z</time>
      </trkpt>
      <trkpt lat="48.61441" lon="2.10689">
        <ele>108</ele>
        <time>2013-12-15T09:20:22Z</time>
      </trkpt>
      <trkpt lat="48.61439" lon="2.1068">
        <ele>107</ele>
        <time>2013-12-15T09:20:26Z</time>
      </trkpt>
      <trkpt lat="48.61439" lon="2.10673">
        <ele>108</ele>
        <time>2013-12-15T09:20:29Z</time>
      </trkpt>
      <trkpt lat="48.6144" lon="2.10664">
        <ele>108</ele>
        <time>2013-12-15T09:20:34Z</time>
      </trkpt>
      <trkpt lat="48.6144" lon="2.10656">
        <ele>108</ele>
        <time>2013-12-15T09:20:40Z</time>
      </trkpt>
      <trkpt lat="48.61441" lon="2.10647">
        <ele>108</ele>
        <time>2013-12-15T09:20:44Z</time>
      </trkpt>
      <trkpt lat="48.61441" lon="2.1064">
        <ele>108</ele>
        <time>2013-12-15T09:20:48Z</time>
      </trkpt>
      <trkpt lat="48.61439" lon="2.10632">
        <ele>109</ele>
        <time>2013-12-15T09:20:52Z</time>
      </trkpt>
      <trkpt lat="48.61438" lon="2.10624">
        <ele>109</ele>
        <time>2013-12-15T09:20:55Z</time>
      </trkpt>
      <trkpt lat="48.61434" lon="2.10619">
        <ele>109</ele>
        <time>2013-12-15T09:20:59Z</time>
      </trkpt>
      <trkpt lat="48.61429" lon="2.10618">
        <ele>108</ele>
        <time>2013-12-15T09:21:08Z</time>
      </trkpt>
      <trkpt lat="48.61426" lon="2.10613">
        <ele>110</ele>
        <time>2013-12-15T09:21:14Z</time>
      </trkpt>
      <trkpt lat="48.61422" lon="2.1061">
        <ele>111</ele>
        <time>2013-12-15T09:21:20Z</time>
      </trkpt>
      <trkpt lat="48.61421" lon="2.10602">
        <ele>113</ele>
        <time>2013-12-15T09:21:27Z</time>
      </trkpt>
      <trkpt lat="48.6142" lon="2.10594">
        <ele>115</ele>
        <time>2013-12-15T09:21:31Z</time>
      </trkpt>
      <trkpt lat="48.61419" lon="2.10587">
        <ele>116</ele>
        <time>2013-12-15T09:21:35Z</time>
      </trkpt>
      <trkpt lat="48.61416" lon="2.10581">
        <ele>116</ele>
        <time>2013-12-15T09:21:41Z</time>
      </trkpt>
      <trkpt lat="48.61412" lon="2.10579">
        <ele>115</ele>
        <time>2013-12-15T09:21:44Z</time>
      </trkpt>
      <trkpt lat="48.61413" lon="2.1057">
        <ele>116</ele>
        <time>2013-12-15T09:21:48Z</time>
      </trkpt>
      <trkpt lat="48.61416" lon="2.10564">
        <ele>116</ele>
        <time>2013-12-15T09:21:50Z</time>
      </trkpt>
      <trkpt lat="48.61417" lon="2.10557">
        <ele>116</ele>
        <time>2013-12-15T09:21:52Z</time>
      </trkpt>
      <trkpt lat="48.61417" lon="2.10548">
        <ele>117</ele>
        <time>2013-12-15T09:21:55Z</time>
      </trkpt>
      <trkpt lat="48.61418" lon="2.10539">
        <ele>117</ele>
        <time>2013-12-15T09:21:58Z</time>
      </trkpt>
      <trkpt lat="48.61419" lon="2.10532">
        <ele>116</ele>
        <time>2013-12-15T09:22:02Z</time>
      </trkpt>
      <trkpt lat="48.61417" lon="2.10525">
        <ele>116</ele>
        <time>2013-12-15T09:22:08Z</time>
      </trkpt>
      <trkpt lat="48.61419" lon="2.10517">
        <ele>115</ele>
        <time>2013-12-15T09:22:12Z</time>
      </trkpt>
      <trkpt lat="48.6142" lon="2.1051">
        <ele>114</ele>
        <time>2013-12-15T09:22:15Z</time>
      </trkpt>
      <trkpt lat="48.61422" lon="2.10504">
        <ele>113</ele>
        <time>2013-12-15T09:22:19Z</time>
      </trkpt>
      <trkpt lat="48.61426" lon="2.10498">
        <ele>112</ele>
        <time>2013-12-15T09:22:23Z</time>
      </trkpt>
      <trkpt lat="48.61429" lon="2.10491">
        <ele>110</ele>
        <time>2013-12-15T09:22:27Z</time>
      </trkpt>
      <trkpt lat="48.61431" lon="2.10479">
        <ele>108</ele>
        <time>2013-12-15T09:22:38Z</time>
      </trkpt>
      <trkpt lat="48.61435" lon="2.10473">
        <ele>108</ele>
        <time>2013-12-15T09:22:41Z</time>
      </trkpt>
      <trkpt lat="48.61438" lon="2.10466">
        <ele>107</ele>
        <time>2013-12-15T09:22:44Z</time>
      </trkpt>
      <trkpt lat="48.61438" lon="2.10457">
        <ele>106</ele>
        <time>2013-12-15T09:22:48Z</time>
      </trkpt>
      <trkpt lat="48.61439" lon="2.10448">
        <ele>105</ele>
        <time>2013-12-15T09:22:53Z</time>
      </trkpt>
      <trkpt lat="48.61442" lon="2.10442">
        <ele>105</ele>
        <time>2013-12-15T09:22:56Z</time>
      </trkpt>
      <trkpt lat="48.61446" lon="2.10436">
        <ele>104</ele>
        <time>2013-12-15T09:22:59Z</time>
      </trkpt>
      <trkpt lat="48.6145" lon="2.10432">
        <ele>104</ele>
        <time>2013-12-15T09:23:04Z</time>
      </trkpt>
      <trkpt lat="48.61453" lon="2.10427">
        <ele>104</ele>
        <time>2013-12-15T09:23:06Z</time>
      </trkpt>
      <trkpt lat="48.61457" lon="2.1042">
        <ele>103</ele>
        <time>2013-12-15T09:23:09Z</time>
      </trkpt>
      <trkpt lat="48.6146" lon="2.10415">
        <ele>103</ele>
        <time>2013-12-15T09:23:13Z</time>
      </trkpt>
      <trkpt lat="48.61465" lon="2.1041">
        <ele>103</ele>
        <time>2013-12-15T09:23:18Z</time>
      </trkpt>
      <trkpt lat="48.61469" lon="2.10407">
        <ele>104</ele>
        <time>2013-12-15T09:23:21Z</time>
      </trkpt>
      <trkpt lat="48.61473" lon="2.10401">
        <ele>104</ele>
        <time>2013-12-15T09:23:26Z</time>
      </trkpt>
      <trkpt lat="48.61476" lon="2.10393">
        <ele>104</ele>
        <time>2013-12-15T09:23:30Z</time>
      </trkpt>
      <trkpt lat="48.6148" lon="2.10385">
        <ele>104</ele>
        <time>2013-12-15T09:23:33Z</time>
      </trkpt>
      <trkpt lat="48.61481" lon="2.10378">
        <ele>104</ele>
        <time>2013-12-15T09:23:36Z</time>
      </trkpt>
      <trkpt lat="48.61484" lon="2.1037">
        <ele>104</ele>
        <time>2013-12-15T09:23:40Z</time>
      </trkpt>
      <trkpt lat="48.61488" lon="2.10368">
        <ele>104</ele>
        <time>2013-12-15T09:23:43Z</time>
      </trkpt>
      <trkpt lat="48.61491" lon="2.10362">
        <ele>104</ele>
        <time>2013-12-15T09:23:46Z</time>
      </trkpt>
      <trkpt lat="48.61493" lon="2.10356">
        <ele>104</ele>
        <time>2013-12-15T09:23:49Z</time>
      </trkpt>
      <trkpt lat="48.61497" lon="2.1035">
        <ele>104</ele>
        <time>2013-12-15T09:23:54Z</time>
      </trkpt>
      <trkpt lat="48.61501" lon="2.10347">
        <ele>104</ele>
        <time>2013-12-15T09:23:58Z</time>
      </trkpt>
      <trkpt lat="48.61505" lon="2.10342">
        <ele>105</ele>
        <time>2013-12-15T09:24:01Z</time>
      </trkpt>
      <trkpt lat="48.61505" lon="2.10339">
        <ele>112</ele>
        <time>2013-12-15T09:24:22Z</time>
      </trkpt>
      <trkpt lat="48.61507" lon="2.10332">
        <ele>111</ele>
        <time>2013-12-15T09:24:26Z</time>
      </trkpt>
      <trkpt lat="48.61511" lon="2.10326">
        <ele>110</ele>
        <time>2013-12-15T09:24:30Z</time>
      </trkpt>
      <trkpt lat="48.61513" lon="2.10319">
        <ele>110</ele>
        <time>2013-12-15T09:24:35Z</time>
      </trkpt>
      <trkpt lat="48.61517" lon="2.10312">
        <ele>110</ele>
        <time>2013-12-15T09:24:38Z</time>
      </trkpt>
      <trkpt lat="48.6152" lon="2.10306">
        <ele>110</ele>
        <time>2013-12-15T09:24:40Z</time>
      </trkpt>
      <trkpt lat="48.61523" lon="2.103">
        <ele>110</ele>
        <time>2013-12-15T09:24:43Z</time>
      </trkpt>
      <trkpt lat="48.61526" lon="2.10293">
        <ele>109</ele>
        <time>2013-12-15T09:24:48Z</time>
      </trkpt>
      <trkpt lat="48.61528" lon="2.10285">
        <ele>109</ele>
        <time>2013-12-15T09:24:52Z</time>
      </trkpt>
      <trkpt lat="48.6153" lon="2.10278">
        <ele>109</ele>
        <time>2013-12-15T09:24:55Z</time>
      </trkpt>
      <trkpt lat="48.61532" lon="2.10269">
        <ele>109</ele>
        <time>2013-12-15T09:24:58Z</time>
      </trkpt>
      <trkpt lat="48.61532" lon="2.10262">
        <ele>109</ele>
        <time>2013-12-15T09:25:01Z</time>
      </trkpt>
      <trkpt lat="48.61532" lon="2.10255">
        <ele>109</ele>
        <time>2013-12-15T09:25:06Z</time>
      </trkpt>
      <trkpt lat="48.61535" lon="2.10249">
        <ele>110</ele>
        <time>2013-12-15T09:25:10Z</time>
      </trkpt>
      <trkpt lat="48.61538" lon="2.10242">
        <ele>111</ele>
        <time>2013-12-15T09:25:14Z</time>
      </trkpt>
      <trkpt lat="48.61539" lon="2.10234">
        <ele>111</ele>
        <time>2013-12-15T09:25:19Z</time>
      </trkpt>
      <trkpt lat="48.61542" lon="2.10226">
        <ele>112</ele>
        <time>2013-12-15T09:25:23Z</time>
      </trkpt>
      <trkpt lat="48.61544" lon="2.10218">
        <ele>113</ele>
        <time>2013-12-15T09:25:27Z</time>
      </trkpt>
      <trkpt lat="48.61547" lon="2.1021">
        <ele>114</ele>
        <time>2013-12-15T09:25:31Z</time>
      </trkpt>
      <trkpt lat="48.61549" lon="2.10203">
        <ele>114</ele>
        <time>2013-12-15T09:25:34Z</time>
      </trkpt>
      <trkpt lat="48.61552" lon="2.10198">
        <ele>113</ele>
        <time>2013-12-15T09:25:40Z</time>
      </trkpt>
      <trkpt lat="48.61554" lon="2.10201">
        <ele>112</ele>
        <time>2013-12-15T09:25:46Z</time>
      </trkpt>
      <trkpt lat="48.61555" lon="2.10207">
        <ele>113</ele>
        <time>2013-12-15T09:26:05Z</time>
      </trkpt>
      <trkpt lat="48.6156" lon="2.10209">
        <ele>111</ele>
        <time>2013-12-15T09:26:18Z</time>
      </trkpt>
      <trkpt lat="48.61564" lon="2.10215">
        <ele>110</ele>
        <time>2013-12-15T09:26:23Z</time>
      </trkpt>
      <trkpt lat="48.61567" lon="2.10221">
        <ele>111</ele>
        <time>2013-12-15T09:26:26Z</time>
      </trkpt>
      <trkpt lat="48.61571" lon="2.10226">
        <ele>111</ele>
        <time>2013-12-15T09:26:31Z</time>
      </trkpt>
      <trkpt lat="48.61573" lon="2.10233">
        <ele>113</ele>
        <time>2013-12-15T09:26:35Z</time>
      </trkpt>
      <trkpt lat="48.61576" lon="2.10238">
        <ele>113</ele>
        <time>2013-12-15T09:26:38Z</time>
      </trkpt>
      <trkpt lat="48.6158" lon="2.10245">
        <ele>113</ele>
        <time>2013-12-15T09:26:41Z</time>
      </trkpt>
      <trkpt lat="48.61584" lon="2.10251">
        <ele>112</ele>
        <time>2013-12-15T09:26:44Z</time>
      </trkpt>
      <trkpt lat="48.61588" lon="2.10256">
        <ele>111</ele>
        <time>2013-12-15T09:26:51Z</time>
      </trkpt>
      <trkpt lat="48.61593" lon="2.10261">
        <ele>111</ele>
        <time>2013-12-15T09:26:55Z</time>
      </trkpt>
      <trkpt lat="48.61596" lon="2.10267">
        <ele>111</ele>
        <time>2013-12-15T09:26:58Z</time>
      </trkpt>
      <trkpt lat="48.61599" lon="2.10272">
        <ele>111</ele>
        <time>2013-12-15T09:27:00Z</time>
      </trkpt>
      <trkpt lat="48.61602" lon="2.10277">
        <ele>111</ele>
        <time>2013-12-15T09:27:02Z</time>
      </trkpt>
      <trkpt lat="48.61606" lon="2.10281">
        <ele>110</ele>
        <time>2013-12-15T09:27:05Z</time>
      </trkpt>
      <trkpt lat="48.6161" lon="2.10286">
        <ele>110</ele>
        <time>2013-12-15T09:27:11Z</time>
      </trkpt>
      <trkpt lat="48.61614" lon="2.10293">
        <ele>109</ele>
        <time>2013-12-15T09:27:15Z</time>
      </trkpt>
      <trkpt lat="48.61618" lon="2.10298">
        <ele>109</ele>
        <time>2013-12-15T09:27:17Z</time>
      </trkpt>
      <trkpt lat="48.61621" lon="2.10303">
        <ele>108</ele>
        <time>2013-12-15T09:27:19Z</time>
      </trkpt>
      <trkpt lat="48.61624" lon="2.10307">
        <ele>108</ele>
        <time>2013-12-15T09:27:21Z</time>
      </trkpt>
      <trkpt lat="48.61626" lon="2.1031">
        <ele>109</ele>
        <time>2013-12-15T09:27:23Z</time>
      </trkpt>
      <trkpt lat="48.61631" lon="2.10317">
        <ele>109</ele>
        <time>2013-12-15T09:27:27Z</time>
      </trkpt>
      <trkpt lat="48.61633" lon="2.10319">
        <ele>109</ele>
        <time>2013-12-15T09:27:29Z</time>
      </trkpt>
      <trkpt lat="48.61638" lon="2.1032">
        <ele>108</ele>
        <time>2013-12-15T09:27:36Z</time>
      </trkpt>
      <trkpt lat="48.61641" lon="2.10326">
        <ele>108</ele>
        <time>2013-12-15T09:27:40Z</time>
      </trkpt>
      <trkpt lat="48.61644" lon="2.10333">
        <ele>107</ele>
        <time>2013-12-15T09:27:43Z</time>
      </trkpt>
      <trkpt lat="48.61646" lon="2.10341">
        <ele>108</ele>
        <time>2013-12-15T09:27:46Z</time>
      </trkpt>
      <trkpt lat="48.61649" lon="2.10347">
        <ele>108</ele>
        <time>2013-12-15T09:27:50Z</time>
      </trkpt>
      <trkpt lat="48.61652" lon="2.10353">
        <ele>108</ele>
        <time>2013-12-15T09:27:56Z</time>
      </trkpt>
      <trkpt lat="48.61654" lon="2.10362">
        <ele>109</ele>
        <time>2013-12-15T09:28:00Z</time>
      </trkpt>
      <trkpt lat="48.61656" lon="2.10368">
        <ele>109</ele>
        <time>2013-12-15T09:28:02Z</time>
      </trkpt>
      <trkpt lat="48.61659" lon="2.10376">
        <ele>109</ele>
        <time>2013-12-15T09:28:05Z</time>
      </trkpt>
      <trkpt lat="48.61663" lon="2.10381">
        <ele>110</ele>
        <time>2013-12-15T09:28:13Z</time>
      </trkpt>
      <trkpt lat="48.61664" lon="2.10388">
        <ele>110</ele>
        <time>2013-12-15T09:28:17Z</time>
      </trkpt>
      <trkpt lat="48.61668" lon="2.10392">
        <ele>110</ele>
        <time>2013-12-15T09:28:20Z</time>
      </trkpt>
      <trkpt lat="48.6167" lon="2.10399">
        <ele>110</ele>
        <time>2013-12-15T09:28:23Z</time>
      </trkpt>
      <trkpt lat="48.61672" lon="2.10408">
        <ele>111</ele>
        <time>2013-12-15T09:28:26Z</time>
      </trkpt>
      <trkpt lat="48.61675" lon="2.10415">
        <ele>110</ele>
        <time>2013-12-15T09:28:30Z</time>
      </trkpt>
      <trkpt lat="48.61677" lon="2.10422">
        <ele>111</ele>
        <time>2013-12-15T09:28:37Z</time>
      </trkpt>
      <trkpt lat="48.61679" lon="2.1043">
        <ele>111</ele>
        <time>2013-12-15T09:28:42Z</time>
      </trkpt>
      <trkpt lat="48.61681" lon="2.10437">
        <ele>111</ele>
        <time>2013-12-15T09:28:45Z</time>
      </trkpt>
      <trkpt lat="48.61685" lon="2.10444">
        <ele>110</ele>
        <time>2013-12-15T09:28:48Z</time>
      </trkpt>
      <trkpt lat="48.61689" lon="2.10449">
        <ele>109</ele>
        <time>2013-12-15T09:28:52Z</time>
      </trkpt>
      <trkpt lat="48.61691" lon="2.10456">
        <ele>110</ele>
        <time>2013-12-15T09:28:56Z</time>
      </trkpt>
      <trkpt lat="48.61694" lon="2.10463">
        <ele>111</ele>
        <time>2013-12-15T09:28:59Z</time>
      </trkpt>
      <trkpt lat="48.61697" lon="2.10467">
        <ele>111</ele>
        <time>2013-12-15T09:29:02Z</time>
      </trkpt>
      <trkpt lat="48.61702" lon="2.10471">
        <ele>111</ele>
        <time>2013-12-15T09:29:05Z</time>
      </trkpt>
      <trkpt lat="48.61703" lon="2.10479">
        <ele>111</ele>
        <time>2013-12-15T09:29:09Z</time>
      </trkpt>
      <trkpt lat="48.61705" lon="2.10487">
        <ele>112</ele>
        <time>2013-12-15T09:29:12Z</time>
      </trkpt>
      <trkpt lat="48.61708" lon="2.10493">
        <ele>113</ele>
        <time>2013-12-15T09:29:14Z</time>
      </trkpt>
      <trkpt lat="48.6171" lon="2.105">
        <ele>114</ele>
        <time>2013-12-15T09:29:16Z</time>
      </trkpt>
      <trkpt lat="48.61711" lon="2.10504">
        <ele>114</ele>
        <time>2013-12-15T09:29:17Z</time>
      </trkpt>
      <trkpt lat="48.61712" lon="2.10507">
        <ele>115</ele>
        <time>2013-12-15T09:29:19Z</time>
      </trkpt>
      <trkpt lat="48.61714" lon="2.10515">
        <ele>114</ele>
        <time>2013-12-15T09:29:26Z</time>
      </trkpt>
      <trkpt lat="48.61718" lon="2.10519">
        <ele>114</ele>
        <time>2013-12-15T09:29:29Z</time>
      </trkpt>
      <trkpt lat="48.61721" lon="2.10524">
        <ele>114</ele>
        <time>2013-12-15T09:29:31Z</time>
      </trkpt>
      <trkpt lat="48.61724" lon="2.10527">
        <ele>114</ele>
        <time>2013-12-15T09:29:32Z</time>
      </trkpt>
      <trkpt lat="48.61729" lon="2.10535">
        <ele>114</ele>
        <time>2013-12-15T09:29:45Z</time>
      </trkpt>
      <trkpt lat="48.61733" lon="2.10541">
        <ele>113</ele>
        <time>2013-12-15T09:29:49Z</time>
      </trkpt>
      <trkpt lat="48.61737" lon="2.10547">
        <ele>111</ele>
        <time>2013-12-15T09:29:52Z</time>
      </trkpt>
      <trkpt lat="48.61741" lon="2.10554">
        <ele>110</ele>
        <time>2013-12-15T09:29:55Z</time>
      </trkpt>
      <trkpt lat="48.61743" lon="2.1056">
        <ele>110</ele>
        <time>2013-12-15T09:29:58Z</time>
      </trkpt>
      <trkpt lat="48.61744" lon="2.10568">
        <ele>111</ele>
        <time>2013-12-15T09:30:01Z</time>
      </trkpt>
      <trkpt lat="48.61746" lon="2.10575">
        <ele>111</ele>
        <time>2013-12-15T09:30:04Z</time>
      </trkpt>
      <trkpt lat="48.6175" lon="2.10581">
        <ele>111</ele>
        <time>2013-12-15T09:30:09Z</time>
      </trkpt>
      <trkpt lat="48.61753" lon="2.10588">
        <ele>111</ele>
        <time>2013-12-15T09:30:14Z</time>
      </trkpt>
      <trkpt lat="48.61755" lon="2.10594">
        <ele>111</ele>
        <time>2013-12-15T09:30:18Z</time>
      </trkpt>
      <trkpt lat="48.61759" lon="2.10602">
        <ele>110</ele>
        <time>2013-12-15T09:30:22Z</time>
      </trkpt>
      <trkpt lat="48.61761" lon="2.10608">
        <ele>110</ele>
        <time>2013-12-15T09:30:25Z</time>
      </trkpt>
      <trkpt lat="48.61764" lon="2.10614">
        <ele>110</ele>
        <time>2013-12-15T09:30:29Z</time>
      </trkpt>
      <trkpt lat="48.61767" lon="2.10619">
        <ele>109</ele>
        <time>2013-12-15T09:30:35Z</time>
      </trkpt>
      <trkpt lat="48.6177" lon="2.10626">
        <ele>109</ele>
        <time>2013-12-15T09:30:39Z</time>
      </trkpt>
      <trkpt lat="48.61773" lon="2.10635">
        <ele>109</ele>
        <time>2013-12-15T09:30:42Z</time>
      </trkpt>
      <trkpt lat="48.61775" lon="2.10644">
        <ele>111</ele>
        <time>2013-12-15T09:30:45Z</time>
      </trkpt>
      <trkpt lat="48.61777" lon="2.10651">
        <ele>111</ele>
        <time>2013-12-15T09:30:48Z</time>
      </trkpt>
      <trkpt lat="48.61781" lon="2.10655">
        <ele>110</ele>
        <time>2013-12-15T09:30:54Z</time>
      </trkpt>
      <trkpt lat="48.61784" lon="2.10662">
        <ele>110</ele>
        <time>2013-12-15T09:30:59Z</time>
      </trkpt>
      <trkpt lat="48.61789" lon="2.10668">
        <ele>108</ele>
        <time>2013-12-15T09:31:02Z</time>
      </trkpt>
      <trkpt lat="48.61792" lon="2.10676">
        <ele>107</ele>
        <time>2013-12-15T09:31:05Z</time>
      </trkpt>
      <trkpt lat="48.61795" lon="2.10682">
        <ele>106</ele>
        <time>2013-12-15T09:31:09Z</time>
      </trkpt>
      <trkpt lat="48.61798" lon="2.10688">
        <ele>106</ele>
        <time>2013-12-15T09:31:14Z</time>
      </trkpt>
      <trkpt lat="48.61801" lon="2.10692">
        <ele>106</ele>
        <time>2013-12-15T09:31:24Z</time>
      </trkpt>
      <trkpt lat="48.61805" lon="2.10697">
        <ele>106</ele>
        <time>2013-12-15T09:31:31Z</time>
      </trkpt>
      <trkpt lat="48.61803" lon="2.10702">
        <ele>107</ele>
        <time>2013-12-15T09:31:39Z</time>
      </trkpt>
      <trkpt lat="48.61806" lon="2.10708">
        <ele>107</ele>
        <time>2013-12-15T09:31:41Z</time>
      </trkpt>
      <trkpt lat="48.6181" lon="2.10711">
        <ele>108</ele>
        <time>2013-12-15T09:31:47Z</time>
      </trkpt>
      <trkpt lat="48.61813" lon="2.10716">
        <ele>108</ele>
        <time>2013-12-15T09:31:53Z</time>
      </trkpt>
      <trkpt lat="48.61815" lon="2.10723">
        <ele>109</ele>
        <time>2013-12-15T09:31:58Z</time>
      </trkpt>
      <trkpt lat="48.61817" lon="2.1073">
        <ele>109</ele>
        <time>2013-12-15T09:32:02Z</time>
      </trkpt>
      <trkpt lat="48.61819" lon="2.10737">
        <ele>111</ele>
        <time>2013-12-15T09:32:06Z</time>
      </trkpt>
      <trkpt lat="48.61819" lon="2.10746">
        <ele>111</ele>
        <time>2013-12-15T09:32:11Z</time>
      </trkpt>
      <trkpt lat="48.61821" lon="2.10754">
        <ele>111</ele>
        <time>2013-12-15T09:32:14Z</time>
      </trkpt>
      <trkpt lat="48.61824" lon="2.10761">
        <ele>112</ele>
        <time>2013-12-15T09:32:18Z</time>
      </trkpt>
      <trkpt lat="48.61826" lon="2.10768">
        <ele>111</ele>
        <time>2013-12-15T09:32:22Z</time>
      </trkpt>
      <trkpt lat="48.61829" lon="2.10775">
        <ele>110</ele>
        <time>2013-12-15T09:32:25Z</time>
      </trkpt>
      <trkpt lat="48.61833" lon="2.10781">
        <ele>110</ele>
        <time>2013-12-15T09:32:30Z</time>
      </trkpt>
      <trkpt lat="48.61837" lon="2.10786">
        <ele>108</ele>
        <time>2013-12-15T09:32:34Z</time>
      </trkpt>
      <trkpt lat="48.6184" lon="2.10794">
        <ele>107</ele>
        <time>2013-12-15T09:32:37Z</time>
      </trkpt>
      <trkpt lat="48.61844" lon="2.108">
        <ele>107</ele>
        <time>2013-12-15T09:32:40Z</time>
      </trkpt>
      <trkpt lat="48.61848" lon="2.10806">
        <ele>106</ele>
        <time>2013-12-15T09:32:46Z</time>
      </trkpt>
      <trkpt lat="48.61851" lon="2.10814">
        <ele>105</ele>
        <time>2013-12-15T09:32:50Z</time>
      </trkpt>
      <trkpt lat="48.61853" lon="2.10818">
        <ele>104</ele>
        <time>2013-12-15T09:32:59Z</time>
      </trkpt>
      <trkpt lat="48.61856" lon="2.10824">
        <ele>104</ele>
        <time>2013-12-15T09:33:07Z</time>
      </trkpt>
      <trkpt lat="48.61859" lon="2.10831">
        <ele>104</ele>
        <time>2013-12-15T09:33:16Z</time>
      </trkpt>
      <trkpt lat="48.61863" lon="2.10838">
        <ele>104</ele>
        <time>2013-12-15T09:33:19Z</time>
      </trkpt>
      <trkpt lat="48.61865" lon="2.10843">
        <ele>104</ele>
        <time>2013-12-15T09:33:21Z</time>
      </trkpt>
      <trkpt lat="48.61867" lon="2.10848">
        <ele>104</ele>
        <time>2013-12-15T09:33:23Z</time>
      </trkpt>
      <trkpt lat="48.61872" lon="2.10856">
        <ele>103</ele>
        <time>2013-12-15T09:33:30Z</time>
      </trkpt>
      <trkpt lat="48.61875" lon="2.10861">
        <ele>103</ele>
        <time>2013-12-15T09:33:33Z</time>
      </trkpt>
      <trkpt lat="48.61879" lon="2.10868">
        <ele>103</ele>
        <time>2013-12-15T09:33:36Z</time>
      </trkpt>
      <trkpt lat="48.61881" lon="2.10875">
        <ele>103</ele>
        <time>2013-12-15T09:33:38Z</time>
      </trkpt>
      <trkpt lat="48.61883" lon="2.10883">
        <ele>103</ele>
        <time>2013-12-15T09:33:41Z</time>
      </trkpt>
      <trkpt lat="48.61885" lon="2.1089">
        <ele>104</ele>
        <time>2013-12-15T09:33:48Z</time>
      </trkpt>
      <trkpt lat="48.61889" lon="2.10893">
        <ele>104</ele>
        <time>2013-12-15T09:33:53Z</time>
      </trkpt>
      <trkpt lat="48.61891" lon="2.10898">
        <ele>104</ele>
        <time>2013-12-15T09:34:01Z</time>
      </trkpt>
      <trkpt lat="48.61894" lon="2.10901">
        <ele>104</ele>
        <time>2013-12-15T09:34:36Z</time>
      </trkpt>
      <trkpt lat="48.61897" lon="2.10895">
        <ele>102</ele>
        <time>2013-12-15T09:36:05Z</time>
      </trkpt>
      <trkpt lat="48.61899" lon="2.10891">
        <ele>102</ele>
        <time>2013-12-15T09:36:07Z</time>
      </trkpt>
      <trkpt lat="48.61894" lon="2.10888">
        <ele>102</ele>
        <time>2013-12-15T09:36:34Z</time>
      </trkpt>
      <trkpt lat="48.61891" lon="2.10882">
        <ele>104</ele>
        <time>2013-12-15T09:36:42Z</time>
      </trkpt>
      <trkpt lat="48.61889" lon="2.10875">
        <ele>105</ele>
        <time>2013-12-15T09:36:45Z</time>
      </trkpt>
      <trkpt lat="48.61887" lon="2.10867">
        <ele>107</ele>
        <time>2013-12-15T09:36:48Z</time>
      </trkpt>
      <trkpt lat="48.61884" lon="2.10862">
        <ele>108</ele>
        <time>2013-12-15T09:36:51Z</time>
      </trkpt>
      <trkpt lat="48.61881" lon="2.10856">
        <ele>110</ele>
        <time>2013-12-15T09:36:56Z</time>
      </trkpt>
      <trkpt lat="48.6188" lon="2.10849">
        <ele>112</ele>
        <time>2013-12-15T09:37:01Z</time>
      </trkpt>
      <trkpt lat="48.61878" lon="2.10842">
        <ele>114</ele>
        <time>2013-12-15T09:37:05Z</time>
      </trkpt>
      <trkpt lat="48.61869" lon="2.10815">
        <ele>124</ele>
        <time>2013-12-15T09:37:36Z</time>
      </trkpt>
      <trkpt lat="48.61866" lon="2.1081">
        <ele>125</ele>
        <time>2013-12-15T09:37:39Z</time>
      </trkpt>
      <trkpt lat="48.61862" lon="2.10804">
        <ele>126</ele>
        <time>2013-12-15T09:37:43Z</time>
      </trkpt>
      <trkpt lat="48.61859" lon="2.10797">
        <ele>126</ele>
        <time>2013-12-15T09:37:47Z</time>
      </trkpt>
      <trkpt lat="48.61855" lon="2.10792">
        <ele>127</ele>
        <time>2013-12-15T09:37:52Z</time>
      </trkpt>
      <trkpt lat="48.61853" lon="2.10786">
        <ele>128</ele>
        <time>2013-12-15T09:37:57Z</time>
      </trkpt>
      <trkpt lat="48.61851" lon="2.10779">
        <ele>128</ele>
        <time>2013-12-15T09:38:00Z</time>
      </trkpt>
      <trkpt lat="48.61847" lon="2.10771">
        <ele>129</ele>
        <time>2013-12-15T09:38:03Z</time>
      </trkpt>
      <trkpt lat="48.61843" lon="2.10763">
        <ele>129</ele>
        <time>2013-12-15T09:38:06Z</time>
      </trkpt>
      <trkpt lat="48.6184" lon="2.10758">
        <ele>129</ele>
        <time>2013-12-15T09:38:09Z</time>
      </trkpt>
      <trkpt lat="48.61836" lon="2.10751">
        <ele>128</ele>
        <time>2013-12-15T09:38:15Z</time>
      </trkpt>
      <trkpt lat="48.61833" lon="2.10744">
        <ele>127</ele>
        <time>2013-12-15T09:38:19Z</time>
      </trkpt>
      <trkpt lat="48.6183" lon="2.10739">
        <ele>128</ele>
        <time>2013-12-15T09:38:24Z</time>
      </trkpt>
      <trkpt lat="48.61827" lon="2.10731">
        <ele>127</ele>
        <time>2013-12-15T09:38:28Z</time>
      </trkpt>
      <trkpt lat="48.61826" lon="2.10724">
        <ele>127</ele>
        <time>2013-12-15T09:38:31Z</time>
      </trkpt>
      <trkpt lat="48.61823" lon="2.10718">
        <ele>127</ele>
        <time>2013-12-15T09:38:34Z</time>
      </trkpt>
      <trkpt lat="48.61819" lon="2.10712">
        <ele>126</ele>
        <time>2013-12-15T09:38:37Z</time>
      </trkpt>
      <trkpt lat="48.61815" lon="2.10708">
        <ele>126</ele>
        <time>2013-12-15T09:38:40Z</time>
      </trkpt>
      <trkpt lat="48.61812" lon="2.10703">
        <ele>125</ele>
        <time>2013-12-15T09:38:43Z</time>
      </trkpt>
      <trkpt lat="48.6181" lon="2.10696">
        <ele>125</ele>
        <time>2013-12-15T09:38:46Z</time>
      </trkpt>
      <trkpt lat="48.61808" lon="2.10689">
        <ele>125</ele>
        <time>2013-12-15T09:38:49Z</time>
      </trkpt>
      <trkpt lat="48.61805" lon="2.10684">
        <ele>125</ele>
        <time>2013-12-15T09:38:53Z</time>
      </trkpt>
      <trkpt lat="48.61801" lon="2.10689">
        <ele>122</ele>
        <time>2013-12-15T09:39:12Z</time>
      </trkpt>
      <trkpt lat="48.61798" lon="2.10684">
        <ele>117</ele>
        <time>2013-12-15T09:39:57Z</time>
      </trkpt>
      <trkpt lat="48.61796" lon="2.10677">
        <ele>117</ele>
        <time>2013-12-15T09:40:01Z</time>
      </trkpt>
      <trkpt lat="48.61794" lon="2.1067">
        <ele>115</ele>
        <time>2013-12-15T09:40:04Z</time>
      </trkpt>
      <trkpt lat="48.61792" lon="2.10662">
        <ele>114</ele>
        <time>2013-12-15T09:40:07Z</time>
      </trkpt>
      <trkpt lat="48.61788" lon="2.10655">
        <ele>114</ele>
        <time>2013-12-15T09:40:10Z</time>
      </trkpt>
      <trkpt lat="48.61785" lon="2.1065">
        <ele>113</ele>
        <time>2013-12-15T09:40:13Z</time>
      </trkpt>
      <trkpt lat="48.61782" lon="2.10643">
        <ele>114</ele>
        <time>2013-12-15T09:40:17Z</time>
      </trkpt>
      <trkpt lat="48.61779" lon="2.10635">
        <ele>114</ele>
        <time>2013-12-15T09:40:20Z</time>
      </trkpt>
      <trkpt lat="48.61777" lon="2.10627">
        <ele>114</ele>
        <time>2013-12-15T09:40:23Z</time>
      </trkpt>
      <trkpt lat="48.61773" lon="2.10622">
        <ele>115</ele>
        <time>2013-12-15T09:40:29Z</time>
      </trkpt>
      <trkpt lat="48.61769" lon="2.10618">
        <ele>115</ele>
        <time>2013-12-15T09:40:34Z</time>
      </trkpt>
      <trkpt lat="48.61766" lon="2.1061">
        <ele>115</ele>
        <time>2013-12-15T09:40:39Z</time>
      </trkpt>
      <trkpt lat="48.61763" lon="2.10604">
        <ele>114</ele>
        <time>2013-12-15T09:40:42Z</time>
      </trkpt>
      <trkpt lat="48.61763" lon="2.10597">
        <ele>115</ele>
        <time>2013-12-15T09:40:45Z</time>
      </trkpt>
      <trkpt lat="48.61762" lon="2.10589">
        <ele>115</ele>
        <time>2013-12-15T09:40:48Z</time>
      </trkpt>
      <trkpt lat="48.6176" lon="2.10582">
        <ele>115</ele>
        <time>2013-12-15T09:40:51Z</time>
      </trkpt>
      <trkpt lat="48.61756" lon="2.10574">
        <ele>115</ele>
        <time>2013-12-15T09:40:54Z</time>
      </trkpt>
      <trkpt lat="48.61752" lon="2.10568">
        <ele>114</ele>
        <time>2013-12-15T09:40:57Z</time>
      </trkpt>
      <trkpt lat="48.61748" lon="2.10561">
        <ele>114</ele>
        <time>2013-12-15T09:41:01Z</time>
      </trkpt>
      <trkpt lat="48.61744" lon="2.10555">
        <ele>115</ele>
        <time>2013-12-15T09:41:05Z</time>
      </trkpt>
      <trkpt lat="48.61743" lon="2.10548">
        <ele>115</ele>
        <time>2013-12-15T09:41:10Z</time>
      </trkpt>
      <trkpt lat="48.61741" lon="2.10541">
        <ele>116</ele>
        <time>2013-12-15T09:41:13Z</time>
      </trkpt>
      <trkpt lat="48.61737" lon="2.10534">
        <ele>117</ele>
        <time>2013-12-15T09:41:17Z</time>
      </trkpt>
      <trkpt lat="48.61735" lon="2.10527">
        <ele>117</ele>
        <time>2013-12-15T09:41:20Z</time>
      </trkpt>
      <trkpt lat="48.61733" lon="2.10521">
        <ele>117</ele>
        <time>2013-12-15T09:41:23Z</time>
      </trkpt>
      <trkpt lat="48.61729" lon="2.10516">
        <ele>117</ele>
        <time>2013-12-15T09:41:26Z</time>
      </trkpt>
      <trkpt lat="48.61727" lon="2.10509">
        <ele>116</ele>
        <time>2013-12-15T09:41:30Z</time>
      </trkpt>
      <trkpt lat="48.61724" lon="2.10501">
        <ele>116</ele>
        <time>2013-12-15T09:41:33Z</time>
      </trkpt>
      <trkpt lat="48.61721" lon="2.10497">
        <ele>115</ele>
        <time>2013-12-15T09:41:35Z</time>
      </trkpt>
      <trkpt lat="48.61718" lon="2.10495">
        <ele>115</ele>
        <time>2013-12-15T09:41:37Z</time>
      </trkpt>
      <trkpt lat="48.61714" lon="2.10492">
        <ele>113</ele>
        <time>2013-12-15T09:41:43Z</time>
      </trkpt>
      <trkpt lat="48.61711" lon="2.10485">
        <ele>114</ele>
        <time>2013-12-15T09:41:48Z</time>
      </trkpt>
      <trkpt lat="48.61708" lon="2.1048">
        <ele>114</ele>
        <time>2013-12-15T09:41:51Z</time>
      </trkpt>
      <trkpt lat="48.61705" lon="2.10474">
        <ele>113</ele>
        <time>2013-12-15T09:41:54Z</time>
      </trkpt>
      <trkpt lat="48.61702" lon="2.10469">
        <ele>112</ele>
        <time>2013-12-15T09:41:56Z</time>
      </trkpt>
      <trkpt lat="48.61699" lon="2.10463">
        <ele>112</ele>
        <time>2013-12-15T09:41:59Z</time>
      </trkpt>
      <trkpt lat="48.61697" lon="2.10456">
        <ele>112</ele>
        <time>2013-12-15T09:42:02Z</time>
      </trkpt>
      <trkpt lat="48.61693" lon="2.10451">
        <ele>112</ele>
        <time>2013-12-15T09:42:07Z</time>
      </trkpt>
      <trkpt lat="48.61691" lon="2.10445">
        <ele>113</ele>
        <time>2013-12-15T09:42:12Z</time>
      </trkpt>
      <trkpt lat="48.61688" lon="2.10438">
        <ele>113</ele>
        <time>2013-12-15T09:42:16Z</time>
      </trkpt>
      <trkpt lat="48.61686" lon="2.1043">
        <ele>114</ele>
        <time>2013-12-15T09:42:19Z</time>
      </trkpt>
      <trkpt lat="48.61684" lon="2.10423">
        <ele>115</ele>
        <time>2013-12-15T09:42:22Z</time>
      </trkpt>
      <trkpt lat="48.61681" lon="2.10416">
        <ele>115</ele>
        <time>2013-12-15T09:42:26Z</time>
      </trkpt>
      <trkpt lat="48.61677" lon="2.1041">
        <ele>115</ele>
        <time>2013-12-15T09:42:31Z</time>
      </trkpt>
      <trkpt lat="48.61675" lon="2.10404">
        <ele>116</ele>
        <time>2013-12-15T09:42:34Z</time>
      </trkpt>
      <trkpt lat="48.61673" lon="2.10396">
        <ele>117</ele>
        <time>2013-12-15T09:42:37Z</time>
      </trkpt>
      <trkpt lat="48.61673" lon="2.10388">
        <ele>120</ele>
        <time>2013-12-15T09:42:41Z</time>
      </trkpt>
      <trkpt lat="48.6167" lon="2.10381">
        <ele>121</ele>
        <time>2013-12-15T09:42:45Z</time>
      </trkpt>
      <trkpt lat="48.61666" lon="2.10374">
        <ele>121</ele>
        <time>2013-12-15T09:42:48Z</time>
      </trkpt>
      <trkpt lat="48.61663" lon="2.10368">
        <ele>121</ele>
        <time>2013-12-15T09:42:51Z</time>
      </trkpt>
      <trkpt lat="48.61661" lon="2.10362">
        <ele>121</ele>
        <time>2013-12-15T09:42:57Z</time>
      </trkpt>
      <trkpt lat="48.6166" lon="2.10355">
        <ele>122</ele>
        <time>2013-12-15T09:43:01Z</time>
      </trkpt>
      <trkpt lat="48.61656" lon="2.10349">
        <ele>122</ele>
        <time>2013-12-15T09:43:04Z</time>
      </trkpt>
      <trkpt lat="48.61653" lon="2.10343">
        <ele>121</ele>
        <time>2013-12-15T09:43:07Z</time>
      </trkpt>
      <trkpt lat="48.6165" lon="2.10336">
        <ele>120</ele>
        <time>2013-12-15T09:43:11Z</time>
      </trkpt>
      <trkpt lat="48.61647" lon="2.10328">
        <ele>121</ele>
        <time>2013-12-15T09:43:20Z</time>
      </trkpt>
      <trkpt lat="48.61643" lon="2.10324">
        <ele>121</ele>
        <time>2013-12-15T09:43:23Z</time>
      </trkpt>
      <trkpt lat="48.61641" lon="2.10317">
        <ele>121</ele>
        <time>2013-12-15T09:43:26Z</time>
      </trkpt>
      <trkpt lat="48.61639" lon="2.10311">
        <ele>121</ele>
        <time>2013-12-15T09:43:29Z</time>
      </trkpt>
      <trkpt lat="48.61636" lon="2.10304">
        <ele>121</ele>
        <time>2013-12-15T09:43:33Z</time>
      </trkpt>
      <trkpt lat="48.61631" lon="2.10301">
        <ele>121</ele>
        <time>2013-12-15T09:43:35Z</time>
      </trkpt>
      <trkpt lat="48.61626" lon="2.10297">
        <ele>120</ele>
        <time>2013-12-15T09:43:38Z</time>
      </trkpt>
      <trkpt lat="48.61623" lon="2.10292">
        <ele>120</ele>
        <time>2013-12-15T09:43:41Z</time>
      </trkpt>
      <trkpt lat="48.61618" lon="2.10288">
        <ele>119</ele>
        <time>2013-12-15T09:43:45Z</time>
      </trkpt>
      <trkpt lat="48.61615" lon="2.10283">
        <ele>119</ele>
        <time>2013-12-15T09:43:50Z</time>
      </trkpt>
      <trkpt lat="48.61612" lon="2.10277">
        <ele>119</ele>
        <time>2013-12-15T09:43:54Z</time>
      </trkpt>
      <trkpt lat="48.6161" lon="2.10271">
        <ele>120</ele>
        <time>2013-12-15T09:43:57Z</time>
      </trkpt>
      <trkpt lat="48.61606" lon="2.10266">
        <ele>121</ele>
        <time>2013-12-15T09:44:01Z</time>
      </trkpt>
      <trkpt lat="48.61602" lon="2.10262">
        <ele>121</ele>
        <time>2013-12-15T09:44:06Z</time>
      </trkpt>
      <trkpt lat="48.61599" lon="2.10255">
        <ele>122</ele>
        <time>2013-12-15T09:44:10Z</time>
      </trkpt>
      <trkpt lat="48.61595" lon="2.10249">
        <ele>123</ele>
        <time>2013-12-15T09:44:15Z</time>
      </trkpt>
      <trkpt lat="48.61592" lon="2.10242">
        <ele>123</ele>
        <time>2013-12-15T09:44:19Z</time>
      </trkpt>
      <trkpt lat="48.61589" lon="2.10238">
        <ele>123</ele>
        <time>2013-12-15T09:44:22Z</time>
      </trkpt>
      <trkpt lat="48.61585" lon="2.10233">
        <ele>123</ele>
        <time>2013-12-15T09:44:25Z</time>
      </trkpt>
      <trkpt lat="48.61582" lon="2.10228">
        <ele>124</ele>
        <time>2013-12-15T09:44:29Z</time>
      </trkpt>
      <trkpt lat="48.61577" lon="2.10223">
        <ele>125</ele>
        <time>2013-12-15T09:44:34Z</time>
      </trkpt>
      <trkpt lat="48.61574" lon="2.10218">
        <ele>125</ele>
        <time>2013-12-15T09:44:37Z</time>
      </trkpt>
      <trkpt lat="48.61571" lon="2.10212">
        <ele>125</ele>
        <time>2013-12-15T09:44:39Z</time>
      </trkpt>
      <trkpt lat="48.61567" lon="2.10206">
        <ele>124</ele>
        <time>2013-12-15T09:44:41Z</time>
      </trkpt>
      <trkpt lat="48.61564" lon="2.10201">
        <ele>124</ele>
        <time>2013-12-15T09:44:43Z</time>
      </trkpt>
      <trkpt lat="48.61561" lon="2.10195">
        <ele>122</ele>
        <time>2013-12-15T09:44:51Z</time>
      </trkpt>
      <trkpt lat="48.61559" lon="2.10189">
        <ele>121</ele>
        <time>2013-12-15T09:44:57Z</time>
      </trkpt>
      <trkpt lat="48.61559" lon="2.10181">
        <ele>121</ele>
        <time>2013-12-15T09:45:03Z</time>
      </trkpt>
      <trkpt lat="48.61563" lon="2.10168">
        <ele>120</ele>
        <time>2013-12-15T09:45:07Z</time>
      </trkpt>
      <trkpt lat="48.61564" lon="2.1016">
        <ele>119</ele>
        <time>2013-12-15T09:45:11Z</time>
      </trkpt>
      <trkpt lat="48.61565" lon="2.10153">
        <ele>119</ele>
        <time>2013-12-15T09:45:16Z</time>
      </trkpt>
      <trkpt lat="48.61567" lon="2.10146">
        <ele>119</ele>
        <time>2013-12-15T09:45:19Z</time>
      </trkpt>
      <trkpt lat="48.61567" lon="2.10138">
        <ele>119</ele>
        <time>2013-12-15T09:45:23Z</time>
      </trkpt>
      <trkpt lat="48.61565" lon="2.10135">
        <ele>118</ele>
        <time>2013-12-15T09:45:34Z</time>
      </trkpt>
      <trkpt lat="48.61564" lon="2.10125">
        <ele>117</ele>
        <time>2013-12-15T09:45:43Z</time>
      </trkpt>
      <trkpt lat="48.61564" lon="2.10117">
        <ele>117</ele>
        <time>2013-12-15T09:45:45Z</time>
      </trkpt>
      <trkpt lat="48.61565" lon="2.10112">
        <ele>116</ele>
        <time>2013-12-15T09:45:47Z</time>
      </trkpt>
      <trkpt lat="48.61564" lon="2.10104">
        <ele>114</ele>
        <time>2013-12-15T09:45:53Z</time>
      </trkpt>
      <trkpt lat="48.61566" lon="2.10095">
        <ele>112</ele>
        <time>2013-12-15T09:46:11Z</time>
      </trkpt>
      <trkpt lat="48.61568" lon="2.10087">
        <ele>113</ele>
        <time>2013-12-15T09:46:15Z</time>
      </trkpt>
      <trkpt lat="48.6157" lon="2.1008">
        <ele>114</ele>
        <time>2013-12-15T09:46:18Z</time>
      </trkpt>
      <trkpt lat="48.61572" lon="2.1007">
        <ele>115</ele>
        <time>2013-12-15T09:46:21Z</time>
      </trkpt>
      <trkpt lat="48.61574" lon="2.10061">
        <ele>115</ele>
        <time>2013-12-15T09:46:24Z</time>
      </trkpt>
      <trkpt lat="48.61576" lon="2.10055">
        <ele>115</ele>
        <time>2013-12-15T09:46:27Z</time>
      </trkpt>
      <trkpt lat="48.61577" lon="2.10047">
        <ele>114</ele>
        <time>2013-12-15T09:46:32Z</time>
      </trkpt>
      <trkpt lat="48.61578" lon="2.10039">
        <ele>116</ele>
        <time>2013-12-15T09:46:36Z</time>
      </trkpt>
      <trkpt lat="48.61579" lon="2.10032">
        <ele>117</ele>
        <time>2013-12-15T09:46:39Z</time>
      </trkpt>
      <trkpt lat="48.61579" lon="2.10024">
        <ele>118</ele>
        <time>2013-12-15T09:46:43Z</time>
      </trkpt>
      <trkpt lat="48.61577" lon="2.10017">
        <ele>117</ele>
        <time>2013-12-15T09:46:47Z</time>
      </trkpt>
      <trkpt lat="48.61575" lon="2.1001">
        <ele>116</ele>
        <time>2013-12-15T09:46:51Z</time>
      </trkpt>
      <trkpt lat="48.61578" lon="2.10002">
        <ele>117</ele>
        <time>2013-12-15T09:46:56Z</time>
      </trkpt>
      <trkpt lat="48.6158" lon="2.09996">
        <ele>117</ele>
        <time>2013-12-15T09:46:59Z</time>
      </trkpt>
      <trkpt lat="48.61578" lon="2.09988">
        <ele>117</ele>
        <time>2013-12-15T09:47:03Z</time>
      </trkpt>
      <trkpt lat="48.61578" lon="2.0998">
        <ele>116</ele>
        <time>2013-12-15T09:47:07Z</time>
      </trkpt>
      <trkpt lat="48.61579" lon="2.09973">
        <ele>117</ele>
        <time>2013-12-15T09:47:10Z</time>
      </trkpt>
      <trkpt lat="48.6158" lon="2.09967">
        <ele>117</ele>
        <time>2013-12-15T09:47:13Z</time>
      </trkpt>
      <trkpt lat="48.61581" lon="2.09959">
        <ele>117</ele>
        <time>2013-12-15T09:47:17Z</time>
      </trkpt>
      <trkpt lat="48.61583" lon="2.09951">
        <ele>117</ele>
        <time>2013-12-15T09:47:21Z</time>
      </trkpt>
      <trkpt lat="48.61584" lon="2.09945">
        <ele>118</ele>
        <time>2013-12-15T09:47:24Z</time>
      </trkpt>
      <trkpt lat="48.61586" lon="2.09937">
        <ele>119</ele>
        <time>2013-12-15T09:47:28Z</time>
      </trkpt>
      <trkpt lat="48.61588" lon="2.09929">
        <ele>120</ele>
        <time>2013-12-15T09:47:32Z</time>
      </trkpt>
      <trkpt lat="48.61588" lon="2.0992">
        <ele>121</ele>
        <time>2013-12-15T09:47:37Z</time>
      </trkpt>
      <trkpt lat="48.61587" lon="2.09911">
        <ele>122</ele>
        <time>2013-12-15T09:47:41Z</time>
      </trkpt>
      <trkpt lat="48.61585" lon="2.09905">
        <ele>122</ele>
        <time>2013-12-15T09:47:45Z</time>
      </trkpt>
      <trkpt lat="48.61586" lon="2.09897">
        <ele>122</ele>
        <time>2013-12-15T09:47:48Z</time>
      </trkpt>
      <trkpt lat="48.61586" lon="2.09888">
        <ele>122</ele>
        <time>2013-12-15T09:47:51Z</time>
      </trkpt>
      <trkpt lat="48.61586" lon="2.0988">
        <ele>122</ele>
        <time>2013-12-15T09:47:54Z</time>
      </trkpt>
      <trkpt lat="48.61584" lon="2.09873">
        <ele>122</ele>
        <time>2013-12-15T09:48:00Z</time>
      </trkpt>
      <trkpt lat="48.61585" lon="2.09866">
        <ele>123</ele>
        <time>2013-12-15T09:48:05Z</time>
      </trkpt>
      <trkpt lat="48.61585" lon="2.09858">
        <ele>122</ele>
        <time>2013-12-15T09:48:10Z</time>
      </trkpt>
      <trkpt lat="48.61584" lon="2.0985">
        <ele>122</ele>
        <time>2013-12-15T09:48:14Z</time>
      </trkpt>
      <trkpt lat="48.61585" lon="2.09843">
        <ele>122</ele>
        <time>2013-12-15T09:48:17Z</time>
      </trkpt>
      <trkpt lat="48.61586" lon="2.09835">
        <ele>124</ele>
        <time>2013-12-15T09:48:21Z</time>
      </trkpt>
      <trkpt lat="48.61586" lon="2.09827">
        <ele>124</ele>
        <time>2013-12-15T09:48:25Z</time>
      </trkpt>
      <trkpt lat="48.61586" lon="2.0982">
        <ele>125</ele>
        <time>2013-12-15T09:48:28Z</time>
      </trkpt>
      <trkpt lat="48.61586" lon="2.09812">
        <ele>126</ele>
        <time>2013-12-15T09:48:32Z</time>
      </trkpt>
      <trkpt lat="48.61586" lon="2.09804">
        <ele>128</ele>
        <time>2013-12-15T09:48:35Z</time>
      </trkpt>
      <trkpt lat="48.61586" lon="2.09796">
        <ele>128</ele>
        <time>2013-12-15T09:48:38Z</time>
      </trkpt>
      <trkpt lat="48.61584" lon="2.09789">
        <ele>128</ele>
        <time>2013-12-15T09:48:43Z</time>
      </trkpt>
      <trkpt lat="48.61581" lon="2.0978">
        <ele>129</ele>
        <time>2013-12-15T09:48:45Z</time>
      </trkpt>
      <trkpt lat="48.61577" lon="2.09773">
        <ele>129</ele>
        <time>2013-12-15T09:48:47Z</time>
      </trkpt>
      <trkpt lat="48.61574" lon="2.09768">
        <ele>129</ele>
        <time>2013-12-15T09:48:49Z</time>
      </trkpt>
      <trkpt lat="48.61576" lon="2.09761">
        <ele>128</ele>
        <time>2013-12-15T09:49:02Z</time>
      </trkpt>
      <trkpt lat="48.61579" lon="2.09755">
        <ele>128</ele>
        <time>2013-12-15T09:49:07Z</time>
      </trkpt>
      <trkpt lat="48.61577" lon="2.09748">
        <ele>128</ele>
        <time>2013-12-15T09:49:09Z</time>
      </trkpt>
      <trkpt lat="48.61576" lon="2.09741">
        <ele>128</ele>
        <time>2013-12-15T09:49:11Z</time>
      </trkpt>
      <trkpt lat="48.61574" lon="2.09732">
        <ele>126</ele>
        <time>2013-12-15T09:49:16Z</time>
      </trkpt>
      <trkpt lat="48.61572" lon="2.09723">
        <ele>125</ele>
        <time>2013-12-15T09:49:20Z</time>
      </trkpt>
      <trkpt lat="48.61571" lon="2.09715">
        <ele>125</ele>
        <time>2013-12-15T09:49:23Z</time>
      </trkpt>
      <trkpt lat="48.6157" lon="2.09708">
        <ele>125</ele>
        <time>2013-12-15T09:49:26Z</time>
      </trkpt>
      <trkpt lat="48.6157" lon="2.097">
        <ele>126</ele>
        <time>2013-12-15T09:49:32Z</time>
      </trkpt>
      <trkpt lat="48.61569" lon="2.09692">
        <ele>127</ele>
        <time>2013-12-15T09:49:36Z</time>
      </trkpt>
      <trkpt lat="48.61568" lon="2.09685">
        <ele>127</ele>
        <time>2013-12-15T09:49:40Z</time>
      </trkpt>
      <trkpt lat="48.61566" lon="2.09677">
        <ele>126</ele>
        <time>2013-12-15T09:49:46Z</time>
      </trkpt>
      <trkpt lat="48.61564" lon="2.0967">
        <ele>126</ele>
        <time>2013-12-15T09:49:49Z</time>
      </trkpt>
      <trkpt lat="48.61562" lon="2.09662">
        <ele>126</ele>
        <time>2013-12-15T09:49:52Z</time>
      </trkpt>
      <trkpt lat="48.61559" lon="2.09657">
        <ele>125</ele>
        <time>2013-12-15T09:49:56Z</time>
      </trkpt>
      <trkpt lat="48.61562" lon="2.0965">
        <ele>126</ele>
        <time>2013-12-15T09:50:02Z</time>
      </trkpt>
      <trkpt lat="48.61563" lon="2.09643">
        <ele>127</ele>
        <time>2013-12-15T09:50:05Z</time>
      </trkpt>
      <trkpt lat="48.61561" lon="2.09636">
        <ele>128</ele>
        <time>2013-12-15T09:50:08Z</time>
      </trkpt>
      <trkpt lat="48.61558" lon="2.09629">
        <ele>130</ele>
        <time>2013-12-15T09:50:14Z</time>
      </trkpt>
      <trkpt lat="48.61556" lon="2.0962">
        <ele>132</ele>
        <time>2013-12-15T09:50:18Z</time>
      </trkpt>
      <trkpt lat="48.61554" lon="2.09606">
        <ele>137</ele>
        <time>2013-12-15T09:50:27Z</time>
      </trkpt>
      <trkpt lat="48.61551" lon="2.09598">
        <ele>138</ele>
        <time>2013-12-15T09:50:31Z</time>
      </trkpt>
      <trkpt lat="48.61548" lon="2.09592">
        <ele>137</ele>
        <time>2013-12-15T09:50:34Z</time>
      </trkpt>
      <trkpt lat="48.61546" lon="2.09585">
        <ele>137</ele>
        <time>2013-12-15T09:50:40Z</time>
      </trkpt>
      <trkpt lat="48.61544" lon="2.09577">
        <ele>137</ele>
        <time>2013-12-15T09:50:44Z</time>
      </trkpt>
      <trkpt lat="48.61544" lon="2.0957">
        <ele>137</ele>
        <time>2013-12-15T09:50:47Z</time>
      </trkpt>
      <trkpt lat="48.61543" lon="2.09562">
        <ele>136</ele>
        <time>2013-12-15T09:50:50Z</time>
      </trkpt>
      <trkpt lat="48.61542" lon="2.09556">
        <ele>136</ele>
        <time>2013-12-15T09:50:54Z</time>
      </trkpt>
      <trkpt lat="48.61543" lon="2.09548">
        <ele>136</ele>
        <time>2013-12-15T09:50:58Z</time>
      </trkpt>
      <trkpt lat="48.6154" lon="2.0954">
        <ele>136</ele>
        <time>2013-12-15T09:51:02Z</time>
      </trkpt>
      <trkpt lat="48.61538" lon="2.09535">
        <ele>135</ele>
        <time>2013-12-15T09:51:05Z</time>
      </trkpt>
      <trkpt lat="48.61536" lon="2.09528">
        <ele>135</ele>
        <time>2013-12-15T09:51:08Z</time>
      </trkpt>
      <trkpt lat="48.61533" lon="2.09521">
        <ele>135</ele>
        <time>2013-12-15T09:51:12Z</time>
      </trkpt>
      <trkpt lat="48.61531" lon="2.09514">
        <ele>135</ele>
        <time>2013-12-15T09:51:17Z</time>
      </trkpt>
      <trkpt lat="48.61529" lon="2.09507">
        <ele>134</ele>
        <time>2013-12-15T09:51:22Z</time>
      </trkpt>
      <trkpt lat="48.61527" lon="2.09499">
        <ele>133</ele>
        <time>2013-12-15T09:51:26Z</time>
      </trkpt>
      <trkpt lat="48.61526" lon="2.09493">
        <ele>132</ele>
        <time>2013-12-15T09:51:29Z</time>
      </trkpt>
      <trkpt lat="48.61526" lon="2.09485">
        <ele>133</ele>
        <time>2013-12-15T09:51:34Z</time>
      </trkpt>
      <trkpt lat="48.61527" lon="2.09475">
        <ele>133</ele>
        <time>2013-12-15T09:51:38Z</time>
      </trkpt>
      <trkpt lat="48.61525" lon="2.09468">
        <ele>133</ele>
        <time>2013-12-15T09:51:42Z</time>
      </trkpt>
      <trkpt lat="48.61523" lon="2.09461">
        <ele>134</ele>
        <time>2013-12-15T09:51:47Z</time>
      </trkpt>
      <trkpt lat="48.61523" lon="2.09453">
        <ele>135</ele>
        <time>2013-12-15T09:51:52Z</time>
      </trkpt>
      <trkpt lat="48.6152" lon="2.09447">
        <ele>136</ele>
        <time>2013-12-15T09:51:56Z</time>
      </trkpt>
      <trkpt lat="48.61518" lon="2.09441">
        <ele>137</ele>
        <time>2013-12-15T09:51:59Z</time>
      </trkpt>
      <trkpt lat="48.61516" lon="2.09433">
        <ele>139</ele>
        <time>2013-12-15T09:52:04Z</time>
      </trkpt>
      <trkpt lat="48.61515" lon="2.09426">
        <ele>140</ele>
        <time>2013-12-15T09:52:08Z</time>
      </trkpt>
      <trkpt lat="48.61512" lon="2.0942">
        <ele>140</ele>
        <time>2013-12-15T09:52:12Z</time>
      </trkpt>
      <trkpt lat="48.61509" lon="2.09414">
        <ele>138</ele>
        <time>2013-12-15T09:52:16Z</time>
      </trkpt>
      <trkpt lat="48.61507" lon="2.09408">
        <ele>137</ele>
        <time>2013-12-15T09:52:19Z</time>
      </trkpt>
      <trkpt lat="48.61505" lon="2.09401">
        <ele>137</ele>
        <time>2013-12-15T09:52:22Z</time>
      </trkpt>
      <trkpt lat="48.61503" lon="2.09391">
        <ele>136</ele>
        <time>2013-12-15T09:52:28Z</time>
      </trkpt>
      <trkpt lat="48.61502" lon="2.09381">
        <ele>137</ele>
        <time>2013-12-15T09:52:31Z</time>
      </trkpt>
      <trkpt lat="48.61501" lon="2.09374">
        <ele>137</ele>
        <time>2013-12-15T09:52:33Z</time>
      </trkpt>
      <trkpt lat="48.615" lon="2.09367">
        <ele>136</ele>
        <time>2013-12-15T09:52:36Z</time>
      </trkpt>
      <trkpt lat="48.61497" lon="2.0936">
        <ele>135</ele>
        <time>2013-12-15T09:52:40Z</time>
      </trkpt>
      <trkpt lat="48.61495" lon="2.09353">
        <ele>136</ele>
        <time>2013-12-15T09:52:43Z</time>
      </trkpt>
      <trkpt lat="48.61494" lon="2.09345">
        <ele>136</ele>
        <time>2013-12-15T09:52:47Z</time>
      </trkpt>
      <trkpt lat="48.61492" lon="2.09337">
        <ele>137</ele>
        <time>2013-12-15T09:52:53Z</time>
      </trkpt>
      <trkpt lat="48.61491" lon="2.0933">
        <ele>136</ele>
        <time>2013-12-15T09:52:56Z</time>
      </trkpt>
      <trkpt lat="48.61489" lon="2.09321">
        <ele>136</ele>
        <time>2013-12-15T09:53:00Z</time>
      </trkpt>
      <trkpt lat="48.61488" lon="2.09314">
        <ele>135</ele>
        <time>2013-12-15T09:53:06Z</time>
      </trkpt>
      <trkpt lat="48.61488" lon="2.09305">
        <ele>135</ele>
        <time>2013-12-15T09:53:10Z</time>
      </trkpt>
      <trkpt lat="48.61487" lon="2.09297">
        <ele>137</ele>
        <time>2013-12-15T09:53:13Z</time>
      </trkpt>
      <trkpt lat="48.61484" lon="2.0929">
        <ele>137</ele>
        <time>2013-12-15T09:53:17Z</time>
      </trkpt>
      <trkpt lat="48.61483" lon="2.09282">
        <ele>137</ele>
        <time>2013-12-15T09:53:23Z</time>
      </trkpt>
      <trkpt lat="48.61484" lon="2.09273">
        <ele>137</ele>
        <time>2013-12-15T09:53:27Z</time>
      </trkpt>
      <trkpt lat="48.61483" lon="2.09265">
        <ele>137</ele>
        <time>2013-12-15T09:53:31Z</time>
      </trkpt>
      <trkpt lat="48.6148" lon="2.09259">
        <ele>137</ele>
        <time>2013-12-15T09:53:35Z</time>
      </trkpt>
      <trkpt lat="48.61478" lon="2.09252">
        <ele>137</ele>
        <time>2013-12-15T09:53:38Z</time>
      </trkpt>
      <trkpt lat="48.61477" lon="2.09245">
        <ele>136</ele>
        <time>2013-12-15T09:53:41Z</time>
      </trkpt>
      <trkpt lat="48.61475" lon="2.09238">
        <ele>136</ele>
        <time>2013-12-15T09:53:46Z</time>
      </trkpt>
      <trkpt lat="48.61471" lon="2.09231">
        <ele>135</ele>
        <time>2013-12-15T09:53:50Z</time>
      </trkpt>
      <trkpt lat="48.61468" lon="2.09225">
        <ele>134</ele>
        <time>2013-12-15T09:53:53Z</time>
      </trkpt>
      <trkpt lat="48.61468" lon="2.09217">
        <ele>133</ele>
        <time>2013-12-15T09:53:58Z</time>
      </trkpt>
      <trkpt lat="48.61468" lon="2.09207">
        <ele>133</ele>
        <time>2013-12-15T09:54:03Z</time>
      </trkpt>
      <trkpt lat="48.61468" lon="2.09199">
        <ele>132</ele>
        <time>2013-12-15T09:54:07Z</time>
      </trkpt>
      <trkpt lat="48.61472" lon="2.09194">
        <ele>132</ele>
        <time>2013-12-15T09:54:14Z</time>
      </trkpt>
      <trkpt lat="48.61477" lon="2.09194">
        <ele>133</ele>
        <time>2013-12-15T09:54:18Z</time>
      </trkpt>
      <trkpt lat="48.61482" lon="2.09196">
        <ele>134</ele>
        <time>2013-12-15T09:54:24Z</time>
      </trkpt>
      <trkpt lat="48.61487" lon="2.09197">
        <ele>135</ele>
        <time>2013-12-15T09:54:30Z</time>
      </trkpt>
      <trkpt lat="48.61492" lon="2.09199">
        <ele>135</ele>
        <time>2013-12-15T09:54:34Z</time>
      </trkpt>
      <trkpt lat="48.61497" lon="2.09202">
        <ele>136</ele>
        <time>2013-12-15T09:54:39Z</time>
      </trkpt>
      <trkpt lat="48.61502" lon="2.09204">
        <ele>136</ele>
        <time>2013-12-15T09:54:43Z</time>
      </trkpt>
      <trkpt lat="48.61506" lon="2.09206">
        <ele>137</ele>
        <time>2013-12-15T09:54:46Z</time>
      </trkpt>
      <trkpt lat="48.61511" lon="2.09206">
        <ele>136</ele>
        <time>2013-12-15T09:54:52Z</time>
      </trkpt>
      <trkpt lat="48.61516" lon="2.09208">
        <ele>137</ele>
        <time>2013-12-15T09:54:55Z</time>
      </trkpt>
      <trkpt lat="48.6152" lon="2.09207">
        <ele>137</ele>
        <time>2013-12-15T09:54:59Z</time>
      </trkpt>
      <trkpt lat="48.61526" lon="2.09206">
        <ele>137</ele>
        <time>2013-12-15T09:55:03Z</time>
      </trkpt>
      <trkpt lat="48.61531" lon="2.09205">
        <ele>137</ele>
        <time>2013-12-15T09:55:06Z</time>
      </trkpt>
      <trkpt lat="48.61536" lon="2.09203">
        <ele>137</ele>
        <time>2013-12-15T09:55:11Z</time>
      </trkpt>
      <trkpt lat="48.6154" lon="2.09205">
        <ele>137</ele>
        <time>2013-12-15T09:55:15Z</time>
      </trkpt>
      <trkpt lat="48.61544" lon="2.0921">
        <ele>139</ele>
        <time>2013-12-15T09:55:19Z</time>
      </trkpt>
      <trkpt lat="48.61548" lon="2.09207">
        <ele>140</ele>
        <time>2013-12-15T09:55:23Z</time>
      </trkpt>
      <trkpt lat="48.61553" lon="2.09208">
        <ele>143</ele>
        <time>2013-12-15T09:55:31Z</time>
      </trkpt>
      <trkpt lat="48.61558" lon="2.09208">
        <ele>143</ele>
        <time>2013-12-15T09:55:36Z</time>
      </trkpt>
      <trkpt lat="48.61563" lon="2.0921">
        <ele>144</ele>
        <time>2013-12-15T09:55:42Z</time>
      </trkpt>
      <trkpt lat="48.61566" lon="2.09214">
        <ele>146</ele>
        <time>2013-12-15T09:55:47Z</time>
      </trkpt>
      <trkpt lat="48.61571" lon="2.09217">
        <ele>147</ele>
        <time>2013-12-15T09:55:50Z</time>
      </trkpt>
      <trkpt lat="48.61575" lon="2.09219">
        <ele>149</ele>
        <time>2013-12-15T09:55:56Z</time>
      </trkpt>
      <trkpt lat="48.61583" lon="2.0923">
        <ele>156</ele>
        <time>2013-12-15T09:56:05Z</time>
      </trkpt>
      <trkpt lat="48.61588" lon="2.09232">
        <ele>158</ele>
        <time>2013-12-15T09:56:09Z</time>
      </trkpt>
      <trkpt lat="48.61593" lon="2.09234">
        <ele>158</ele>
        <time>2013-12-15T09:56:13Z</time>
      </trkpt>
      <trkpt lat="48.61599" lon="2.09234">
        <ele>158</ele>
        <time>2013-12-15T09:56:18Z</time>
      </trkpt>
      <trkpt lat="48.61604" lon="2.09236">
        <ele>158</ele>
        <time>2013-12-15T09:56:22Z</time>
      </trkpt>
      <trkpt lat="48.61609" lon="2.09238">
        <ele>159</ele>
        <time>2013-12-15T09:56:26Z</time>
      </trkpt>
      <trkpt lat="48.61613" lon="2.09242">
        <ele>160</ele>
        <time>2013-12-15T09:56:31Z</time>
      </trkpt>
      <trkpt lat="48.61618" lon="2.09243">
        <ele>160</ele>
        <time>2013-12-15T09:56:36Z</time>
      </trkpt>
      <trkpt lat="48.61621" lon="2.09247">
        <ele>160</ele>
        <time>2013-12-15T09:56:41Z</time>
      </trkpt>
      <trkpt lat="48.61626" lon="2.09252">
        <ele>159</ele>
        <time>2013-12-15T09:56:44Z</time>
      </trkpt>
      <trkpt lat="48.6163" lon="2.09256">
        <ele>160</ele>
        <time>2013-12-15T09:56:47Z</time>
      </trkpt>
      <trkpt lat="48.61635" lon="2.09258">
        <ele>160</ele>
        <time>2013-12-15T09:56:50Z</time>
      </trkpt>
      <trkpt lat="48.6164" lon="2.0926">
        <ele>161</ele>
        <time>2013-12-15T09:56:56Z</time>
      </trkpt>
      <trkpt lat="48.61644" lon="2.09261">
        <ele>162</ele>
        <time>2013-12-15T09:57:01Z</time>
      </trkpt>
      <trkpt lat="48.61649" lon="2.09262">
        <ele>162</ele>
        <time>2013-12-15T09:57:06Z</time>
      </trkpt>
      <trkpt lat="48.61655" lon="2.09264">
        <ele>162</ele>
        <time>2013-12-15T09:57:10Z</time>
      </trkpt>
      <trkpt lat="48.61659" lon="2.09264">
        <ele>161</ele>
        <time>2013-12-15T09:57:13Z</time>
      </trkpt>
      <trkpt lat="48.61661" lon="2.09264">
        <ele>153</ele>
        <time>2013-12-15T09:58:05Z</time>
      </trkpt>
      <trkpt lat="48.61666" lon="2.09265">
        <ele>153</ele>
        <time>2013-12-15T09:58:14Z</time>
      </trkpt>
      <trkpt lat="48.61666" lon="2.0926">
        <ele>152</ele>
        <time>2013-12-15T09:58:27Z</time>
      </trkpt>
      <trkpt lat="48.61668" lon="2.09253">
        <ele>152</ele>
        <time>2013-12-15T09:58:37Z</time>
      </trkpt>
      <trkpt lat="48.61659" lon="2.09252">
        <ele>151</ele>
        <time>2013-12-15T09:58:48Z</time>
      </trkpt>
      <trkpt lat="48.6165" lon="2.0925">
        <ele>151</ele>
        <time>2013-12-15T09:58:50Z</time>
      </trkpt>
      <trkpt lat="48.61646" lon="2.09248">
        <ele>152</ele>
        <time>2013-12-15T09:58:51Z</time>
      </trkpt>
      <trkpt lat="48.61638" lon="2.09246">
        <ele>152</ele>
        <time>2013-12-15T09:58:53Z</time>
      </trkpt>
      <trkpt lat="48.61635" lon="2.09246">
        <ele>153</ele>
        <time>2013-12-15T09:58:54Z</time>
      </trkpt>
      <trkpt lat="48.61639" lon="2.09248">
        <ele>154</ele>
        <time>2013-12-15T09:59:02Z</time>
      </trkpt>
      <trkpt lat="48.61644" lon="2.09246">
        <ele>154</ele>
        <time>2013-12-15T09:59:05Z</time>
      </trkpt>
      <trkpt lat="48.61647" lon="2.0924">
        <ele>157</ele>
        <time>2013-12-15T09:59:13Z</time>
      </trkpt>
      <trkpt lat="48.6165" lon="2.09243">
        <ele>158</ele>
        <time>2013-12-15T09:59:28Z</time>
      </trkpt>
      <trkpt lat="48.61651" lon="2.09249">
        <ele>160</ele>
        <time>2013-12-15T09:59:47Z</time>
      </trkpt>
      <trkpt lat="48.6165" lon="2.09257">
        <ele>159</ele>
        <time>2013-12-15T09:59:53Z</time>
      </trkpt>
      <trkpt lat="48.61651" lon="2.09263">
        <ele>158</ele>
        <time>2013-12-15T10:00:05Z</time>
      </trkpt>
      <trkpt lat="48.61655" lon="2.09266">
        <ele>158</ele>
        <time>2013-12-15T10:00:07Z</time>
      </trkpt>
      <trkpt lat="48.6166" lon="2.09271">
        <ele>158</ele>
        <time>2013-12-15T10:00:10Z</time>
      </trkpt>
      <trkpt lat="48.61664" lon="2.09275">
        <ele>158</ele>
        <time>2013-12-15T10:00:14Z</time>
      </trkpt>
      <trkpt lat="48.61668" lon="2.09272">
        <ele>159</ele>
        <time>2013-12-15T10:00:23Z</time>
      </trkpt>
      <trkpt lat="48.61668" lon="2.09263">
        <ele>158</ele>
        <time>2013-12-15T10:00:28Z</time>
      </trkpt>
      <trkpt lat="48.61668" lon="2.09256">
        <ele>156</ele>
        <time>2013-12-15T10:00:32Z</time>
      </trkpt>
      <trkpt lat="48.6167" lon="2.09249">
        <ele>155</ele>
        <time>2013-12-15T10:00:36Z</time>
      </trkpt>
      <trkpt lat="48.61673" lon="2.09236">
        <ele>154</ele>
        <time>2013-12-15T10:00:43Z</time>
      </trkpt>
      <trkpt lat="48.61663" lon="2.09236">
        <ele>155</ele>
        <time>2013-12-15T10:01:03Z</time>
      </trkpt>
      <trkpt lat="48.61655" lon="2.09246">
        <ele>155</ele>
        <time>2013-12-15T10:01:08Z</time>
      </trkpt>
      <trkpt lat="48.61654" lon="2.09253">
        <ele>154</ele>
        <time>2013-12-15T10:01:10Z</time>
      </trkpt>
      <trkpt lat="48.61652" lon="2.09261">
        <ele>154</ele>
        <time>2013-12-15T10:01:13Z</time>
      </trkpt>
      <trkpt lat="48.61652" lon="2.09268">
        <ele>155</ele>
        <time>2013-12-15T10:01:19Z</time>
      </trkpt>
      <trkpt lat="48.61658" lon="2.09259">
        <ele>155</ele>
        <time>2013-12-15T10:01:46Z</time>
      </trkpt>
      <trkpt lat="48.61667" lon="2.09254">
        <ele>154</ele>
        <time>2013-12-15T10:01:54Z</time>
      </trkpt>
      <trkpt lat="48.61668" lon="2.09245">
        <ele>151</ele>
        <time>2013-12-15T10:02:03Z</time>
      </trkpt>
      <trkpt lat="48.61676" lon="2.09241">
        <ele>150</ele>
        <time>2013-12-15T10:02:21Z</time>
      </trkpt>
      <trkpt lat="48.6169" lon="2.09234">
        <ele>149</ele>
        <time>2013-12-15T10:02:32Z</time>
      </trkpt>
      <trkpt lat="48.61688" lon="2.09245">
        <ele>148</ele>
        <time>2013-12-15T10:02:46Z</time>
      </trkpt>
      <trkpt lat="48.6169" lon="2.09252">
        <ele>148</ele>
        <time>2013-12-15T10:02:52Z</time>
      </trkpt>
      <trkpt lat="48.61692" lon="2.09261">
        <ele>147</ele>
        <time>2013-12-15T10:03:02Z</time>
      </trkpt>
      <trkpt lat="48.61694" lon="2.09262">
        <ele>146</ele>
        <time>2013-12-15T10:03:13Z</time>
      </trkpt>
      <trkpt lat="48.61696" lon="2.09252">
        <ele>142</ele>
        <time>2013-12-15T10:03:24Z</time>
      </trkpt>
      <trkpt lat="48.61693" lon="2.09246">
        <ele>141</ele>
        <time>2013-12-15T10:03:28Z</time>
      </trkpt>
      <trkpt lat="48.61689" lon="2.09248">
        <ele>141</ele>
        <time>2013-12-15T10:03:31Z</time>
      </trkpt>
      <trkpt lat="48.61689" lon="2.09251">
        <ele>140</ele>
        <time>2013-12-15T10:03:48Z</time>
      </trkpt>
      <trkpt lat="48.61692" lon="2.09256">
        <ele>140</ele>
        <time>2013-12-15T10:03:51Z</time>
      </trkpt>
      <trkpt lat="48.61691" lon="2.09263">
        <ele>139</ele>
        <time>2013-12-15T10:03:56Z</time>
      </trkpt>
      <trkpt lat="48.61685" lon="2.09265">
        <ele>139</ele>
        <time>2013-12-15T10:04:02Z</time>
      </trkpt>
      <trkpt lat="48.61677" lon="2.09261">
        <ele>140</ele>
        <time>2013-12-15T10:04:08Z</time>
      </trkpt>
      <trkpt lat="48.61673" lon="2.0926">
        <ele>141</ele>
        <time>2013-12-15T10:04:12Z</time>
      </trkpt>
      <trkpt lat="48.61674" lon="2.09263">
        <ele>141</ele>
        <time>2013-12-15T10:04:22Z</time>
      </trkpt>
      <trkpt lat="48.61673" lon="2.09269">
        <ele>142</ele>
        <time>2013-12-15T10:04:31Z</time>
      </trkpt>
      <trkpt lat="48.61669" lon="2.09265">
        <ele>142</ele>
        <time>2013-12-15T10:04:38Z</time>
      </trkpt>
      <trkpt lat="48.61668" lon="2.09261">
        <ele>140</ele>
        <time>2013-12-15T10:05:25Z</time>
      </trkpt>
      <trkpt lat="48.6167" lon="2.09251">
        <ele>140</ele>
        <time>2013-12-15T10:05:41Z</time>
      </trkpt>
      <trkpt lat="48.61675" lon="2.09255">
        <ele>140</ele>
        <time>2013-12-15T10:05:47Z</time>
      </trkpt>
      <trkpt lat="48.61676" lon="2.09262">
        <ele>141</ele>
        <time>2013-12-15T10:05:50Z</time>
      </trkpt>
      <trkpt lat="48.61677" lon="2.09269">
        <ele>141</ele>
        <time>2013-12-15T10:05:53Z</time>
      </trkpt>
      <trkpt lat="48.61677" lon="2.09275">
        <ele>142</ele>
        <time>2013-12-15T10:06:02Z</time>
      </trkpt>
      <trkpt lat="48.6167" lon="2.09271">
        <ele>142</ele>
        <time>2013-12-15T10:06:09Z</time>
      </trkpt>
      <trkpt lat="48.61666" lon="2.09272">
        <ele>142</ele>
        <time>2013-12-15T10:06:11Z</time>
      </trkpt>
      <trkpt lat="48.61676" lon="2.09276">
        <ele>143</ele>
        <time>2013-12-15T10:06:22Z</time>
      </trkpt>
      <trkpt lat="48.61685" lon="2.09289">
        <ele>143</ele>
        <time>2013-12-15T10:06:26Z</time>
      </trkpt>
      <trkpt lat="48.61693" lon="2.09295">
        <ele>144</ele>
        <time>2013-12-15T10:06:30Z</time>
      </trkpt>
      <trkpt lat="48.61703" lon="2.09291">
        <ele>145</ele>
        <time>2013-12-15T10:06:35Z</time>
      </trkpt>
      <trkpt lat="48.61708" lon="2.09292">
        <ele>146</ele>
        <time>2013-12-15T10:06:38Z</time>
      </trkpt>
      <trkpt lat="48.61713" lon="2.0929">
        <ele>146</ele>
        <time>2013-12-15T10:06:43Z</time>
      </trkpt>
      <trkpt lat="48.61719" lon="2.09291">
        <ele>145</ele>
        <time>2013-12-15T10:06:48Z</time>
      </trkpt>
      <trkpt lat="48.61723" lon="2.09293">
        <ele>145</ele>
        <time>2013-12-15T10:06:52Z</time>
      </trkpt>
      <trkpt lat="48.61729" lon="2.09294">
        <ele>146</ele>
        <time>2013-12-15T10:06:56Z</time>
      </trkpt>
      <trkpt lat="48.61735" lon="2.09295">
        <ele>147</ele>
        <time>2013-12-15T10:07:00Z</time>
      </trkpt>
      <trkpt lat="48.6174" lon="2.09295">
        <ele>147</ele>
        <time>2013-12-15T10:07:03Z</time>
      </trkpt>
      <trkpt lat="48.61745" lon="2.09298">
        <ele>148</ele>
        <time>2013-12-15T10:07:08Z</time>
      </trkpt>
      <trkpt lat="48.6175" lon="2.09299">
        <ele>148</ele>
        <time>2013-12-15T10:07:12Z</time>
      </trkpt>
      <trkpt lat="48.61755" lon="2.093">
        <ele>148</ele>
        <time>2013-12-15T10:07:15Z</time>
      </trkpt>
      <trkpt lat="48.61759" lon="2.09302">
        <ele>148</ele>
        <time>2013-12-15T10:07:18Z</time>
      </trkpt>
      <trkpt lat="48.61764" lon="2.09305">
        <ele>149</ele>
        <time>2013-12-15T10:07:23Z</time>
      </trkpt>
      <trkpt lat="48.61768" lon="2.0931">
        <ele>149</ele>
        <time>2013-12-15T10:07:28Z</time>
      </trkpt>
      <trkpt lat="48.61771" lon="2.09315">
        <ele>149</ele>
        <time>2013-12-15T10:07:33Z</time>
      </trkpt>
      <trkpt lat="48.61775" lon="2.09321">
        <ele>150</ele>
        <time>2013-12-15T10:07:37Z</time>
      </trkpt>
      <trkpt lat="48.61779" lon="2.09327">
        <ele>150</ele>
        <time>2013-12-15T10:07:41Z</time>
      </trkpt>
      <trkpt lat="48.61784" lon="2.0933">
        <ele>151</ele>
        <time>2013-12-15T10:07:45Z</time>
      </trkpt>
      <trkpt lat="48.61793" lon="2.09333">
        <ele>152</ele>
        <time>2013-12-15T10:07:54Z</time>
      </trkpt>
      <trkpt lat="48.61796" lon="2.09338">
        <ele>152</ele>
        <time>2013-12-15T10:07:57Z</time>
      </trkpt>
      <trkpt lat="48.61799" lon="2.09352">
        <ele>153</ele>
        <time>2013-12-15T10:08:02Z</time>
      </trkpt>
      <trkpt lat="48.61806" lon="2.09362">
        <ele>154</ele>
        <time>2013-12-15T10:08:09Z</time>
      </trkpt>
      <trkpt lat="48.61811" lon="2.09374">
        <ele>155</ele>
        <time>2013-12-15T10:08:15Z</time>
      </trkpt>
      <trkpt lat="48.61814" lon="2.09381">
        <ele>155</ele>
        <time>2013-12-15T10:08:18Z</time>
      </trkpt>
      <trkpt lat="48.61823" lon="2.09386">
        <ele>153</ele>
        <time>2013-12-15T10:08:23Z</time>
      </trkpt>
      <trkpt lat="48.61833" lon="2.09382">
        <ele>153</ele>
        <time>2013-12-15T10:08:27Z</time>
      </trkpt>
      <trkpt lat="48.61838" lon="2.0938">
        <ele>153</ele>
        <time>2013-12-15T10:08:30Z</time>
      </trkpt>
      <trkpt lat="48.61843" lon="2.09384">
        <ele>152</ele>
        <time>2013-12-15T10:08:33Z</time>
      </trkpt>
      <trkpt lat="48.61846" lon="2.09388">
        <ele>152</ele>
        <time>2013-12-15T10:08:35Z</time>
      </trkpt>
      <trkpt lat="48.61851" lon="2.09389">
        <ele>152</ele>
        <time>2013-12-15T10:08:38Z</time>
      </trkpt>
      <trkpt lat="48.61856" lon="2.09391">
        <ele>152</ele>
        <time>2013-12-15T10:08:43Z</time>
      </trkpt>
      <trkpt lat="48.6186" lon="2.09393">
        <ele>151</ele>
        <time>2013-12-15T10:08:47Z</time>
      </trkpt>
      <trkpt lat="48.61871" lon="2.09403">
        <ele>150</ele>
        <time>2013-12-15T10:08:59Z</time>
      </trkpt>
      <trkpt lat="48.61873" lon="2.09416">
        <ele>149</ele>
        <time>2013-12-15T10:09:03Z</time>
      </trkpt>
      <trkpt lat="48.61877" lon="2.0943">
        <ele>149</ele>
        <time>2013-12-15T10:09:08Z</time>
      </trkpt>
      <trkpt lat="48.61885" lon="2.09422">
        <ele>148</ele>
        <time>2013-12-15T10:09:13Z</time>
      </trkpt>
      <trkpt lat="48.61895" lon="2.09418">
        <ele>148</ele>
        <time>2013-12-15T10:09:17Z</time>
      </trkpt>
      <trkpt lat="48.61899" lon="2.09419">
        <ele>148</ele>
        <time>2013-12-15T10:09:20Z</time>
      </trkpt>
      <trkpt lat="48.61904" lon="2.09423">
        <ele>147</ele>
        <time>2013-12-15T10:09:24Z</time>
      </trkpt>
      <trkpt lat="48.61906" lon="2.0943">
        <ele>147</ele>
        <time>2013-12-15T10:09:27Z</time>
      </trkpt>
      <trkpt lat="48.61909" lon="2.09437">
        <ele>146</ele>
        <time>2013-12-15T10:09:30Z</time>
      </trkpt>
      <trkpt lat="48.61913" lon="2.09439">
        <ele>144</ele>
        <time>2013-12-15T10:09:34Z</time>
      </trkpt>
      <trkpt lat="48.61918" lon="2.09441">
        <ele>143</ele>
        <time>2013-12-15T10:09:38Z</time>
      </trkpt>
      <trkpt lat="48.61923" lon="2.09443">
        <ele>142</ele>
        <time>2013-12-15T10:09:42Z</time>
      </trkpt>
      <trkpt lat="48.61927" lon="2.09445">
        <ele>141</ele>
        <time>2013-12-15T10:09:46Z</time>
      </trkpt>
      <trkpt lat="48.61933" lon="2.09448">
        <ele>139</ele>
        <time>2013-12-15T10:09:51Z</time>
      </trkpt>
      <trkpt lat="48.61938" lon="2.09449">
        <ele>137</ele>
        <time>2013-12-15T10:09:55Z</time>
      </trkpt>
      <trkpt lat="48.61942" lon="2.09451">
        <ele>136</ele>
        <time>2013-12-15T10:09:59Z</time>
      </trkpt>
      <trkpt lat="48.61947" lon="2.09454">
        <ele>134</ele>
        <time>2013-12-15T10:10:03Z</time>
      </trkpt>
      <trkpt lat="48.61952" lon="2.09457">
        <ele>134</ele>
        <time>2013-12-15T10:10:06Z</time>
      </trkpt>
      <trkpt lat="48.61957" lon="2.09457">
        <ele>133</ele>
        <time>2013-12-15T10:10:09Z</time>
      </trkpt>
      <trkpt lat="48.61963" lon="2.09457">
        <ele>133</ele>
        <time>2013-12-15T10:10:12Z</time>
      </trkpt>
      <trkpt lat="48.61968" lon="2.09456">
        <ele>132</ele>
        <time>2013-12-15T10:10:15Z</time>
      </trkpt>
      <trkpt lat="48.61973" lon="2.09457">
        <ele>132</ele>
        <time>2013-12-15T10:10:18Z</time>
      </trkpt>
      <trkpt lat="48.61975" lon="2.09464">
        <ele>131</ele>
        <time>2013-12-15T10:10:20Z</time>
      </trkpt>
      <trkpt lat="48.61979" lon="2.09469">
        <ele>132</ele>
        <time>2013-12-15T10:10:23Z</time>
      </trkpt>
      <trkpt lat="48.61982" lon="2.09477">
        <ele>132</ele>
        <time>2013-12-15T10:10:26Z</time>
      </trkpt>
      <trkpt lat="48.61985" lon="2.09484">
        <ele>132</ele>
        <time>2013-12-15T10:10:30Z</time>
      </trkpt>
      <trkpt lat="48.61987" lon="2.0949">
        <ele>132</ele>
        <time>2013-12-15T10:10:34Z</time>
      </trkpt>
      <trkpt lat="48.6199" lon="2.09496">
        <ele>132</ele>
        <time>2013-12-15T10:10:37Z</time>
      </trkpt>
      <trkpt lat="48.61993" lon="2.09503">
        <ele>133</ele>
        <time>2013-12-15T10:10:40Z</time>
      </trkpt>
      <trkpt lat="48.61995" lon="2.09509">
        <ele>134</ele>
        <time>2013-12-15T10:10:43Z</time>
      </trkpt>
      <trkpt lat="48.61999" lon="2.09515">
        <ele>134</ele>
        <time>2013-12-15T10:10:47Z</time>
      </trkpt>
      <trkpt lat="48.62" lon="2.09523">
        <ele>134</ele>
        <time>2013-12-15T10:10:52Z</time>
      </trkpt>
      <trkpt lat="48.62001" lon="2.0953">
        <ele>133</ele>
        <time>2013-12-15T10:10:56Z</time>
      </trkpt>
      <trkpt lat="48.62006" lon="2.09531">
        <ele>133</ele>
        <time>2013-12-15T10:10:59Z</time>
      </trkpt>
      <trkpt lat="48.6201" lon="2.09531">
        <ele>132</ele>
        <time>2013-12-15T10:11:02Z</time>
      </trkpt>
      <trkpt lat="48.62014" lon="2.09537">
        <ele>131</ele>
        <time>2013-12-15T10:11:07Z</time>
      </trkpt>
      <trkpt lat="48.62017" lon="2.09546">
        <ele>130</ele>
        <time>2013-12-15T10:11:14Z</time>
      </trkpt>
      <trkpt lat="48.6202" lon="2.09553">
        <ele>130</ele>
        <time>2013-12-15T10:11:18Z</time>
      </trkpt>
      <trkpt lat="48.62023" lon="2.09558">
        <ele>129</ele>
        <time>2013-12-15T10:11:21Z</time>
      </trkpt>
      <trkpt lat="48.62025" lon="2.09565">
        <ele>129</ele>
        <time>2013-12-15T10:11:25Z</time>
      </trkpt>
      <trkpt lat="48.62022" lon="2.09571">
        <ele>127</ele>
        <time>2013-12-15T10:11:28Z</time>
      </trkpt>
      <trkpt lat="48.62027" lon="2.09574">
        <ele>126</ele>
        <time>2013-12-15T10:11:31Z</time>
      </trkpt>
      <trkpt lat="48.62032" lon="2.09574">
        <ele>124</ele>
        <time>2013-12-15T10:11:33Z</time>
      </trkpt>
      <trkpt lat="48.62038" lon="2.09576">
        <ele>123</ele>
        <time>2013-12-15T10:11:36Z</time>
      </trkpt>
      <trkpt lat="48.62041" lon="2.09583">
        <ele>121</ele>
        <time>2013-12-15T10:11:40Z</time>
      </trkpt>
      <trkpt lat="48.62041" lon="2.0959">
        <ele>121</ele>
        <time>2013-12-15T10:11:44Z</time>
      </trkpt>
      <trkpt lat="48.62043" lon="2.09597">
        <ele>122</ele>
        <time>2013-12-15T10:11:48Z</time>
      </trkpt>
      <trkpt lat="48.62048" lon="2.09603">
        <ele>121</ele>
        <time>2013-12-15T10:11:52Z</time>
      </trkpt>
      <trkpt lat="48.62051" lon="2.0961">
        <ele>122</ele>
        <time>2013-12-15T10:11:56Z</time>
      </trkpt>
      <trkpt lat="48.62054" lon="2.09615">
        <ele>122</ele>
        <time>2013-12-15T10:11:59Z</time>
      </trkpt>
      <trkpt lat="48.62056" lon="2.09621">
        <ele>122</ele>
        <time>2013-12-15T10:12:03Z</time>
      </trkpt>
      <trkpt lat="48.62059" lon="2.09628">
        <ele>122</ele>
        <time>2013-12-15T10:12:07Z</time>
      </trkpt>
      <trkpt lat="48.62058" lon="2.09636">
        <ele>124</ele>
        <time>2013-12-15T10:12:12Z</time>
      </trkpt>
      <trkpt lat="48.6206" lon="2.09643">
        <ele>125</ele>
        <time>2013-12-15T10:12:17Z</time>
      </trkpt>
      <trkpt lat="48.62062" lon="2.09649">
        <ele>124</ele>
        <time>2013-12-15T10:12:21Z</time>
      </trkpt>
      <trkpt lat="48.62064" lon="2.09656">
        <ele>124</ele>
        <time>2013-12-15T10:12:24Z</time>
      </trkpt>
      <trkpt lat="48.62067" lon="2.09661">
        <ele>125</ele>
        <time>2013-12-15T10:12:28Z</time>
      </trkpt>
      <trkpt lat="48.62069" lon="2.09668">
        <ele>125</ele>
        <time>2013-12-15T10:12:32Z</time>
      </trkpt>
      <trkpt lat="48.62072" lon="2.09676">
        <ele>127</ele>
        <time>2013-12-15T10:12:36Z</time>
      </trkpt>
      <trkpt lat="48.62075" lon="2.09682">
        <ele>128</ele>
        <time>2013-12-15T10:12:39Z</time>
      </trkpt>
      <trkpt lat="48.62078" lon="2.09687">
        <ele>128</ele>
        <time>2013-12-15T10:12:42Z</time>
      </trkpt>
      <trkpt lat="48.62081" lon="2.09692">
        <ele>128</ele>
        <time>2013-12-15T10:12:46Z</time>
      </trkpt>
      <trkpt lat="48.62084" lon="2.09699">
        <ele>127</ele>
        <time>2013-12-15T10:12:50Z</time>
      </trkpt>
      <trkpt lat="48.62085" lon="2.09707">
        <ele>129</ele>
        <time>2013-12-15T10:12:54Z</time>
      </trkpt>
      <trkpt lat="48.62087" lon="2.09714">
        <ele>131</ele>
        <time>2013-12-15T10:12:58Z</time>
      </trkpt>
      <trkpt lat="48.6209" lon="2.09721">
        <ele>131</ele>
        <time>2013-12-15T10:13:02Z</time>
      </trkpt>
      <trkpt lat="48.62094" lon="2.09726">
        <ele>131</ele>
        <time>2013-12-15T10:13:06Z</time>
      </trkpt>
      <trkpt lat="48.62099" lon="2.09729">
        <ele>131</ele>
        <time>2013-12-15T10:13:11Z</time>
      </trkpt>
      <trkpt lat="48.62102" lon="2.09736">
        <ele>132</ele>
        <time>2013-12-15T10:13:15Z</time>
      </trkpt>
      <trkpt lat="48.62104" lon="2.09742">
        <ele>133</ele>
        <time>2013-12-15T10:13:18Z</time>
      </trkpt>
      <trkpt lat="48.62107" lon="2.09747">
        <ele>133</ele>
        <time>2013-12-15T10:13:22Z</time>
      </trkpt>
      <trkpt lat="48.62111" lon="2.09752">
        <ele>133</ele>
        <time>2013-12-15T10:13:26Z</time>
      </trkpt>
      <trkpt lat="48.62113" lon="2.09759">
        <ele>133</ele>
        <time>2013-12-15T10:13:29Z</time>
      </trkpt>
      <trkpt lat="48.62115" lon="2.09767">
        <ele>134</ele>
        <time>2013-12-15T10:13:32Z</time>
      </trkpt>
      <trkpt lat="48.62117" lon="2.09775">
        <ele>134</ele>
        <time>2013-12-15T10:13:36Z</time>
      </trkpt>
      <trkpt lat="48.62122" lon="2.0978">
        <ele>133</ele>
        <time>2013-12-15T10:13:40Z</time>
      </trkpt>
      <trkpt lat="48.62126" lon="2.09784">
        <ele>132</ele>
        <time>2013-12-15T10:13:44Z</time>
      </trkpt>
      <trkpt lat="48.6213" lon="2.0979">
        <ele>131</ele>
        <time>2013-12-15T10:13:50Z</time>
      </trkpt>
      <trkpt lat="48.62132" lon="2.09796">
        <ele>130</ele>
        <time>2013-12-15T10:13:55Z</time>
      </trkpt>
      <trkpt lat="48.62135" lon="2.09803">
        <ele>129</ele>
        <time>2013-12-15T10:13:58Z</time>
      </trkpt>
      <trkpt lat="48.62136" lon="2.0981">
        <ele>128</ele>
        <time>2013-12-15T10:14:01Z</time>
      </trkpt>
      <trkpt lat="48.62139" lon="2.09817">
        <ele>128</ele>
        <time>2013-12-15T10:14:05Z</time>
      </trkpt>
      <trkpt lat="48.62139" lon="2.09826">
        <ele>129</ele>
        <time>2013-12-15T10:14:08Z</time>
      </trkpt>
      <trkpt lat="48.62138" lon="2.09835">
        <ele>129</ele>
        <time>2013-12-15T10:14:11Z</time>
      </trkpt>
      <trkpt lat="48.62139" lon="2.09843">
        <ele>130</ele>
        <time>2013-12-15T10:14:15Z</time>
      </trkpt>
      <trkpt lat="48.62141" lon="2.0985">
        <ele>131</ele>
        <time>2013-12-15T10:14:19Z</time>
      </trkpt>
      <trkpt lat="48.62144" lon="2.09856">
        <ele>131</ele>
        <time>2013-12-15T10:14:23Z</time>
      </trkpt>
      <trkpt lat="48.62145" lon="2.09864">
        <ele>130</ele>
        <time>2013-12-15T10:14:27Z</time>
      </trkpt>
      <trkpt lat="48.62148" lon="2.0987">
        <ele>129</ele>
        <time>2013-12-15T10:14:32Z</time>
      </trkpt>
      <trkpt lat="48.62151" lon="2.09876">
        <ele>128</ele>
        <time>2013-12-15T10:14:37Z</time>
      </trkpt>
      <trkpt lat="48.62154" lon="2.09882">
        <ele>125</ele>
        <time>2013-12-15T10:14:42Z</time>
      </trkpt>
      <trkpt lat="48.62157" lon="2.09888">
        <ele>125</ele>
        <time>2013-12-15T10:14:45Z</time>
      </trkpt>
      <trkpt lat="48.62158" lon="2.09894">
        <ele>124</ele>
        <time>2013-12-15T10:14:48Z</time>
      </trkpt>
      <trkpt lat="48.62161" lon="2.09901">
        <ele>123</ele>
        <time>2013-12-15T10:14:52Z</time>
      </trkpt>
      <trkpt lat="48.62164" lon="2.09907">
        <ele>122</ele>
        <time>2013-12-15T10:14:56Z</time>
      </trkpt>
      <trkpt lat="48.62167" lon="2.09913">
        <ele>122</ele>
        <time>2013-12-15T10:14:59Z</time>
      </trkpt>
      <trkpt lat="48.62169" lon="2.09919">
        <ele>122</ele>
        <time>2013-12-15T10:15:02Z</time>
      </trkpt>
      <trkpt lat="48.62171" lon="2.09926">
        <ele>122</ele>
        <time>2013-12-15T10:15:05Z</time>
      </trkpt>
      <trkpt lat="48.62174" lon="2.09933">
        <ele>122</ele>
        <time>2013-12-15T10:15:09Z</time>
      </trkpt>
      <trkpt lat="48.62178" lon="2.09939">
        <ele>122</ele>
        <time>2013-12-15T10:15:13Z</time>
      </trkpt>
      <trkpt lat="48.62182" lon="2.09943">
        <ele>122</ele>
        <time>2013-12-15T10:15:17Z</time>
      </trkpt>
      <trkpt lat="48.62184" lon="2.09948">
        <ele>123</ele>
        <time>2013-12-15T10:15:21Z</time>
      </trkpt>
      <trkpt lat="48.62188" lon="2.09953">
        <ele>125</ele>
        <time>2013-12-15T10:15:24Z</time>
      </trkpt>
      <trkpt lat="48.62192" lon="2.09958">
        <ele>126</ele>
        <time>2013-12-15T10:15:26Z</time>
      </trkpt>
      <trkpt lat="48.62197" lon="2.09959">
        <ele>125</ele>
        <time>2013-12-15T10:15:29Z</time>
      </trkpt>
      <trkpt lat="48.62202" lon="2.09962">
        <ele>125</ele>
        <time>2013-12-15T10:15:33Z</time>
      </trkpt>
      <trkpt lat="48.62206" lon="2.09968">
        <ele>124</ele>
        <time>2013-12-15T10:15:37Z</time>
      </trkpt>
      <trkpt lat="48.62208" lon="2.09974">
        <ele>123</ele>
        <time>2013-12-15T10:15:40Z</time>
      </trkpt>
      <trkpt lat="48.62212" lon="2.0998">
        <ele>123</ele>
        <time>2013-12-15T10:15:43Z</time>
      </trkpt>
      <trkpt lat="48.62217" lon="2.09984">
        <ele>122</ele>
        <time>2013-12-15T10:15:46Z</time>
      </trkpt>
      <trkpt lat="48.62222" lon="2.09988">
        <ele>121</ele>
        <time>2013-12-15T10:15:50Z</time>
      </trkpt>
      <trkpt lat="48.62226" lon="2.09993">
        <ele>121</ele>
        <time>2013-12-15T10:15:54Z</time>
      </trkpt>
      <trkpt lat="48.6223" lon="2.09998">
        <ele>120</ele>
        <time>2013-12-15T10:15:58Z</time>
      </trkpt>
      <trkpt lat="48.62235" lon="2.09998">
        <ele>119</ele>
        <time>2013-12-15T10:16:01Z</time>
      </trkpt>
      <trkpt lat="48.62239" lon="2.1">
        <ele>118</ele>
        <time>2013-12-15T10:16:05Z</time>
      </trkpt>
      <trkpt lat="48.62245" lon="2.10003">
        <ele>117</ele>
        <time>2013-12-15T10:16:11Z</time>
      </trkpt>
      <trkpt lat="48.62249" lon="2.10003">
        <ele>117</ele>
        <time>2013-12-15T10:16:15Z</time>
      </trkpt>
      <trkpt lat="48.62252" lon="2.1001">
        <ele>119</ele>
        <time>2013-12-15T10:16:20Z</time>
      </trkpt>
      <trkpt lat="48.62254" lon="2.10017">
        <ele>121</ele>
        <time>2013-12-15T10:16:24Z</time>
      </trkpt>
      <trkpt lat="48.62257" lon="2.10022">
        <ele>122</ele>
        <time>2013-12-15T10:16:27Z</time>
      </trkpt>
      <trkpt lat="48.62262" lon="2.10023">
        <ele>122</ele>
        <time>2013-12-15T10:16:30Z</time>
      </trkpt>
      <trkpt lat="48.62267" lon="2.10024">
        <ele>122</ele>
        <time>2013-12-15T10:16:33Z</time>
      </trkpt>
      <trkpt lat="48.62271" lon="2.10028">
        <ele>121</ele>
        <time>2013-12-15T10:16:37Z</time>
      </trkpt>
      <trkpt lat="48.62274" lon="2.10034">
        <ele>119</ele>
        <time>2013-12-15T10:16:41Z</time>
      </trkpt>
      <trkpt lat="48.62278" lon="2.10039">
        <ele>119</ele>
        <time>2013-12-15T10:16:44Z</time>
      </trkpt>
      <trkpt lat="48.62283" lon="2.10041">
        <ele>117</ele>
        <time>2013-12-15T10:16:47Z</time>
      </trkpt>
      <trkpt lat="48.62287" lon="2.10046">
        <ele>115</ele>
        <time>2013-12-15T10:16:52Z</time>
      </trkpt>
      <trkpt lat="48.62292" lon="2.10048">
        <ele>114</ele>
        <time>2013-12-15T10:16:55Z</time>
      </trkpt>
      <trkpt lat="48.62298" lon="2.1005">
        <ele>113</ele>
        <time>2013-12-15T10:16:58Z</time>
      </trkpt>
      <trkpt lat="48.62303" lon="2.10053">
        <ele>113</ele>
        <time>2013-12-15T10:17:02Z</time>
      </trkpt>
      <trkpt lat="48.62304" lon="2.10061">
        <ele>115</ele>
        <time>2013-12-15T10:17:06Z</time>
      </trkpt>
      <trkpt lat="48.62309" lon="2.10084">
        <ele>122</ele>
        <time>2013-12-15T10:17:17Z</time>
      </trkpt>
      <trkpt lat="48.62314" lon="2.10086">
        <ele>124</ele>
        <time>2013-12-15T10:17:21Z</time>
      </trkpt>
      <trkpt lat="48.62318" lon="2.10085">
        <ele>124</ele>
        <time>2013-12-15T10:17:26Z</time>
      </trkpt>
      <trkpt lat="48.62323" lon="2.1009">
        <ele>124</ele>
        <time>2013-12-15T10:17:31Z</time>
      </trkpt>
      <trkpt lat="48.62327" lon="2.10094">
        <ele>123</ele>
        <time>2013-12-15T10:17:35Z</time>
      </trkpt>
      <trkpt lat="48.62331" lon="2.10099">
        <ele>123</ele>
        <time>2013-12-15T10:17:39Z</time>
      </trkpt>
      <trkpt lat="48.62335" lon="2.10105">
        <ele>124</ele>
        <time>2013-12-15T10:17:43Z</time>
      </trkpt>
      <trkpt lat="48.62338" lon="2.1011">
        <ele>124</ele>
        <time>2013-12-15T10:17:47Z</time>
      </trkpt>
      <trkpt lat="48.62343" lon="2.10111">
        <ele>124</ele>
        <time>2013-12-15T10:17:51Z</time>
      </trkpt>
      <trkpt lat="48.62348" lon="2.10116">
        <ele>123</ele>
        <time>2013-12-15T10:17:54Z</time>
      </trkpt>
      <trkpt lat="48.62352" lon="2.1012">
        <ele>123</ele>
        <time>2013-12-15T10:17:58Z</time>
      </trkpt>
      <trkpt lat="48.62357" lon="2.10121">
        <ele>123</ele>
        <time>2013-12-15T10:18:02Z</time>
      </trkpt>
      <trkpt lat="48.62363" lon="2.10121">
        <ele>121</ele>
        <time>2013-12-15T10:18:07Z</time>
      </trkpt>
      <trkpt lat="48.62367" lon="2.10125">
        <ele>121</ele>
        <time>2013-12-15T10:18:11Z</time>
      </trkpt>
      <trkpt lat="48.6237" lon="2.1013">
        <ele>122</ele>
        <time>2013-12-15T10:18:14Z</time>
      </trkpt>
      <trkpt lat="48.62375" lon="2.10135">
        <ele>121</ele>
        <time>2013-12-15T10:18:17Z</time>
      </trkpt>
      <trkpt lat="48.62381" lon="2.10139">
        <ele>121</ele>
        <time>2013-12-15T10:18:20Z</time>
      </trkpt>
      <trkpt lat="48.62385" lon="2.10144">
        <ele>121</ele>
        <time>2013-12-15T10:18:22Z</time>
      </trkpt>
      <trkpt lat="48.62388" lon="2.10149">
        <ele>121</ele>
        <time>2013-12-15T10:18:24Z</time>
      </trkpt>
      <trkpt lat="48.62395" lon="2.10159">
        <ele>118</ele>
        <time>2013-12-15T10:18:30Z</time>
      </trkpt>
      <trkpt lat="48.624" lon="2.10163">
        <ele>117</ele>
        <time>2013-12-15T10:18:33Z</time>
      </trkpt>
      <trkpt lat="48.62406" lon="2.10163">
        <ele>116</ele>
        <time>2013-12-15T10:18:36Z</time>
      </trkpt>
      <trkpt lat="48.6241" lon="2.10164">
        <ele>115</ele>
        <time>2013-12-15T10:18:39Z</time>
      </trkpt>
      <trkpt lat="48.62413" lon="2.10171">
        <ele>113</ele>
        <time>2013-12-15T10:18:44Z</time>
      </trkpt>
      <trkpt lat="48.62409" lon="2.10178">
        <ele>112</ele>
        <time>2013-12-15T10:18:49Z</time>
      </trkpt>
      <trkpt lat="48.62405" lon="2.1018">
        <ele>111</ele>
        <time>2013-12-15T10:18:51Z</time>
      </trkpt>
      <trkpt lat="48.624" lon="2.10184">
        <ele>110</ele>
        <time>2013-12-15T10:18:53Z</time>
      </trkpt>
      <trkpt lat="48.62395" lon="2.10186">
        <ele>109</ele>
        <time>2013-12-15T10:18:55Z</time>
      </trkpt>
      <trkpt lat="48.624" lon="2.10198">
        <ele>108</ele>
        <time>2013-12-15T10:19:01Z</time>
      </trkpt>
      <trkpt lat="48.62405" lon="2.10209">
        <ele>106</ele>
        <time>2013-12-15T10:19:04Z</time>
      </trkpt>
      <trkpt lat="48.62409" lon="2.10219">
        <ele>106</ele>
        <time>2013-12-15T10:19:07Z</time>
      </trkpt>
      <trkpt lat="48.62416" lon="2.10231">
        <ele>106</ele>
        <time>2013-12-15T10:19:15Z</time>
      </trkpt>
      <trkpt lat="48.62422" lon="2.1023">
        <ele>105</ele>
        <time>2013-12-15T10:19:19Z</time>
      </trkpt>
      <trkpt lat="48.62427" lon="2.10232">
        <ele>104</ele>
        <time>2013-12-15T10:19:23Z</time>
      </trkpt>
      <trkpt lat="48.62431" lon="2.10238">
        <ele>104</ele>
        <time>2013-12-15T10:19:28Z</time>
      </trkpt>
      <trkpt lat="48.62435" lon="2.10243">
        <ele>104</ele>
        <time>2013-12-15T10:19:31Z</time>
      </trkpt>
      <trkpt lat="48.62442" lon="2.10245">
        <ele>106</ele>
        <time>2013-12-15T10:19:34Z</time>
      </trkpt>
      <trkpt lat="48.62446" lon="2.10248">
        <ele>107</ele>
        <time>2013-12-15T10:19:37Z</time>
      </trkpt>
      <trkpt lat="48.62449" lon="2.10255">
        <ele>107</ele>
        <time>2013-12-15T10:19:41Z</time>
      </trkpt>
      <trkpt lat="48.62452" lon="2.10262">
        <ele>106</ele>
        <time>2013-12-15T10:19:48Z</time>
      </trkpt>
      <trkpt lat="48.62456" lon="2.10267">
        <ele>106</ele>
        <time>2013-12-15T10:19:52Z</time>
      </trkpt>
      <trkpt lat="48.62461" lon="2.10271">
        <ele>106</ele>
        <time>2013-12-15T10:19:56Z</time>
      </trkpt>
      <trkpt lat="48.62463" lon="2.10278">
        <ele>107</ele>
        <time>2013-12-15T10:19:58Z</time>
      </trkpt>
      <trkpt lat="48.62466" lon="2.10286">
        <ele>107</ele>
        <time>2013-12-15T10:20:01Z</time>
      </trkpt>
      <trkpt lat="48.62463" lon="2.10294">
        <ele>108</ele>
        <time>2013-12-15T10:20:04Z</time>
      </trkpt>
      <trkpt lat="48.62464" lon="2.103">
        <ele>109</ele>
        <time>2013-12-15T10:20:08Z</time>
      </trkpt>
      <trkpt lat="48.62465" lon="2.10308">
        <ele>110</ele>
        <time>2013-12-15T10:20:12Z</time>
      </trkpt>
      <trkpt lat="48.62468" lon="2.10314">
        <ele>111</ele>
        <time>2013-12-15T10:20:18Z</time>
      </trkpt>
      <trkpt lat="48.62473" lon="2.10317">
        <ele>112</ele>
        <time>2013-12-15T10:20:22Z</time>
      </trkpt>
      <trkpt lat="48.62478" lon="2.10319">
        <ele>112</ele>
        <time>2013-12-15T10:20:25Z</time>
      </trkpt>
      <trkpt lat="48.62484" lon="2.10319">
        <ele>112</ele>
        <time>2013-12-15T10:20:27Z</time>
      </trkpt>
      <trkpt lat="48.6249" lon="2.10323">
        <ele>112</ele>
        <time>2013-12-15T10:20:29Z</time>
      </trkpt>
      <trkpt lat="48.62496" lon="2.10328">
        <ele>112</ele>
        <time>2013-12-15T10:20:31Z</time>
      </trkpt>
      <trkpt lat="48.62499" lon="2.10329">
        <ele>112</ele>
        <time>2013-12-15T10:20:32Z</time>
      </trkpt>
      <trkpt lat="48.62503" lon="2.10329">
        <ele>112</ele>
        <time>2013-12-15T10:20:34Z</time>
      </trkpt>
      <trkpt lat="48.62506" lon="2.1033">
        <ele>112</ele>
        <time>2013-12-15T10:20:36Z</time>
      </trkpt>
      <trkpt lat="48.6251" lon="2.10331">
        <ele>112</ele>
        <time>2013-12-15T10:20:38Z</time>
      </trkpt>
      <trkpt lat="48.62514" lon="2.10333">
        <ele>112</ele>
        <time>2013-12-15T10:20:40Z</time>
      </trkpt>
      <trkpt lat="48.62516" lon="2.10336">
        <ele>113</ele>
        <time>2013-12-15T10:20:42Z</time>
      </trkpt>
      <trkpt lat="48.6252" lon="2.10336">
        <ele>113</ele>
        <time>2013-12-15T10:20:51Z</time>
      </trkpt>
      <trkpt lat="48.62521" lon="2.10333">
        <ele>113</ele>
        <time>2013-12-15T10:20:57Z</time>
      </trkpt>
      <trkpt lat="48.62526" lon="2.10331">
        <ele>113</ele>
        <time>2013-12-15T10:21:02Z</time>
      </trkpt>
      <trkpt lat="48.6253" lon="2.10335">
        <ele>113</ele>
        <time>2013-12-15T10:21:06Z</time>
      </trkpt>
      <trkpt lat="48.62535" lon="2.10339">
        <ele>114</ele>
        <time>2013-12-15T10:21:11Z</time>
      </trkpt>
      <trkpt lat="48.62538" lon="2.10346">
        <ele>114</ele>
        <time>2013-12-15T10:21:15Z</time>
      </trkpt>
      <trkpt lat="48.62542" lon="2.10351">
        <ele>113</ele>
        <time>2013-12-15T10:21:19Z</time>
      </trkpt>
      <trkpt lat="48.62551" lon="2.10357">
        <ele>112</ele>
        <time>2013-12-15T10:21:29Z</time>
      </trkpt>
      <trkpt lat="48.62561" lon="2.10357">
        <ele>112</ele>
        <time>2013-12-15T10:21:36Z</time>
      </trkpt>
      <trkpt lat="48.62571" lon="2.10359">
        <ele>111</ele>
        <time>2013-12-15T10:21:42Z</time>
      </trkpt>
      <trkpt lat="48.6258" lon="2.10362">
        <ele>111</ele>
        <time>2013-12-15T10:21:46Z</time>
      </trkpt>
      <trkpt lat="48.62589" lon="2.1036">
        <ele>110</ele>
        <time>2013-12-15T10:21:55Z</time>
      </trkpt>
      <trkpt lat="48.62599" lon="2.10364">
        <ele>110</ele>
        <time>2013-12-15T10:22:02Z</time>
      </trkpt>
      <trkpt lat="48.62608" lon="2.10368">
        <ele>111</ele>
        <time>2013-12-15T10:22:10Z</time>
      </trkpt>
      <trkpt lat="48.62612" lon="2.10374">
        <ele>111</ele>
        <time>2013-12-15T10:22:14Z</time>
      </trkpt>
      <trkpt lat="48.62617" lon="2.10377">
        <ele>110</ele>
        <time>2013-12-15T10:22:17Z</time>
      </trkpt>
      <trkpt lat="48.62622" lon="2.10378">
        <ele>110</ele>
        <time>2013-12-15T10:22:20Z</time>
      </trkpt>
      <trkpt lat="48.62626" lon="2.10379">
        <ele>110</ele>
        <time>2013-12-15T10:22:25Z</time>
      </trkpt>
      <trkpt lat="48.62631" lon="2.10383">
        <ele>110</ele>
        <time>2013-12-15T10:22:28Z</time>
      </trkpt>
      <trkpt lat="48.62636" lon="2.10387">
        <ele>110</ele>
        <time>2013-12-15T10:22:31Z</time>
      </trkpt>
      <trkpt lat="48.62641" lon="2.10391">
        <ele>111</ele>
        <time>2013-12-15T10:22:35Z</time>
      </trkpt>
      <trkpt lat="48.62645" lon="2.10393">
        <ele>111</ele>
        <time>2013-12-15T10:22:39Z</time>
      </trkpt>
      <trkpt lat="48.62651" lon="2.10394">
        <ele>110</ele>
        <time>2013-12-15T10:22:43Z</time>
      </trkpt>
      <trkpt lat="48.62654" lon="2.10399">
        <ele>110</ele>
        <time>2013-12-15T10:22:48Z</time>
      </trkpt>
      <trkpt lat="48.62659" lon="2.10401">
        <ele>110</ele>
        <time>2013-12-15T10:22:52Z</time>
      </trkpt>
      <trkpt lat="48.62663" lon="2.10403">
        <ele>109</ele>
        <time>2013-12-15T10:22:55Z</time>
      </trkpt>
      <trkpt lat="48.62669" lon="2.10403">
        <ele>109</ele>
        <time>2013-12-15T10:22:58Z</time>
      </trkpt>
      <trkpt lat="48.62674" lon="2.10403">
        <ele>108</ele>
        <time>2013-12-15T10:23:01Z</time>
      </trkpt>
      <trkpt lat="48.62679" lon="2.10402">
        <ele>108</ele>
        <time>2013-12-15T10:23:04Z</time>
      </trkpt>
      <trkpt lat="48.62685" lon="2.10405">
        <ele>108</ele>
        <time>2013-12-15T10:23:08Z</time>
      </trkpt>
      <trkpt lat="48.62689" lon="2.10409">
        <ele>108</ele>
        <time>2013-12-15T10:23:12Z</time>
      </trkpt>
      <trkpt lat="48.62695" lon="2.10411">
        <ele>108</ele>
        <time>2013-12-15T10:23:16Z</time>
      </trkpt>
      <trkpt lat="48.62695" lon="2.10405">
        <ele>104</ele>
        <time>2013-12-15T10:23:26Z</time>
      </trkpt>
      <trkpt lat="48.62695" lon="2.10401">
        <ele>105</ele>
        <time>2013-12-15T10:23:51Z</time>
      </trkpt>
      <trkpt lat="48.62694" lon="2.10398">
        <ele>107</ele>
        <time>2013-12-15T10:24:22Z</time>
      </trkpt>
      <trkpt lat="48.62696" lon="2.1039">
        <ele>107</ele>
        <time>2013-12-15T10:24:41Z</time>
      </trkpt>
      <trkpt lat="48.62699" lon="2.10381">
        <ele>107</ele>
        <time>2013-12-15T10:24:54Z</time>
      </trkpt>
      <trkpt lat="48.627" lon="2.10373">
        <ele>106</ele>
        <time>2013-12-15T10:24:59Z</time>
      </trkpt>
      <trkpt lat="48.627" lon="2.10366">
        <ele>105</ele>
        <time>2013-12-15T10:25:04Z</time>
      </trkpt>
      <trkpt lat="48.62701" lon="2.10359">
        <ele>105</ele>
        <time>2013-12-15T10:25:10Z</time>
      </trkpt>
      <trkpt lat="48.627" lon="2.1036">
        <ele>106</ele>
        <time>2013-12-15T10:25:24Z</time>
      </trkpt>
      <trkpt lat="48.62704" lon="2.10354">
        <ele>107</ele>
        <time>2013-12-15T10:25:40Z</time>
      </trkpt>
      <trkpt lat="48.62706" lon="2.10346">
        <ele>107</ele>
        <time>2013-12-15T10:25:43Z</time>
      </trkpt>
      <trkpt lat="48.62708" lon="2.10339">
        <ele>107</ele>
        <time>2013-12-15T10:25:46Z</time>
      </trkpt>
      <trkpt lat="48.62709" lon="2.10331">
        <ele>106</ele>
        <time>2013-12-15T10:25:51Z</time>
      </trkpt>
      <trkpt lat="48.62709" lon="2.10324">
        <ele>106</ele>
        <time>2013-12-15T10:25:55Z</time>
      </trkpt>
      <trkpt lat="48.6271" lon="2.10316">
        <ele>105</ele>
        <time>2013-12-15T10:25:59Z</time>
      </trkpt>
      <trkpt lat="48.62709" lon="2.10308">
        <ele>103</ele>
        <time>2013-12-15T10:26:04Z</time>
      </trkpt>
      <trkpt lat="48.62712" lon="2.10302">
        <ele>102</ele>
        <time>2013-12-15T10:26:08Z</time>
      </trkpt>
      <trkpt lat="48.62715" lon="2.10295">
        <ele>102</ele>
        <time>2013-12-15T10:26:12Z</time>
      </trkpt>
      <trkpt lat="48.62715" lon="2.10287">
        <ele>102</ele>
        <time>2013-12-15T10:26:16Z</time>
      </trkpt>
      <trkpt lat="48.62712" lon="2.10281">
        <ele>101</ele>
        <time>2013-12-15T10:26:20Z</time>
      </trkpt>
      <trkpt lat="48.62709" lon="2.10274">
        <ele>101</ele>
        <time>2013-12-15T10:26:24Z</time>
      </trkpt>
      <trkpt lat="48.6271" lon="2.10267">
        <ele>101</ele>
        <time>2013-12-15T10:26:28Z</time>
      </trkpt>
      <trkpt lat="48.62713" lon="2.1026">
        <ele>101</ele>
        <time>2013-12-15T10:26:32Z</time>
      </trkpt>
      <trkpt lat="48.62716" lon="2.10255">
        <ele>101</ele>
        <time>2013-12-15T10:26:36Z</time>
      </trkpt>
      <trkpt lat="48.62717" lon="2.10247">
        <ele>101</ele>
        <time>2013-12-15T10:26:39Z</time>
      </trkpt>
      <trkpt lat="48.62717" lon="2.10243">
        <ele>99</ele>
        <time>2013-12-15T10:26:46Z</time>
      </trkpt>
      <trkpt lat="48.62719" lon="2.10235">
        <ele>98</ele>
        <time>2013-12-15T10:26:52Z</time>
      </trkpt>
      <trkpt lat="48.62717" lon="2.10227">
        <ele>97</ele>
        <time>2013-12-15T10:26:54Z</time>
      </trkpt>
      <trkpt lat="48.62715" lon="2.10221">
        <ele>97</ele>
        <time>2013-12-15T10:26:56Z</time>
      </trkpt>
      <trkpt lat="48.62717" lon="2.10213">
        <ele>97</ele>
        <time>2013-12-15T10:27:00Z</time>
      </trkpt>
      <trkpt lat="48.62721" lon="2.10209">
        <ele>96</ele>
        <time>2013-12-15T10:27:05Z</time>
      </trkpt>
      <trkpt lat="48.62719" lon="2.10206">
        <ele>96</ele>
        <time>2013-12-15T10:27:11Z</time>
      </trkpt>
      <trkpt lat="48.62722" lon="2.10202">
        <ele>97</ele>
        <time>2013-12-15T10:27:21Z</time>
      </trkpt>
      <trkpt lat="48.62724" lon="2.10195">
        <ele>97</ele>
        <time>2013-12-15T10:27:24Z</time>
      </trkpt>
      <trkpt lat="48.62727" lon="2.10186">
        <ele>97</ele>
        <time>2013-12-15T10:27:27Z</time>
      </trkpt>
      <trkpt lat="48.62732" lon="2.1018">
        <ele>97</ele>
        <time>2013-12-15T10:27:30Z</time>
      </trkpt>
      <trkpt lat="48.62735" lon="2.10175">
        <ele>97</ele>
        <time>2013-12-15T10:27:32Z</time>
      </trkpt>
      <trkpt lat="48.6274" lon="2.1017">
        <ele>97</ele>
        <time>2013-12-15T10:27:34Z</time>
      </trkpt>
      <trkpt lat="48.62745" lon="2.10164">
        <ele>97</ele>
        <time>2013-12-15T10:27:36Z</time>
      </trkpt>
      <trkpt lat="48.62748" lon="2.10159">
        <ele>97</ele>
        <time>2013-12-15T10:27:38Z</time>
      </trkpt>
      <trkpt lat="48.62751" lon="2.10153">
        <ele>97</ele>
        <time>2013-12-15T10:27:42Z</time>
      </trkpt>
      <trkpt lat="48.62754" lon="2.10147">
        <ele>99</ele>
        <time>2013-12-15T10:27:50Z</time>
      </trkpt>
      <trkpt lat="48.62754" lon="2.10139">
        <ele>99</ele>
        <time>2013-12-15T10:27:54Z</time>
      </trkpt>
      <trkpt lat="48.62752" lon="2.10132">
        <ele>99</ele>
        <time>2013-12-15T10:27:58Z</time>
      </trkpt>
      <trkpt lat="48.62748" lon="2.10126">
        <ele>100</ele>
        <time>2013-12-15T10:28:02Z</time>
      </trkpt>
      <trkpt lat="48.62746" lon="2.10118">
        <ele>100</ele>
        <time>2013-12-15T10:28:06Z</time>
      </trkpt>
      <trkpt lat="48.62747" lon="2.10111">
        <ele>100</ele>
        <time>2013-12-15T10:28:11Z</time>
      </trkpt>
      <trkpt lat="48.62751" lon="2.10105">
        <ele>100</ele>
        <time>2013-12-15T10:28:16Z</time>
      </trkpt>
      <trkpt lat="48.62753" lon="2.10099">
        <ele>100</ele>
        <time>2013-12-15T10:28:20Z</time>
      </trkpt>
      <trkpt lat="48.62755" lon="2.1009">
        <ele>100</ele>
        <time>2013-12-15T10:28:25Z</time>
      </trkpt>
      <trkpt lat="48.62753" lon="2.10081">
        <ele>100</ele>
        <time>2013-12-15T10:28:28Z</time>
      </trkpt>
      <trkpt lat="48.62752" lon="2.10073">
        <ele>99</ele>
        <time>2013-12-15T10:28:31Z</time>
      </trkpt>
      <trkpt lat="48.62752" lon="2.10065">
        <ele>99</ele>
        <time>2013-12-15T10:28:36Z</time>
      </trkpt>
      <trkpt lat="48.62755" lon="2.10059">
        <ele>100</ele>
        <time>2013-12-15T10:28:41Z</time>
      </trkpt>
      <trkpt lat="48.62758" lon="2.10054">
        <ele>101</ele>
        <time>2013-12-15T10:28:48Z</time>
      </trkpt>
      <trkpt lat="48.62763" lon="2.10051">
        <ele>103</ele>
        <time>2013-12-15T10:29:00Z</time>
      </trkpt>
      <trkpt lat="48.62767" lon="2.10045">
        <ele>104</ele>
        <time>2013-12-15T10:29:04Z</time>
      </trkpt>
      <trkpt lat="48.6277" lon="2.10042">
        <ele>105</ele>
        <time>2013-12-15T10:29:13Z</time>
      </trkpt>
      <trkpt lat="48.62773" lon="2.10045">
        <ele>106</ele>
        <time>2013-12-15T10:29:21Z</time>
      </trkpt>
      <trkpt lat="48.62773" lon="2.10053">
        <ele>107</ele>
        <time>2013-12-15T10:29:28Z</time>
      </trkpt>
      <trkpt lat="48.62774" lon="2.10057">
        <ele>110</ele>
        <time>2013-12-15T10:29:34Z</time>
      </trkpt>
      <trkpt lat="48.62777" lon="2.10062">
        <ele>112</ele>
        <time>2013-12-15T10:29:46Z</time>
      </trkpt>
      <trkpt lat="48.62782" lon="2.10061">
        <ele>112</ele>
        <time>2013-12-15T10:29:51Z</time>
      </trkpt>
      <trkpt lat="48.62787" lon="2.1006">
        <ele>113</ele>
        <time>2013-12-15T10:29:56Z</time>
      </trkpt>
      <trkpt lat="48.62792" lon="2.10065">
        <ele>113</ele>
        <time>2013-12-15T10:30:01Z</time>
      </trkpt>
      <trkpt lat="48.62797" lon="2.10065">
        <ele>114</ele>
        <time>2013-12-15T10:30:06Z</time>
      </trkpt>
      <trkpt lat="48.62802" lon="2.10063">
        <ele>114</ele>
        <time>2013-12-15T10:30:09Z</time>
      </trkpt>
      <trkpt lat="48.62808" lon="2.10063">
        <ele>114</ele>
        <time>2013-12-15T10:30:12Z</time>
      </trkpt>
      <trkpt lat="48.62813" lon="2.10062">
        <ele>114</ele>
        <time>2013-12-15T10:30:15Z</time>
      </trkpt>
      <trkpt lat="48.62817" lon="2.10066">
        <ele>114</ele>
        <time>2013-12-15T10:30:20Z</time>
      </trkpt>
      <trkpt lat="48.62822" lon="2.10069">
        <ele>115</ele>
        <time>2013-12-15T10:30:24Z</time>
      </trkpt>
      <trkpt lat="48.62826" lon="2.10072">
        <ele>115</ele>
        <time>2013-12-15T10:30:28Z</time>
      </trkpt>
      <trkpt lat="48.6283" lon="2.10077">
        <ele>115</ele>
        <time>2013-12-15T10:30:34Z</time>
      </trkpt>
      <trkpt lat="48.62835" lon="2.1008">
        <ele>116</ele>
        <time>2013-12-15T10:30:39Z</time>
      </trkpt>
      <trkpt lat="48.6284" lon="2.10077">
        <ele>116</ele>
        <time>2013-12-15T10:30:46Z</time>
      </trkpt>
      <trkpt lat="48.62841" lon="2.10086">
        <ele>117</ele>
        <time>2013-12-15T10:30:49Z</time>
      </trkpt>
      <trkpt lat="48.62841" lon="2.10094">
        <ele>117</ele>
        <time>2013-12-15T10:30:52Z</time>
      </trkpt>
      <trkpt lat="48.62843" lon="2.10101">
        <ele>117</ele>
        <time>2013-12-15T10:30:57Z</time>
      </trkpt>
      <trkpt lat="48.62846" lon="2.10106">
        <ele>116</ele>
        <time>2013-12-15T10:31:01Z</time>
      </trkpt>
      <trkpt lat="48.62847" lon="2.10113">
        <ele>116</ele>
        <time>2013-12-15T10:31:04Z</time>
      </trkpt>
      <trkpt lat="48.62851" lon="2.10125">
        <ele>116</ele>
        <time>2013-12-15T10:31:10Z</time>
      </trkpt>
      <trkpt lat="48.62852" lon="2.10133">
        <ele>117</ele>
        <time>2013-12-15T10:31:14Z</time>
      </trkpt>
      <trkpt lat="48.62853" lon="2.10145">
        <ele>119</ele>
        <time>2013-12-15T10:31:18Z</time>
      </trkpt>
      <trkpt lat="48.62855" lon="2.10152">
        <ele>118</ele>
        <time>2013-12-15T10:31:22Z</time>
      </trkpt>
      <trkpt lat="48.62859" lon="2.10156">
        <ele>116</ele>
        <time>2013-12-15T10:31:28Z</time>
      </trkpt>
      <trkpt lat="48.62865" lon="2.1016">
        <ele>116</ele>
        <time>2013-12-15T10:31:32Z</time>
      </trkpt>
      <trkpt lat="48.62868" lon="2.10166">
        <ele>115</ele>
        <time>2013-12-15T10:31:36Z</time>
      </trkpt>
      <trkpt lat="48.62872" lon="2.10172">
        <ele>114</ele>
        <time>2013-12-15T10:31:41Z</time>
      </trkpt>
      <trkpt lat="48.62874" lon="2.10178">
        <ele>113</ele>
        <time>2013-12-15T10:31:46Z</time>
      </trkpt>
      <trkpt lat="48.62876" lon="2.10185">
        <ele>112</ele>
        <time>2013-12-15T10:31:52Z</time>
      </trkpt>
      <trkpt lat="48.62876" lon="2.10192">
        <ele>113</ele>
        <time>2013-12-15T10:31:55Z</time>
      </trkpt>
      <trkpt lat="48.62875" lon="2.102">
        <ele>113</ele>
        <time>2013-12-15T10:31:58Z</time>
      </trkpt>
      <trkpt lat="48.62873" lon="2.10208">
        <ele>113</ele>
        <time>2013-12-15T10:32:02Z</time>
      </trkpt>
      <trkpt lat="48.62872" lon="2.10214">
        <ele>113</ele>
        <time>2013-12-15T10:32:05Z</time>
      </trkpt>
      <trkpt lat="48.62873" lon="2.10222">
        <ele>111</ele>
        <time>2013-12-15T10:32:10Z</time>
      </trkpt>
      <trkpt lat="48.62871" lon="2.1023">
        <ele>110</ele>
        <time>2013-12-15T10:32:13Z</time>
      </trkpt>
      <trkpt lat="48.62869" lon="2.10236">
        <ele>109</ele>
        <time>2013-12-15T10:32:16Z</time>
      </trkpt>
      <trkpt lat="48.62867" lon="2.10243">
        <ele>109</ele>
        <time>2013-12-15T10:32:20Z</time>
      </trkpt>
      <trkpt lat="48.62868" lon="2.10252">
        <ele>108</ele>
        <time>2013-12-15T10:32:23Z</time>
      </trkpt>
      <trkpt lat="48.62869" lon="2.1026">
        <ele>108</ele>
        <time>2013-12-15T10:32:26Z</time>
      </trkpt>
      <trkpt lat="48.6287" lon="2.10267">
        <ele>108</ele>
        <time>2013-12-15T10:32:29Z</time>
      </trkpt>
      <trkpt lat="48.62871" lon="2.10275">
        <ele>107</ele>
        <time>2013-12-15T10:32:32Z</time>
      </trkpt>
      <trkpt lat="48.62871" lon="2.10282">
        <ele>105</ele>
        <time>2013-12-15T10:32:35Z</time>
      </trkpt>
      <trkpt lat="48.62871" lon="2.1029">
        <ele>103</ele>
        <time>2013-12-15T10:32:39Z</time>
      </trkpt>
      <trkpt lat="48.62867" lon="2.10295">
        <ele>102</ele>
        <time>2013-12-15T10:32:43Z</time>
      </trkpt>
      <trkpt lat="48.62866" lon="2.10302">
        <ele>103</ele>
        <time>2013-12-15T10:32:47Z</time>
      </trkpt>
      <trkpt lat="48.62867" lon="2.10309">
        <ele>103</ele>
        <time>2013-12-15T10:32:50Z</time>
      </trkpt>
      <trkpt lat="48.62866" lon="2.10317">
        <ele>104</ele>
        <time>2013-12-15T10:32:53Z</time>
      </trkpt>
      <trkpt lat="48.62865" lon="2.10324">
        <ele>105</ele>
        <time>2013-12-15T10:32:56Z</time>
      </trkpt>
      <trkpt lat="48.62862" lon="2.10331">
        <ele>105</ele>
        <time>2013-12-15T10:33:00Z</time>
      </trkpt>
      <trkpt lat="48.62858" lon="2.10334">
        <ele>105</ele>
        <time>2013-12-15T10:33:04Z</time>
      </trkpt>
      <trkpt lat="48.62853" lon="2.1034">
        <ele>104</ele>
        <time>2013-12-15T10:33:08Z</time>
      </trkpt>
      <trkpt lat="48.62849" lon="2.10346">
        <ele>104</ele>
        <time>2013-12-15T10:33:12Z</time>
      </trkpt>
      <trkpt lat="48.62845" lon="2.10352">
        <ele>104</ele>
        <time>2013-12-15T10:33:16Z</time>
      </trkpt>
      <trkpt lat="48.62844" lon="2.1036">
        <ele>104</ele>
        <time>2013-12-15T10:33:20Z</time>
      </trkpt>
      <trkpt lat="48.62842" lon="2.10367">
        <ele>102</ele>
        <time>2013-12-15T10:33:24Z</time>
      </trkpt>
      <trkpt lat="48.6284" lon="2.10374">
        <ele>101</ele>
        <time>2013-12-15T10:33:28Z</time>
      </trkpt>
      <trkpt lat="48.62836" lon="2.10381">
        <ele>101</ele>
        <time>2013-12-15T10:33:32Z</time>
      </trkpt>
      <trkpt lat="48.62836" lon="2.10388">
        <ele>102</ele>
        <time>2013-12-15T10:33:35Z</time>
      </trkpt>
      <trkpt lat="48.62837" lon="2.10397">
        <ele>102</ele>
        <time>2013-12-15T10:33:39Z</time>
      </trkpt>
      <trkpt lat="48.62837" lon="2.10405">
        <ele>101</ele>
        <time>2013-12-15T10:33:43Z</time>
      </trkpt>
      <trkpt lat="48.62835" lon="2.10413">
        <ele>101</ele>
        <time>2013-12-15T10:33:47Z</time>
      </trkpt>
      <trkpt lat="48.62834" lon="2.1042">
        <ele>99</ele>
        <time>2013-12-15T10:33:52Z</time>
      </trkpt>
      <trkpt lat="48.62834" lon="2.10429">
        <ele>98</ele>
        <time>2013-12-15T10:33:56Z</time>
      </trkpt>
      <trkpt lat="48.62835" lon="2.10436">
        <ele>97</ele>
        <time>2013-12-15T10:33:59Z</time>
      </trkpt>
      <trkpt lat="48.62836" lon="2.10443">
        <ele>98</ele>
        <time>2013-12-15T10:34:03Z</time>
      </trkpt>
      <trkpt lat="48.62839" lon="2.1045">
        <ele>98</ele>
        <time>2013-12-15T10:34:07Z</time>
      </trkpt>
      <trkpt lat="48.62842" lon="2.10456">
        <ele>98</ele>
        <time>2013-12-15T10:34:11Z</time>
      </trkpt>
      <trkpt lat="48.62842" lon="2.10464">
        <ele>99</ele>
        <time>2013-12-15T10:34:15Z</time>
      </trkpt>
      <trkpt lat="48.6284" lon="2.10471">
        <ele>99</ele>
        <time>2013-12-15T10:34:18Z</time>
      </trkpt>
      <trkpt lat="48.62839" lon="2.10479">
        <ele>100</ele>
        <time>2013-12-15T10:34:22Z</time>
      </trkpt>
      <trkpt lat="48.62839" lon="2.10486">
        <ele>101</ele>
        <time>2013-12-15T10:34:26Z</time>
      </trkpt>
      <trkpt lat="48.6284" lon="2.10494">
        <ele>102</ele>
        <time>2013-12-15T10:34:29Z</time>
      </trkpt>
      <trkpt lat="48.62839" lon="2.10502">
        <ele>103</ele>
        <time>2013-12-15T10:34:32Z</time>
      </trkpt>
      <trkpt lat="48.62837" lon="2.10509">
        <ele>103</ele>
        <time>2013-12-15T10:34:36Z</time>
      </trkpt>
      <trkpt lat="48.62836" lon="2.10516">
        <ele>104</ele>
        <time>2013-12-15T10:34:40Z</time>
      </trkpt>
      <trkpt lat="48.62835" lon="2.10524">
        <ele>104</ele>
        <time>2013-12-15T10:34:43Z</time>
      </trkpt>
      <trkpt lat="48.62836" lon="2.10532">
        <ele>104</ele>
        <time>2013-12-15T10:34:46Z</time>
      </trkpt>
      <trkpt lat="48.62837" lon="2.10539">
        <ele>104</ele>
        <time>2013-12-15T10:34:49Z</time>
      </trkpt>
      <trkpt lat="48.62838" lon="2.10545">
        <ele>104</ele>
        <time>2013-12-15T10:34:53Z</time>
      </trkpt>
      <trkpt lat="48.6284" lon="2.10551">
        <ele>105</ele>
        <time>2013-12-15T10:34:56Z</time>
      </trkpt>
      <trkpt lat="48.62843" lon="2.10559">
        <ele>104</ele>
        <time>2013-12-15T10:34:59Z</time>
      </trkpt>
      <trkpt lat="48.62843" lon="2.10566">
        <ele>105</ele>
        <time>2013-12-15T10:35:02Z</time>
      </trkpt>
      <trkpt lat="48.62842" lon="2.10575">
        <ele>105</ele>
        <time>2013-12-15T10:35:06Z</time>
      </trkpt>
      <trkpt lat="48.62843" lon="2.10582">
        <ele>106</ele>
        <time>2013-12-15T10:35:09Z</time>
      </trkpt>
      <trkpt lat="48.62843" lon="2.10591">
        <ele>108</ele>
        <time>2013-12-15T10:35:14Z</time>
      </trkpt>
      <trkpt lat="48.62841" lon="2.10598">
        <ele>109</ele>
        <time>2013-12-15T10:35:18Z</time>
      </trkpt>
      <trkpt lat="48.6284" lon="2.10605">
        <ele>108</ele>
        <time>2013-12-15T10:35:22Z</time>
      </trkpt>
      <trkpt lat="48.6284" lon="2.10613">
        <ele>109</ele>
        <time>2013-12-15T10:35:26Z</time>
      </trkpt>
      <trkpt lat="48.6284" lon="2.1062">
        <ele>110</ele>
        <time>2013-12-15T10:35:29Z</time>
      </trkpt>
      <trkpt lat="48.62839" lon="2.10628">
        <ele>109</ele>
        <time>2013-12-15T10:35:34Z</time>
      </trkpt>
      <trkpt lat="48.62834" lon="2.1063">
        <ele>109</ele>
        <time>2013-12-15T10:35:37Z</time>
      </trkpt>
      <trkpt lat="48.62831" lon="2.10636">
        <ele>108</ele>
        <time>2013-12-15T10:35:40Z</time>
      </trkpt>
      <trkpt lat="48.62834" lon="2.10643">
        <ele>107</ele>
        <time>2013-12-15T10:35:43Z</time>
      </trkpt>
      <trkpt lat="48.62836" lon="2.1065">
        <ele>106</ele>
        <time>2013-12-15T10:35:46Z</time>
      </trkpt>
      <trkpt lat="48.62835" lon="2.10657">
        <ele>104</ele>
        <time>2013-12-15T10:35:49Z</time>
      </trkpt>
      <trkpt lat="48.62834" lon="2.10665">
        <ele>103</ele>
        <time>2013-12-15T10:35:54Z</time>
      </trkpt>
      <trkpt lat="48.62835" lon="2.10673">
        <ele>102</ele>
        <time>2013-12-15T10:35:58Z</time>
      </trkpt>
      <trkpt lat="48.62836" lon="2.10681">
        <ele>102</ele>
        <time>2013-12-15T10:36:01Z</time>
      </trkpt>
      <trkpt lat="48.62838" lon="2.10688">
        <ele>100</ele>
        <time>2013-12-15T10:36:04Z</time>
      </trkpt>
      <trkpt lat="48.62838" lon="2.10696">
        <ele>99</ele>
        <time>2013-12-15T10:36:08Z</time>
      </trkpt>
      <trkpt lat="48.6284" lon="2.10702">
        <ele>98</ele>
        <time>2013-12-15T10:36:12Z</time>
      </trkpt>
      <trkpt lat="48.62843" lon="2.10709">
        <ele>98</ele>
        <time>2013-12-15T10:36:16Z</time>
      </trkpt>
      <trkpt lat="48.62844" lon="2.10717">
        <ele>99</ele>
        <time>2013-12-15T10:36:19Z</time>
      </trkpt>
      <trkpt lat="48.62845" lon="2.10725">
        <ele>99</ele>
        <time>2013-12-15T10:36:22Z</time>
      </trkpt>
      <trkpt lat="48.62844" lon="2.10733">
        <ele>99</ele>
        <time>2013-12-15T10:36:25Z</time>
      </trkpt>
      <trkpt lat="48.62842" lon="2.10738">
        <ele>99</ele>
        <time>2013-12-15T10:36:29Z</time>
      </trkpt>
      <trkpt lat="48.62837" lon="2.10742">
        <ele>99</ele>
        <time>2013-12-15T10:36:32Z</time>
      </trkpt>
      <trkpt lat="48.62833" lon="2.10747">
        <ele>99</ele>
        <time>2013-12-15T10:36:35Z</time>
      </trkpt>
      <trkpt lat="48.62832" lon="2.10755">
        <ele>98</ele>
        <time>2013-12-15T10:36:39Z</time>
      </trkpt>
      <trkpt lat="48.62831" lon="2.10761">
        <ele>97</ele>
        <time>2013-12-15T10:36:42Z</time>
      </trkpt>
      <trkpt lat="48.62831" lon="2.10769">
        <ele>98</ele>
        <time>2013-12-15T10:36:45Z</time>
      </trkpt>
      <trkpt lat="48.62833" lon="2.10777">
        <ele>98</ele>
        <time>2013-12-15T10:36:48Z</time>
      </trkpt>
      <trkpt lat="48.62833" lon="2.10784">
        <ele>99</ele>
        <time>2013-12-15T10:36:51Z</time>
      </trkpt>
      <trkpt lat="48.62832" lon="2.10792">
        <ele>99</ele>
        <time>2013-12-15T10:36:55Z</time>
      </trkpt>
      <trkpt lat="48.62831" lon="2.108">
        <ele>99</ele>
        <time>2013-12-15T10:36:59Z</time>
      </trkpt>
      <trkpt lat="48.6283" lon="2.10807">
        <ele>99</ele>
        <time>2013-12-15T10:37:03Z</time>
      </trkpt>
      <trkpt lat="48.62827" lon="2.10815">
        <ele>99</ele>
        <time>2013-12-15T10:37:07Z</time>
      </trkpt>
      <trkpt lat="48.62826" lon="2.10823">
        <ele>99</ele>
        <time>2013-12-15T10:37:11Z</time>
      </trkpt>
      <trkpt lat="48.62825" lon="2.10829">
        <ele>99</ele>
        <time>2013-12-15T10:37:15Z</time>
      </trkpt>
      <trkpt lat="48.62823" lon="2.10837">
        <ele>100</ele>
        <time>2013-12-15T10:37:19Z</time>
      </trkpt>
      <trkpt lat="48.62822" lon="2.10844">
        <ele>100</ele>
        <time>2013-12-15T10:37:23Z</time>
      </trkpt>
      <trkpt lat="48.62821" lon="2.10852">
        <ele>100</ele>
        <time>2013-12-15T10:37:26Z</time>
      </trkpt>
      <trkpt lat="48.6282" lon="2.1086">
        <ele>100</ele>
        <time>2013-12-15T10:37:29Z</time>
      </trkpt>
      <trkpt lat="48.62822" lon="2.10867">
        <ele>101</ele>
        <time>2013-12-15T10:37:33Z</time>
      </trkpt>
      <trkpt lat="48.62821" lon="2.10874">
        <ele>101</ele>
        <time>2013-12-15T10:37:38Z</time>
      </trkpt>
      <trkpt lat="48.62818" lon="2.1088">
        <ele>102</ele>
        <time>2013-12-15T10:37:42Z</time>
      </trkpt>
      <trkpt lat="48.62818" lon="2.10889">
        <ele>101</ele>
        <time>2013-12-15T10:37:47Z</time>
      </trkpt>
      <trkpt lat="48.6282" lon="2.10896">
        <ele>102</ele>
        <time>2013-12-15T10:37:51Z</time>
      </trkpt>
      <trkpt lat="48.62822" lon="2.10902">
        <ele>101</ele>
        <time>2013-12-15T10:37:56Z</time>
      </trkpt>
      <trkpt lat="48.6282" lon="2.10909">
        <ele>98</ele>
        <time>2013-12-15T10:38:01Z</time>
      </trkpt>
      <trkpt lat="48.62819" lon="2.10915">
        <ele>97</ele>
        <time>2013-12-15T10:38:05Z</time>
      </trkpt>
      <trkpt lat="48.62818" lon="2.10922">
        <ele>96</ele>
        <time>2013-12-15T10:38:08Z</time>
      </trkpt>
      <trkpt lat="48.62819" lon="2.1093">
        <ele>95</ele>
        <time>2013-12-15T10:38:11Z</time>
      </trkpt>
      <trkpt lat="48.62819" lon="2.10937">
        <ele>95</ele>
        <time>2013-12-15T10:38:14Z</time>
      </trkpt>
      <trkpt lat="48.62816" lon="2.10943">
        <ele>95</ele>
        <time>2013-12-15T10:38:17Z</time>
      </trkpt>
      <trkpt lat="48.62813" lon="2.10949">
        <ele>95</ele>
        <time>2013-12-15T10:38:20Z</time>
      </trkpt>
      <trkpt lat="48.62809" lon="2.10954">
        <ele>95</ele>
        <time>2013-12-15T10:38:23Z</time>
      </trkpt>
      <trkpt lat="48.62805" lon="2.1096">
        <ele>96</ele>
        <time>2013-12-15T10:38:26Z</time>
      </trkpt>
      <trkpt lat="48.62806" lon="2.10968">
        <ele>96</ele>
        <time>2013-12-15T10:38:30Z</time>
      </trkpt>
      <trkpt lat="48.62809" lon="2.10974">
        <ele>95</ele>
        <time>2013-12-15T10:38:32Z</time>
      </trkpt>
      <trkpt lat="48.62808" lon="2.10982">
        <ele>95</ele>
        <time>2013-12-15T10:38:36Z</time>
      </trkpt>
      <trkpt lat="48.62805" lon="2.10988">
        <ele>94</ele>
        <time>2013-12-15T10:38:40Z</time>
      </trkpt>
      <trkpt lat="48.62803" lon="2.10995">
        <ele>94</ele>
        <time>2013-12-15T10:38:43Z</time>
      </trkpt>
      <trkpt lat="48.62801" lon="2.11002">
        <ele>93</ele>
        <time>2013-12-15T10:38:46Z</time>
      </trkpt>
      <trkpt lat="48.62805" lon="2.1101">
        <ele>93</ele>
        <time>2013-12-15T10:38:49Z</time>
      </trkpt>
      <trkpt lat="48.62807" lon="2.11017">
        <ele>92</ele>
        <time>2013-12-15T10:38:52Z</time>
      </trkpt>
      <trkpt lat="48.62805" lon="2.11023">
        <ele>92</ele>
        <time>2013-12-15T10:38:56Z</time>
      </trkpt>
      <trkpt lat="48.62801" lon="2.11028">
        <ele>91</ele>
        <time>2013-12-15T10:38:59Z</time>
      </trkpt>
      <trkpt lat="48.62798" lon="2.11034">
        <ele>91</ele>
        <time>2013-12-15T10:39:03Z</time>
      </trkpt>
      <trkpt lat="48.62797" lon="2.11042">
        <ele>91</ele>
        <time>2013-12-15T10:39:08Z</time>
      </trkpt>
      <trkpt lat="48.62796" lon="2.1105">
        <ele>91</ele>
        <time>2013-12-15T10:39:13Z</time>
      </trkpt>
      <trkpt lat="48.62795" lon="2.11057">
        <ele>90</ele>
        <time>2013-12-15T10:39:18Z</time>
      </trkpt>
      <trkpt lat="48.62799" lon="2.11062">
        <ele>89</ele>
        <time>2013-12-15T10:39:20Z</time>
      </trkpt>
      <trkpt lat="48.62802" lon="2.1107">
        <ele>87</ele>
        <time>2013-12-15T10:39:23Z</time>
      </trkpt>
      <trkpt lat="48.628" lon="2.11078">
        <ele>88</ele>
        <time>2013-12-15T10:39:26Z</time>
      </trkpt>
      <trkpt lat="48.62798" lon="2.11085">
        <ele>90</ele>
        <time>2013-12-15T10:39:30Z</time>
      </trkpt>
      <trkpt lat="48.62797" lon="2.11092">
        <ele>90</ele>
        <time>2013-12-15T10:39:33Z</time>
      </trkpt>
      <trkpt lat="48.62795" lon="2.11098">
        <ele>92</ele>
        <time>2013-12-15T10:39:36Z</time>
      </trkpt>
      <trkpt lat="48.62792" lon="2.11105">
        <ele>92</ele>
        <time>2013-12-15T10:39:40Z</time>
      </trkpt>
      <trkpt lat="48.62789" lon="2.11115">
        <ele>92</ele>
        <time>2013-12-15T10:39:45Z</time>
      </trkpt>
      <trkpt lat="48.62788" lon="2.11123">
        <ele>92</ele>
        <time>2013-12-15T10:39:48Z</time>
      </trkpt>
      <trkpt lat="48.62784" lon="2.1113">
        <ele>92</ele>
        <time>2013-12-15T10:39:52Z</time>
      </trkpt>
      <trkpt lat="48.62782" lon="2.11136">
        <ele>91</ele>
        <time>2013-12-15T10:39:55Z</time>
      </trkpt>
      <trkpt lat="48.62779" lon="2.11142">
        <ele>91</ele>
        <time>2013-12-15T10:39:59Z</time>
      </trkpt>
      <trkpt lat="48.62774" lon="2.11147">
        <ele>91</ele>
        <time>2013-12-15T10:40:02Z</time>
      </trkpt>
      <trkpt lat="48.6277" lon="2.11153">
        <ele>91</ele>
        <time>2013-12-15T10:40:05Z</time>
      </trkpt>
      <trkpt lat="48.62774" lon="2.11159">
        <ele>90</ele>
        <time>2013-12-15T10:40:09Z</time>
      </trkpt>
      <trkpt lat="48.62772" lon="2.11166">
        <ele>89</ele>
        <time>2013-12-15T10:40:14Z</time>
      </trkpt>
      <trkpt lat="48.62769" lon="2.11173">
        <ele>89</ele>
        <time>2013-12-15T10:40:18Z</time>
      </trkpt>
      <trkpt lat="48.62767" lon="2.1118">
        <ele>90</ele>
        <time>2013-12-15T10:40:23Z</time>
      </trkpt>
      <trkpt lat="48.62769" lon="2.11188">
        <ele>90</ele>
        <time>2013-12-15T10:40:28Z</time>
      </trkpt>
      <trkpt lat="48.62767" lon="2.11194">
        <ele>91</ele>
        <time>2013-12-15T10:40:49Z</time>
      </trkpt>
      <trkpt lat="48.62773" lon="2.11196">
        <ele>92</ele>
        <time>2013-12-15T10:40:53Z</time>
      </trkpt>
      <trkpt lat="48.62778" lon="2.11194">
        <ele>94</ele>
        <time>2013-12-15T10:40:59Z</time>
      </trkpt>
      <trkpt lat="48.62782" lon="2.11197">
        <ele>95</ele>
        <time>2013-12-15T10:41:05Z</time>
      </trkpt>
      <trkpt lat="48.62787" lon="2.11198">
        <ele>94</ele>
        <time>2013-12-15T10:41:08Z</time>
      </trkpt>
      <trkpt lat="48.62792" lon="2.11199">
        <ele>94</ele>
        <time>2013-12-15T10:41:11Z</time>
      </trkpt>
      <trkpt lat="48.62796" lon="2.11202">
        <ele>95</ele>
        <time>2013-12-15T10:41:15Z</time>
      </trkpt>
      <trkpt lat="48.62801" lon="2.11207">
        <ele>95</ele>
        <time>2013-12-15T10:41:19Z</time>
      </trkpt>
      <trkpt lat="48.62807" lon="2.11209">
        <ele>96</ele>
        <time>2013-12-15T10:41:23Z</time>
      </trkpt>
      <trkpt lat="48.62811" lon="2.11213">
        <ele>97</ele>
        <time>2013-12-15T10:41:28Z</time>
      </trkpt>
      <trkpt lat="48.62815" lon="2.11217">
        <ele>97</ele>
        <time>2013-12-15T10:41:33Z</time>
      </trkpt>
      <trkpt lat="48.62819" lon="2.1122">
        <ele>98</ele>
        <time>2013-12-15T10:41:37Z</time>
      </trkpt>
      <trkpt lat="48.62824" lon="2.11225">
        <ele>99</ele>
        <time>2013-12-15T10:41:41Z</time>
      </trkpt>
      <trkpt lat="48.62829" lon="2.11231">
        <ele>99</ele>
        <time>2013-12-15T10:41:44Z</time>
      </trkpt>
      <trkpt lat="48.62834" lon="2.11234">
        <ele>99</ele>
        <time>2013-12-15T10:41:47Z</time>
      </trkpt>
      <trkpt lat="48.6284" lon="2.11238">
        <ele>99</ele>
        <time>2013-12-15T10:41:50Z</time>
      </trkpt>
      <trkpt lat="48.62845" lon="2.11241">
        <ele>99</ele>
        <time>2013-12-15T10:41:52Z</time>
      </trkpt>
      <trkpt lat="48.6285" lon="2.11241">
        <ele>99</ele>
        <time>2013-12-15T10:41:55Z</time>
      </trkpt>
      <trkpt lat="48.62854" lon="2.1124">
        <ele>99</ele>
        <time>2013-12-15T10:42:02Z</time>
      </trkpt>
      <trkpt lat="48.62854" lon="2.11247">
        <ele>100</ele>
        <time>2013-12-15T10:42:08Z</time>
      </trkpt>
      <trkpt lat="48.62857" lon="2.11254">
        <ele>100</ele>
        <time>2013-12-15T10:42:13Z</time>
      </trkpt>
      <trkpt lat="48.62862" lon="2.11258">
        <ele>101</ele>
        <time>2013-12-15T10:42:18Z</time>
      </trkpt>
      <trkpt lat="48.62867" lon="2.11262">
        <ele>101</ele>
        <time>2013-12-15T10:42:22Z</time>
      </trkpt>
      <trkpt lat="48.62872" lon="2.11266">
        <ele>101</ele>
        <time>2013-12-15T10:42:26Z</time>
      </trkpt>
      <trkpt lat="48.62876" lon="2.1127">
        <ele>101</ele>
        <time>2013-12-15T10:42:29Z</time>
      </trkpt>
      <trkpt lat="48.6288" lon="2.11276">
        <ele>101</ele>
        <time>2013-12-15T10:42:31Z</time>
      </trkpt>
      <trkpt lat="48.62884" lon="2.11282">
        <ele>101</ele>
        <time>2013-12-15T10:42:34Z</time>
      </trkpt>
      <trkpt lat="48.62888" lon="2.11287">
        <ele>100</ele>
        <time>2013-12-15T10:42:37Z</time>
      </trkpt>
      <trkpt lat="48.62892" lon="2.11292">
        <ele>99</ele>
        <time>2013-12-15T10:42:42Z</time>
      </trkpt>
      <trkpt lat="48.62896" lon="2.11295">
        <ele>99</ele>
        <time>2013-12-15T10:42:47Z</time>
      </trkpt>
      <trkpt lat="48.62901" lon="2.11298">
        <ele>98</ele>
        <time>2013-12-15T10:42:51Z</time>
      </trkpt>
      <trkpt lat="48.62906" lon="2.113">
        <ele>98</ele>
        <time>2013-12-15T10:42:55Z</time>
      </trkpt>
      <trkpt lat="48.6291" lon="2.11306">
        <ele>98</ele>
        <time>2013-12-15T10:42:59Z</time>
      </trkpt>
      <trkpt lat="48.62913" lon="2.11311">
        <ele>97</ele>
        <time>2013-12-15T10:43:04Z</time>
      </trkpt>
      <trkpt lat="48.62918" lon="2.11315">
        <ele>98</ele>
        <time>2013-12-15T10:43:08Z</time>
      </trkpt>
      <trkpt lat="48.62922" lon="2.11322">
        <ele>98</ele>
        <time>2013-12-15T10:43:12Z</time>
      </trkpt>
      <trkpt lat="48.62925" lon="2.11327">
        <ele>99</ele>
        <time>2013-12-15T10:43:15Z</time>
      </trkpt>
      <trkpt lat="48.62929" lon="2.11334">
        <ele>98</ele>
        <time>2013-12-15T10:43:19Z</time>
      </trkpt>
      <trkpt lat="48.62932" lon="2.1134">
        <ele>98</ele>
        <time>2013-12-15T10:43:23Z</time>
      </trkpt>
      <trkpt lat="48.62935" lon="2.11345">
        <ele>97</ele>
        <time>2013-12-15T10:43:27Z</time>
      </trkpt>
      <trkpt lat="48.62937" lon="2.11353">
        <ele>97</ele>
        <time>2013-12-15T10:43:32Z</time>
      </trkpt>
      <trkpt lat="48.62942" lon="2.11359">
        <ele>98</ele>
        <time>2013-12-15T10:43:36Z</time>
      </trkpt>
      <trkpt lat="48.62946" lon="2.11363">
        <ele>100</ele>
        <time>2013-12-15T10:43:39Z</time>
      </trkpt>
      <trkpt lat="48.62951" lon="2.11367">
        <ele>101</ele>
        <time>2013-12-15T10:43:43Z</time>
      </trkpt>
      <trkpt lat="48.62956" lon="2.1137">
        <ele>102</ele>
        <time>2013-12-15T10:43:47Z</time>
      </trkpt>
      <trkpt lat="48.6296" lon="2.11374">
        <ele>101</ele>
        <time>2013-12-15T10:43:53Z</time>
      </trkpt>
      <trkpt lat="48.62965" lon="2.1138">
        <ele>101</ele>
        <time>2013-12-15T10:43:57Z</time>
      </trkpt>
      <trkpt lat="48.62969" lon="2.11386">
        <ele>101</ele>
        <time>2013-12-15T10:44:00Z</time>
      </trkpt>
      <trkpt lat="48.62975" lon="2.11391">
        <ele>101</ele>
        <time>2013-12-15T10:44:03Z</time>
      </trkpt>
      <trkpt lat="48.62979" lon="2.11394">
        <ele>102</ele>
        <time>2013-12-15T10:44:06Z</time>
      </trkpt>
      <trkpt lat="48.62983" lon="2.11401">
        <ele>102</ele>
        <time>2013-12-15T10:44:13Z</time>
      </trkpt>
      <trkpt lat="48.62984" lon="2.11409">
        <ele>102</ele>
        <time>2013-12-15T10:44:16Z</time>
      </trkpt>
      <trkpt lat="48.62985" lon="2.11416">
        <ele>101</ele>
        <time>2013-12-15T10:44:19Z</time>
      </trkpt>
      <trkpt lat="48.62989" lon="2.11422">
        <ele>101</ele>
        <time>2013-12-15T10:44:22Z</time>
      </trkpt>
      <trkpt lat="48.62991" lon="2.11431">
        <ele>101</ele>
        <time>2013-12-15T10:44:25Z</time>
      </trkpt>
      <trkpt lat="48.62994" lon="2.11436">
        <ele>102</ele>
        <time>2013-12-15T10:44:30Z</time>
      </trkpt>
      <trkpt lat="48.62997" lon="2.11441">
        <ele>102</ele>
        <time>2013-12-15T10:44:34Z</time>
      </trkpt>
      <trkpt lat="48.63" lon="2.11449">
        <ele>102</ele>
        <time>2013-12-15T10:44:38Z</time>
      </trkpt>
      <trkpt lat="48.63004" lon="2.11455">
        <ele>102</ele>
        <time>2013-12-15T10:44:42Z</time>
      </trkpt>
      <trkpt lat="48.63009" lon="2.11458">
        <ele>103</ele>
        <time>2013-12-15T10:44:46Z</time>
      </trkpt>
      <trkpt lat="48.63013" lon="2.11462">
        <ele>104</ele>
        <time>2013-12-15T10:44:50Z</time>
      </trkpt>
      <trkpt lat="48.63017" lon="2.11467">
        <ele>104</ele>
        <time>2013-12-15T10:44:54Z</time>
      </trkpt>
      <trkpt lat="48.63018" lon="2.11474">
        <ele>102</ele>
        <time>2013-12-15T10:44:59Z</time>
      </trkpt>
      <trkpt lat="48.63019" lon="2.11482">
        <ele>101</ele>
        <time>2013-12-15T10:45:05Z</time>
      </trkpt>
      <trkpt lat="48.63023" lon="2.11488">
        <ele>99</ele>
        <time>2013-12-15T10:45:09Z</time>
      </trkpt>
      <trkpt lat="48.63027" lon="2.11494">
        <ele>98</ele>
        <time>2013-12-15T10:45:13Z</time>
      </trkpt>
      <trkpt lat="48.6303" lon="2.115">
        <ele>96</ele>
        <time>2013-12-15T10:45:18Z</time>
      </trkpt>
      <trkpt lat="48.6303" lon="2.11508">
        <ele>96</ele>
        <time>2013-12-15T10:45:22Z</time>
      </trkpt>
      <trkpt lat="48.63033" lon="2.11515">
        <ele>96</ele>
        <time>2013-12-15T10:45:25Z</time>
      </trkpt>
      <trkpt lat="48.63037" lon="2.11522">
        <ele>96</ele>
        <time>2013-12-15T10:45:28Z</time>
      </trkpt>
      <trkpt lat="48.63039" lon="2.11528">
        <ele>95</ele>
        <time>2013-12-15T10:45:32Z</time>
      </trkpt>
      <trkpt lat="48.63041" lon="2.11529">
        <ele>92</ele>
        <time>2013-12-15T10:45:55Z</time>
      </trkpt>
      <trkpt lat="48.63042" lon="2.11536">
        <ele>92</ele>
        <time>2013-12-15T10:45:57Z</time>
      </trkpt>
      <trkpt lat="48.63043" lon="2.11544">
        <ele>93</ele>
        <time>2013-12-15T10:46:01Z</time>
      </trkpt>
      <trkpt lat="48.63042" lon="2.1155">
        <ele>98</ele>
        <time>2013-12-15T10:46:06Z</time>
      </trkpt>
      <trkpt lat="48.63046" lon="2.11556">
        <ele>100</ele>
        <time>2013-12-15T10:46:11Z</time>
      </trkpt>
      <trkpt lat="48.63049" lon="2.11562">
        <ele>102</ele>
        <time>2013-12-15T10:46:15Z</time>
      </trkpt>
      <trkpt lat="48.63052" lon="2.11568">
        <ele>102</ele>
        <time>2013-12-15T10:46:19Z</time>
      </trkpt>
      <trkpt lat="48.63055" lon="2.11574">
        <ele>103</ele>
        <time>2013-12-15T10:46:22Z</time>
      </trkpt>
      <trkpt lat="48.63058" lon="2.11578">
        <ele>104</ele>
        <time>2013-12-15T10:46:25Z</time>
      </trkpt>
      <trkpt lat="48.63063" lon="2.11583">
        <ele>104</ele>
        <time>2013-12-15T10:46:28Z</time>
      </trkpt>
      <trkpt lat="48.63066" lon="2.11588">
        <ele>103</ele>
        <time>2013-12-15T10:46:32Z</time>
      </trkpt>
      <trkpt lat="48.63067" lon="2.11596">
        <ele>102</ele>
        <time>2013-12-15T10:46:36Z</time>
      </trkpt>
      <trkpt lat="48.63068" lon="2.11605">
        <ele>103</ele>
        <time>2013-12-15T10:46:40Z</time>
      </trkpt>
      <trkpt lat="48.63068" lon="2.11612">
        <ele>103</ele>
        <time>2013-12-15T10:46:43Z</time>
      </trkpt>
      <trkpt lat="48.63068" lon="2.11619">
        <ele>104</ele>
        <time>2013-12-15T10:46:47Z</time>
      </trkpt>
      <trkpt lat="48.63068" lon="2.11627">
        <ele>104</ele>
        <time>2013-12-15T10:46:52Z</time>
      </trkpt>
      <trkpt lat="48.63071" lon="2.11633">
        <ele>104</ele>
        <time>2013-12-15T10:46:55Z</time>
      </trkpt>
      <trkpt lat="48.63076" lon="2.11638">
        <ele>103</ele>
        <time>2013-12-15T10:46:59Z</time>
      </trkpt>
      <trkpt lat="48.6308" lon="2.11644">
        <ele>103</ele>
        <time>2013-12-15T10:47:03Z</time>
      </trkpt>
      <trkpt lat="48.63086" lon="2.11648">
        <ele>101</ele>
        <time>2013-12-15T10:47:06Z</time>
      </trkpt>
      <trkpt lat="48.63091" lon="2.11649">
        <ele>99</ele>
        <time>2013-12-15T10:47:08Z</time>
      </trkpt>
      <trkpt lat="48.63096" lon="2.11651">
        <ele>98</ele>
        <time>2013-12-15T10:47:11Z</time>
      </trkpt>
      <trkpt lat="48.63098" lon="2.11654">
        <ele>97</ele>
        <time>2013-12-15T10:47:13Z</time>
      </trkpt>
      <trkpt lat="48.631" lon="2.11657">
        <ele>96</ele>
        <time>2013-12-15T10:47:15Z</time>
      </trkpt>
      <trkpt lat="48.63106" lon="2.11657">
        <ele>95</ele>
        <time>2013-12-15T10:47:21Z</time>
      </trkpt>
      <trkpt lat="48.6311" lon="2.11661">
        <ele>95</ele>
        <time>2013-12-15T10:47:26Z</time>
      </trkpt>
      <trkpt lat="48.63113" lon="2.11668">
        <ele>97</ele>
        <time>2013-12-15T10:47:30Z</time>
      </trkpt>
      <trkpt lat="48.63117" lon="2.11674">
        <ele>98</ele>
        <time>2013-12-15T10:47:33Z</time>
      </trkpt>
      <trkpt lat="48.63122" lon="2.11678">
        <ele>99</ele>
        <time>2013-12-15T10:47:36Z</time>
      </trkpt>
      <trkpt lat="48.63127" lon="2.11678">
        <ele>99</ele>
        <time>2013-12-15T10:47:40Z</time>
      </trkpt>
      <trkpt lat="48.63132" lon="2.11678">
        <ele>99</ele>
        <time>2013-12-15T10:47:44Z</time>
      </trkpt>
      <trkpt lat="48.63136" lon="2.11677">
        <ele>99</ele>
        <time>2013-12-15T10:47:48Z</time>
      </trkpt>
      <trkpt lat="48.63141" lon="2.11682">
        <ele>99</ele>
        <time>2013-12-15T10:47:52Z</time>
      </trkpt>
      <trkpt lat="48.63147" lon="2.11683">
        <ele>101</ele>
        <time>2013-12-15T10:47:57Z</time>
      </trkpt>
      <trkpt lat="48.63151" lon="2.1168">
        <ele>100</ele>
        <time>2013-12-15T10:48:00Z</time>
      </trkpt>
      <trkpt lat="48.63155" lon="2.11678">
        <ele>100</ele>
        <time>2013-12-15T10:48:03Z</time>
      </trkpt>
      <trkpt lat="48.6316" lon="2.11682">
        <ele>101</ele>
        <time>2013-12-15T10:48:08Z</time>
      </trkpt>
      <trkpt lat="48.63164" lon="2.11688">
        <ele>104</ele>
        <time>2013-12-15T10:48:12Z</time>
      </trkpt>
      <trkpt lat="48.63169" lon="2.11689">
        <ele>104</ele>
        <time>2013-12-15T10:48:15Z</time>
      </trkpt>
      <trkpt lat="48.63174" lon="2.11693">
        <ele>105</ele>
        <time>2013-12-15T10:48:19Z</time>
      </trkpt>
      <trkpt lat="48.63179" lon="2.11695">
        <ele>105</ele>
        <time>2013-12-15T10:48:23Z</time>
      </trkpt>
      <trkpt lat="48.63183" lon="2.11697">
        <ele>105</ele>
        <time>2013-12-15T10:48:26Z</time>
      </trkpt>
      <trkpt lat="48.63188" lon="2.117">
        <ele>105</ele>
        <time>2013-12-15T10:48:29Z</time>
      </trkpt>
      <trkpt lat="48.63192" lon="2.11701">
        <ele>105</ele>
        <time>2013-12-15T10:48:32Z</time>
      </trkpt>
      <trkpt lat="48.63197" lon="2.117">
        <ele>105</ele>
        <time>2013-12-15T10:48:36Z</time>
      </trkpt>
      <trkpt lat="48.63202" lon="2.11701">
        <ele>105</ele>
        <time>2013-12-15T10:48:41Z</time>
      </trkpt>
      <trkpt lat="48.63207" lon="2.117">
        <ele>106</ele>
        <time>2013-12-15T10:48:45Z</time>
      </trkpt>
      <trkpt lat="48.63212" lon="2.11698">
        <ele>106</ele>
        <time>2013-12-15T10:48:48Z</time>
      </trkpt>
      <trkpt lat="48.63216" lon="2.11695">
        <ele>106</ele>
        <time>2013-12-15T10:48:51Z</time>
      </trkpt>
      <trkpt lat="48.63221" lon="2.11692">
        <ele>106</ele>
        <time>2013-12-15T10:48:54Z</time>
      </trkpt>
      <trkpt lat="48.63225" lon="2.1169">
        <ele>107</ele>
        <time>2013-12-15T10:48:58Z</time>
      </trkpt>
      <trkpt lat="48.63231" lon="2.1169">
        <ele>107</ele>
        <time>2013-12-15T10:49:03Z</time>
      </trkpt>
      <trkpt lat="48.63236" lon="2.1169">
        <ele>108</ele>
        <time>2013-12-15T10:49:09Z</time>
      </trkpt>
      <trkpt lat="48.63242" lon="2.11691">
        <ele>108</ele>
        <time>2013-12-15T10:49:13Z</time>
      </trkpt>
      <trkpt lat="48.63246" lon="2.11691">
        <ele>108</ele>
        <time>2013-12-15T10:49:16Z</time>
      </trkpt>
      <trkpt lat="48.63251" lon="2.11692">
        <ele>108</ele>
        <time>2013-12-15T10:49:19Z</time>
      </trkpt>
      <trkpt lat="48.63256" lon="2.11693">
        <ele>108</ele>
        <time>2013-12-15T10:49:22Z</time>
      </trkpt>
      <trkpt lat="48.63261" lon="2.11694">
        <ele>108</ele>
        <time>2013-12-15T10:49:25Z</time>
      </trkpt>
      <trkpt lat="48.63266" lon="2.11695">
        <ele>109</ele>
        <time>2013-12-15T10:49:28Z</time>
      </trkpt>
      <trkpt lat="48.63271" lon="2.11693">
        <ele>110</ele>
        <time>2013-12-15T10:49:31Z</time>
      </trkpt>
      <trkpt lat="48.63277" lon="2.11693">
        <ele>110</ele>
        <time>2013-12-15T10:49:35Z</time>
      </trkpt>
      <trkpt lat="48.63281" lon="2.11696">
        <ele>111</ele>
        <time>2013-12-15T10:49:39Z</time>
      </trkpt>
      <trkpt lat="48.63286" lon="2.11698">
        <ele>112</ele>
        <time>2013-12-15T10:49:46Z</time>
      </trkpt>
      <trkpt lat="48.63291" lon="2.11701">
        <ele>112</ele>
        <time>2013-12-15T10:49:49Z</time>
      </trkpt>
      <trkpt lat="48.63301" lon="2.11698">
        <ele>112</ele>
        <time>2013-12-15T10:49:54Z</time>
      </trkpt>
      <trkpt lat="48.63305" lon="2.11697">
        <ele>112</ele>
        <time>2013-12-15T10:49:59Z</time>
      </trkpt>
      <trkpt lat="48.63309" lon="2.117">
        <ele>112</ele>
        <time>2013-12-15T10:50:04Z</time>
      </trkpt>
      <trkpt lat="48.63314" lon="2.11705">
        <ele>111</ele>
        <time>2013-12-15T10:50:08Z</time>
      </trkpt>
      <trkpt lat="48.63319" lon="2.11709">
        <ele>111</ele>
        <time>2013-12-15T10:50:12Z</time>
      </trkpt>
      <trkpt lat="48.63323" lon="2.11712">
        <ele>111</ele>
        <time>2013-12-15T10:50:16Z</time>
      </trkpt>
      <trkpt lat="48.63328" lon="2.11715">
        <ele>111</ele>
        <time>2013-12-15T10:50:20Z</time>
      </trkpt>
      <trkpt lat="48.63333" lon="2.11716">
        <ele>110</ele>
        <time>2013-12-15T10:50:24Z</time>
      </trkpt>
      <trkpt lat="48.63338" lon="2.11719">
        <ele>110</ele>
        <time>2013-12-15T10:50:28Z</time>
      </trkpt>
      <trkpt lat="48.63344" lon="2.11718">
        <ele>110</ele>
        <time>2013-12-15T10:50:32Z</time>
      </trkpt>
      <trkpt lat="48.63349" lon="2.11717">
        <ele>110</ele>
        <time>2013-12-15T10:50:35Z</time>
      </trkpt>
      <trkpt lat="48.63354" lon="2.11716">
        <ele>110</ele>
        <time>2013-12-15T10:50:39Z</time>
      </trkpt>
      <trkpt lat="48.6336" lon="2.11717">
        <ele>110</ele>
        <time>2013-12-15T10:50:43Z</time>
      </trkpt>
      <trkpt lat="48.63366" lon="2.11716">
        <ele>111</ele>
        <time>2013-12-15T10:50:47Z</time>
      </trkpt>
      <trkpt lat="48.6337" lon="2.11716">
        <ele>111</ele>
        <time>2013-12-15T10:50:50Z</time>
      </trkpt>
      <trkpt lat="48.63375" lon="2.11716">
        <ele>111</ele>
        <time>2013-12-15T10:50:54Z</time>
      </trkpt>
      <trkpt lat="48.6338" lon="2.11718">
        <ele>111</ele>
        <time>2013-12-15T10:50:58Z</time>
      </trkpt>
      <trkpt lat="48.63385" lon="2.11721">
        <ele>111</ele>
        <time>2013-12-15T10:51:01Z</time>
      </trkpt>
      <trkpt lat="48.63391" lon="2.11724">
        <ele>111</ele>
        <time>2013-12-15T10:51:05Z</time>
      </trkpt>
      <trkpt lat="48.63396" lon="2.11725">
        <ele>111</ele>
        <time>2013-12-15T10:51:08Z</time>
      </trkpt>
      <trkpt lat="48.63401" lon="2.11726">
        <ele>110</ele>
        <time>2013-12-15T10:51:12Z</time>
      </trkpt>
      <trkpt lat="48.63403" lon="2.11732">
        <ele>104</ele>
        <time>2013-12-15T10:51:23Z</time>
      </trkpt>
      <trkpt lat="48.634" lon="2.1174">
        <ele>102</ele>
        <time>2013-12-15T10:51:26Z</time>
      </trkpt>
      <trkpt lat="48.63398" lon="2.11747">
        <ele>100</ele>
        <time>2013-12-15T10:51:29Z</time>
      </trkpt>
      <trkpt lat="48.63397" lon="2.11755">
        <ele>99</ele>
        <time>2013-12-15T10:51:34Z</time>
      </trkpt>
      <trkpt lat="48.63397" lon="2.11762">
        <ele>98</ele>
        <time>2013-12-15T10:51:38Z</time>
      </trkpt>
      <trkpt lat="48.63395" lon="2.1177">
        <ele>97</ele>
        <time>2013-12-15T10:51:42Z</time>
      </trkpt>
      <trkpt lat="48.63395" lon="2.11778">
        <ele>96</ele>
        <time>2013-12-15T10:51:45Z</time>
      </trkpt>
      <trkpt lat="48.63393" lon="2.11784">
        <ele>96</ele>
        <time>2013-12-15T10:51:49Z</time>
      </trkpt>
      <trkpt lat="48.63393" lon="2.11791">
        <ele>97</ele>
        <time>2013-12-15T10:51:53Z</time>
      </trkpt>
      <trkpt lat="48.63394" lon="2.11799">
        <ele>97</ele>
        <time>2013-12-15T10:51:58Z</time>
      </trkpt>
      <trkpt lat="48.63396" lon="2.11806">
        <ele>97</ele>
        <time>2013-12-15T10:52:02Z</time>
      </trkpt>
      <trkpt lat="48.63396" lon="2.11813">
        <ele>98</ele>
        <time>2013-12-15T10:52:05Z</time>
      </trkpt>
      <trkpt lat="48.63398" lon="2.11821">
        <ele>98</ele>
        <time>2013-12-15T10:52:09Z</time>
      </trkpt>
      <trkpt lat="48.63402" lon="2.11826">
        <ele>98</ele>
        <time>2013-12-15T10:52:13Z</time>
      </trkpt>
      <trkpt lat="48.63404" lon="2.11831">
        <ele>97</ele>
        <time>2013-12-15T10:52:19Z</time>
      </trkpt>
      <trkpt lat="48.63406" lon="2.11838">
        <ele>97</ele>
        <time>2013-12-15T10:52:25Z</time>
      </trkpt>
      <trkpt lat="48.63403" lon="2.11844">
        <ele>97</ele>
        <time>2013-12-15T10:52:32Z</time>
      </trkpt>
      <trkpt lat="48.63402" lon="2.11851">
        <ele>98</ele>
        <time>2013-12-15T10:52:36Z</time>
      </trkpt>
      <trkpt lat="48.634" lon="2.11858">
        <ele>98</ele>
        <time>2013-12-15T10:52:40Z</time>
      </trkpt>
      <trkpt lat="48.634" lon="2.11867">
        <ele>98</ele>
        <time>2013-12-15T10:52:43Z</time>
      </trkpt>
      <trkpt lat="48.634" lon="2.11876">
        <ele>98</ele>
        <time>2013-12-15T10:52:46Z</time>
      </trkpt>
      <trkpt lat="48.63404" lon="2.11891">
        <ele>98</ele>
        <time>2013-12-15T10:52:52Z</time>
      </trkpt>
      <trkpt lat="48.63406" lon="2.119">
        <ele>98</ele>
        <time>2013-12-15T10:52:56Z</time>
      </trkpt>
      <trkpt lat="48.63406" lon="2.11909">
        <ele>98</ele>
        <time>2013-12-15T10:53:00Z</time>
      </trkpt>
      <trkpt lat="48.63404" lon="2.11915">
        <ele>98</ele>
        <time>2013-12-15T10:53:04Z</time>
      </trkpt>
      <trkpt lat="48.634" lon="2.11919">
        <ele>98</ele>
        <time>2013-12-15T10:53:09Z</time>
      </trkpt>
      <trkpt lat="48.63396" lon="2.11923">
        <ele>98</ele>
        <time>2013-12-15T10:53:14Z</time>
      </trkpt>
      <trkpt lat="48.63393" lon="2.11929">
        <ele>98</ele>
        <time>2013-12-15T10:53:19Z</time>
      </trkpt>
      <trkpt lat="48.63394" lon="2.11937">
        <ele>98</ele>
        <time>2013-12-15T10:53:23Z</time>
      </trkpt>
      <trkpt lat="48.63393" lon="2.11945">
        <ele>99</ele>
        <time>2013-12-15T10:53:27Z</time>
      </trkpt>
      <trkpt lat="48.6339" lon="2.1195">
        <ele>99</ele>
        <time>2013-12-15T10:53:34Z</time>
      </trkpt>
      <trkpt lat="48.63388" lon="2.11958">
        <ele>99</ele>
        <time>2013-12-15T10:53:39Z</time>
      </trkpt>
      <trkpt lat="48.63386" lon="2.11965">
        <ele>99</ele>
        <time>2013-12-15T10:53:44Z</time>
      </trkpt>
      <trkpt lat="48.63386" lon="2.11972">
        <ele>99</ele>
        <time>2013-12-15T10:53:50Z</time>
      </trkpt>
      <trkpt lat="48.63392" lon="2.11987">
        <ele>100</ele>
        <time>2013-12-15T10:54:27Z</time>
      </trkpt>
      <trkpt lat="48.63393" lon="2.11978">
        <ele>101</ele>
        <time>2013-12-15T10:55:05Z</time>
      </trkpt>
      <trkpt lat="48.63391" lon="2.11971">
        <ele>101</ele>
        <time>2013-12-15T10:55:08Z</time>
      </trkpt>
      <trkpt lat="48.63386" lon="2.11973">
        <ele>103</ele>
        <time>2013-12-15T10:55:18Z</time>
      </trkpt>
      <trkpt lat="48.63382" lon="2.11977">
        <ele>103</ele>
        <time>2013-12-15T10:55:23Z</time>
      </trkpt>
      <trkpt lat="48.6338" lon="2.11984">
        <ele>103</ele>
        <time>2013-12-15T10:55:26Z</time>
      </trkpt>
      <trkpt lat="48.63379" lon="2.12008">
        <ele>111</ele>
        <time>2013-12-15T10:55:35Z</time>
      </trkpt>
      <trkpt lat="48.63379" lon="2.12017">
        <ele>112</ele>
        <time>2013-12-15T10:55:38Z</time>
      </trkpt>
      <trkpt lat="48.63378" lon="2.12025">
        <ele>113</ele>
        <time>2013-12-15T10:55:41Z</time>
      </trkpt>
      <trkpt lat="48.63377" lon="2.1204">
        <ele>113</ele>
        <time>2013-12-15T10:55:46Z</time>
      </trkpt>
      <trkpt lat="48.6338" lon="2.12054">
        <ele>113</ele>
        <time>2013-12-15T10:55:54Z</time>
      </trkpt>
      <trkpt lat="48.63381" lon="2.12069">
        <ele>111</ele>
        <time>2013-12-15T10:56:00Z</time>
      </trkpt>
      <trkpt lat="48.63383" lon="2.12084">
        <ele>110</ele>
        <time>2013-12-15T10:56:05Z</time>
      </trkpt>
      <trkpt lat="48.63386" lon="2.12097">
        <ele>109</ele>
        <time>2013-12-15T10:56:13Z</time>
      </trkpt>
      <trkpt lat="48.63381" lon="2.12109">
        <ele>108</ele>
        <time>2013-12-15T10:56:23Z</time>
      </trkpt>
      <trkpt lat="48.63371" lon="2.12114">
        <ele>108</ele>
        <time>2013-12-15T10:56:30Z</time>
      </trkpt>
      <trkpt lat="48.63363" lon="2.12108">
        <ele>108</ele>
        <time>2013-12-15T10:56:36Z</time>
      </trkpt>
      <trkpt lat="48.63358" lon="2.12108">
        <ele>107</ele>
        <time>2013-12-15T10:56:41Z</time>
      </trkpt>
      <trkpt lat="48.6335" lon="2.12113">
        <ele>106</ele>
        <time>2013-12-15T10:56:48Z</time>
      </trkpt>
      <trkpt lat="48.63342" lon="2.12118">
        <ele>106</ele>
        <time>2013-12-15T10:56:53Z</time>
      </trkpt>
      <trkpt lat="48.63332" lon="2.1212">
        <ele>105</ele>
        <time>2013-12-15T10:56:59Z</time>
      </trkpt>
      <trkpt lat="48.63325" lon="2.12129">
        <ele>105</ele>
        <time>2013-12-15T10:57:05Z</time>
      </trkpt>
      <trkpt lat="48.6332" lon="2.12132">
        <ele>105</ele>
        <time>2013-12-15T10:57:10Z</time>
      </trkpt>
      <trkpt lat="48.63316" lon="2.12129">
        <ele>104</ele>
        <time>2013-12-15T10:57:18Z</time>
      </trkpt>
      <trkpt lat="48.63316" lon="2.12137">
        <ele>103</ele>
        <time>2013-12-15T10:57:22Z</time>
      </trkpt>
      <trkpt lat="48.63317" lon="2.12145">
        <ele>102</ele>
        <time>2013-12-15T10:57:25Z</time>
      </trkpt>
      <trkpt lat="48.63316" lon="2.12153">
        <ele>101</ele>
        <time>2013-12-15T10:57:28Z</time>
      </trkpt>
      <trkpt lat="48.63313" lon="2.12158">
        <ele>100</ele>
        <time>2013-12-15T10:57:31Z</time>
      </trkpt>
      <trkpt lat="48.63308" lon="2.12163">
        <ele>100</ele>
        <time>2013-12-15T10:57:35Z</time>
      </trkpt>
      <trkpt lat="48.63304" lon="2.12169">
        <ele>101</ele>
        <time>2013-12-15T10:57:40Z</time>
      </trkpt>
      <trkpt lat="48.63301" lon="2.12175">
        <ele>101</ele>
        <time>2013-12-15T10:57:44Z</time>
      </trkpt>
      <trkpt lat="48.63301" lon="2.12183">
        <ele>101</ele>
        <time>2013-12-15T10:57:48Z</time>
      </trkpt>
      <trkpt lat="48.63299" lon="2.1219">
        <ele>102</ele>
        <time>2013-12-15T10:57:52Z</time>
      </trkpt>
      <trkpt lat="48.63301" lon="2.12198">
        <ele>103</ele>
        <time>2013-12-15T10:57:56Z</time>
      </trkpt>
      <trkpt lat="48.63301" lon="2.12206">
        <ele>104</ele>
        <time>2013-12-15T10:58:00Z</time>
      </trkpt>
      <trkpt lat="48.63301" lon="2.12214">
        <ele>104</ele>
        <time>2013-12-15T10:58:03Z</time>
      </trkpt>
      <trkpt lat="48.633" lon="2.12222">
        <ele>104</ele>
        <time>2013-12-15T10:58:06Z</time>
      </trkpt>
      <trkpt lat="48.63298" lon="2.1223">
        <ele>104</ele>
        <time>2013-12-15T10:58:09Z</time>
      </trkpt>
      <trkpt lat="48.63298" lon="2.12237">
        <ele>104</ele>
        <time>2013-12-15T10:58:14Z</time>
      </trkpt>
      <trkpt lat="48.633" lon="2.12245">
        <ele>103</ele>
        <time>2013-12-15T10:58:19Z</time>
      </trkpt>
      <trkpt lat="48.63299" lon="2.12252">
        <ele>103</ele>
        <time>2013-12-15T10:58:24Z</time>
      </trkpt>
      <trkpt lat="48.633" lon="2.1226">
        <ele>102</ele>
        <time>2013-12-15T10:58:28Z</time>
      </trkpt>
      <trkpt lat="48.63297" lon="2.12267">
        <ele>102</ele>
        <time>2013-12-15T10:58:33Z</time>
      </trkpt>
      <trkpt lat="48.63292" lon="2.1227">
        <ele>103</ele>
        <time>2013-12-15T10:58:36Z</time>
      </trkpt>
      <trkpt lat="48.63287" lon="2.12273">
        <ele>103</ele>
        <time>2013-12-15T10:58:39Z</time>
      </trkpt>
      <trkpt lat="48.63283" lon="2.12277">
        <ele>103</ele>
        <time>2013-12-15T10:58:42Z</time>
      </trkpt>
      <trkpt lat="48.63278" lon="2.12282">
        <ele>103</ele>
        <time>2013-12-15T10:58:46Z</time>
      </trkpt>
      <trkpt lat="48.63273" lon="2.12283">
        <ele>102</ele>
        <time>2013-12-15T10:58:50Z</time>
      </trkpt>
      <trkpt lat="48.63269" lon="2.12287">
        <ele>102</ele>
        <time>2013-12-15T10:58:55Z</time>
      </trkpt>
      <trkpt lat="48.63265" lon="2.12286">
        <ele>102</ele>
        <time>2013-12-15T10:58:59Z</time>
      </trkpt>
      <trkpt lat="48.63259" lon="2.12286">
        <ele>102</ele>
        <time>2013-12-15T10:59:02Z</time>
      </trkpt>
      <trkpt lat="48.63254" lon="2.12288">
        <ele>103</ele>
        <time>2013-12-15T10:59:05Z</time>
      </trkpt>
      <trkpt lat="48.63249" lon="2.12286">
        <ele>103</ele>
        <time>2013-12-15T10:59:08Z</time>
      </trkpt>
      <trkpt lat="48.63244" lon="2.12285">
        <ele>103</ele>
        <time>2013-12-15T10:59:11Z</time>
      </trkpt>
      <trkpt lat="48.63239" lon="2.12285">
        <ele>103</ele>
        <time>2013-12-15T10:59:14Z</time>
      </trkpt>
      <trkpt lat="48.63232" lon="2.12292">
        <ele>102</ele>
        <time>2013-12-15T10:59:23Z</time>
      </trkpt>
      <trkpt lat="48.63229" lon="2.12297">
        <ele>102</ele>
        <time>2013-12-15T10:59:26Z</time>
      </trkpt>
      <trkpt lat="48.63225" lon="2.12303">
        <ele>102</ele>
        <time>2013-12-15T10:59:29Z</time>
      </trkpt>
      <trkpt lat="48.63217" lon="2.1231">
        <ele>102</ele>
        <time>2013-12-15T10:59:37Z</time>
      </trkpt>
      <trkpt lat="48.63213" lon="2.12314">
        <ele>101</ele>
        <time>2013-12-15T10:59:40Z</time>
      </trkpt>
      <trkpt lat="48.63208" lon="2.12316">
        <ele>102</ele>
        <time>2013-12-15T10:59:43Z</time>
      </trkpt>
      <trkpt lat="48.63204" lon="2.12319">
        <ele>103</ele>
        <time>2013-12-15T10:59:47Z</time>
      </trkpt>
      <trkpt lat="48.63199" lon="2.12322">
        <ele>104</ele>
        <time>2013-12-15T10:59:51Z</time>
      </trkpt>
      <trkpt lat="48.63195" lon="2.12326">
        <ele>103</ele>
        <time>2013-12-15T10:59:55Z</time>
      </trkpt>
      <trkpt lat="48.63193" lon="2.12333">
        <ele>103</ele>
        <time>2013-12-15T10:59:59Z</time>
      </trkpt>
      <trkpt lat="48.63191" lon="2.12342">
        <ele>103</ele>
        <time>2013-12-15T11:00:03Z</time>
      </trkpt>
      <trkpt lat="48.63188" lon="2.12349">
        <ele>103</ele>
        <time>2013-12-15T11:00:08Z</time>
      </trkpt>
      <trkpt lat="48.63184" lon="2.12353">
        <ele>102</ele>
        <time>2013-12-15T11:00:11Z</time>
      </trkpt>
      <trkpt lat="48.63182" lon="2.1236">
        <ele>103</ele>
        <time>2013-12-15T11:00:14Z</time>
      </trkpt>
      <trkpt lat="48.63181" lon="2.12368">
        <ele>103</ele>
        <time>2013-12-15T11:00:18Z</time>
      </trkpt>
      <trkpt lat="48.63179" lon="2.12375">
        <ele>103</ele>
        <time>2013-12-15T11:00:21Z</time>
      </trkpt>
      <trkpt lat="48.63176" lon="2.12381">
        <ele>103</ele>
        <time>2013-12-15T11:00:24Z</time>
      </trkpt>
      <trkpt lat="48.63172" lon="2.12387">
        <ele>103</ele>
        <time>2013-12-15T11:00:27Z</time>
      </trkpt>
      <trkpt lat="48.63169" lon="2.12395">
        <ele>103</ele>
        <time>2013-12-15T11:00:31Z</time>
      </trkpt>
      <trkpt lat="48.63166" lon="2.12401">
        <ele>103</ele>
        <time>2013-12-15T11:00:35Z</time>
      </trkpt>
      <trkpt lat="48.63163" lon="2.12409">
        <ele>104</ele>
        <time>2013-12-15T11:00:39Z</time>
      </trkpt>
      <trkpt lat="48.63161" lon="2.12416">
        <ele>106</ele>
        <time>2013-12-15T11:00:43Z</time>
      </trkpt>
      <trkpt lat="48.63159" lon="2.12423">
        <ele>106</ele>
        <time>2013-12-15T11:00:47Z</time>
      </trkpt>
      <trkpt lat="48.63161" lon="2.12431">
        <ele>106</ele>
        <time>2013-12-15T11:00:50Z</time>
      </trkpt>
      <trkpt lat="48.63157" lon="2.12444">
        <ele>105</ele>
        <time>2013-12-15T11:00:57Z</time>
      </trkpt>
      <trkpt lat="48.63153" lon="2.12448">
        <ele>105</ele>
        <time>2013-12-15T11:01:02Z</time>
      </trkpt>
      <trkpt lat="48.63147" lon="2.12451">
        <ele>105</ele>
        <time>2013-12-15T11:01:06Z</time>
      </trkpt>
      <trkpt lat="48.63141" lon="2.12449">
        <ele>105</ele>
        <time>2013-12-15T11:01:09Z</time>
      </trkpt>
      <trkpt lat="48.63137" lon="2.1245">
        <ele>105</ele>
        <time>2013-12-15T11:01:12Z</time>
      </trkpt>
      <trkpt lat="48.63132" lon="2.12452">
        <ele>105</ele>
        <time>2013-12-15T11:01:15Z</time>
      </trkpt>
      <trkpt lat="48.63128" lon="2.12455">
        <ele>105</ele>
        <time>2013-12-15T11:01:18Z</time>
      </trkpt>
      <trkpt lat="48.63123" lon="2.12454">
        <ele>105</ele>
        <time>2013-12-15T11:01:21Z</time>
      </trkpt>
      <trkpt lat="48.63115" lon="2.12453">
        <ele>104</ele>
        <time>2013-12-15T11:01:26Z</time>
      </trkpt>
      <trkpt lat="48.6311" lon="2.12454">
        <ele>104</ele>
        <time>2013-12-15T11:01:30Z</time>
      </trkpt>
      <trkpt lat="48.63105" lon="2.12454">
        <ele>104</ele>
        <time>2013-12-15T11:01:35Z</time>
      </trkpt>
      <trkpt lat="48.631" lon="2.12452">
        <ele>105</ele>
        <time>2013-12-15T11:01:38Z</time>
      </trkpt>
      <trkpt lat="48.63095" lon="2.12453">
        <ele>105</ele>
        <time>2013-12-15T11:01:43Z</time>
      </trkpt>
      <trkpt lat="48.6309" lon="2.1245">
        <ele>105</ele>
        <time>2013-12-15T11:01:48Z</time>
      </trkpt>
      <trkpt lat="48.63084" lon="2.12445">
        <ele>105</ele>
        <time>2013-12-15T11:01:52Z</time>
      </trkpt>
      <trkpt lat="48.63081" lon="2.12441">
        <ele>105</ele>
        <time>2013-12-15T11:01:54Z</time>
      </trkpt>
      <trkpt lat="48.63076" lon="2.12438">
        <ele>105</ele>
        <time>2013-12-15T11:01:58Z</time>
      </trkpt>
      <trkpt lat="48.63071" lon="2.12436">
        <ele>105</ele>
        <time>2013-12-15T11:02:01Z</time>
      </trkpt>
      <trkpt lat="48.63066" lon="2.12436">
        <ele>104</ele>
        <time>2013-12-15T11:02:05Z</time>
      </trkpt>
      <trkpt lat="48.63061" lon="2.12437">
        <ele>104</ele>
        <time>2013-12-15T11:02:08Z</time>
      </trkpt>
      <trkpt lat="48.63056" lon="2.12436">
        <ele>104</ele>
        <time>2013-12-15T11:02:11Z</time>
      </trkpt>
      <trkpt lat="48.63051" lon="2.12433">
        <ele>103</ele>
        <time>2013-12-15T11:02:15Z</time>
      </trkpt>
      <trkpt lat="48.63045" lon="2.12433">
        <ele>103</ele>
        <time>2013-12-15T11:02:20Z</time>
      </trkpt>
      <trkpt lat="48.6304" lon="2.12434">
        <ele>103</ele>
        <time>2013-12-15T11:02:24Z</time>
      </trkpt>
      <trkpt lat="48.63035" lon="2.1243">
        <ele>103</ele>
        <time>2013-12-15T11:02:28Z</time>
      </trkpt>
      <trkpt lat="48.6303" lon="2.12428">
        <ele>103</ele>
        <time>2013-12-15T11:02:31Z</time>
      </trkpt>
      <trkpt lat="48.63025" lon="2.12428">
        <ele>104</ele>
        <time>2013-12-15T11:02:34Z</time>
      </trkpt>
      <trkpt lat="48.6302" lon="2.12427">
        <ele>103</ele>
        <time>2013-12-15T11:02:38Z</time>
      </trkpt>
      <trkpt lat="48.63015" lon="2.12426">
        <ele>103</ele>
        <time>2013-12-15T11:02:44Z</time>
      </trkpt>
      <trkpt lat="48.63009" lon="2.12427">
        <ele>103</ele>
        <time>2013-12-15T11:02:48Z</time>
      </trkpt>
      <trkpt lat="48.63004" lon="2.12424">
        <ele>103</ele>
        <time>2013-12-15T11:02:51Z</time>
      </trkpt>
      <trkpt lat="48.63" lon="2.12422">
        <ele>103</ele>
        <time>2013-12-15T11:02:54Z</time>
      </trkpt>
      <trkpt lat="48.62995" lon="2.1242">
        <ele>102</ele>
        <time>2013-12-15T11:02:57Z</time>
      </trkpt>
      <trkpt lat="48.6299" lon="2.12418">
        <ele>102</ele>
        <time>2013-12-15T11:03:01Z</time>
      </trkpt>
      <trkpt lat="48.62985" lon="2.12417">
        <ele>102</ele>
        <time>2013-12-15T11:03:05Z</time>
      </trkpt>
      <trkpt lat="48.6298" lon="2.12417">
        <ele>103</ele>
        <time>2013-12-15T11:03:09Z</time>
      </trkpt>
      <trkpt lat="48.62975" lon="2.12418">
        <ele>102</ele>
        <time>2013-12-15T11:03:12Z</time>
      </trkpt>
      <trkpt lat="48.62971" lon="2.1242">
        <ele>102</ele>
        <time>2013-12-15T11:03:16Z</time>
      </trkpt>
      <trkpt lat="48.62972" lon="2.12421">
        <ele>104</ele>
        <time>2013-12-15T11:04:57Z</time>
      </trkpt>
      <trkpt lat="48.62975" lon="2.12428">
        <ele>104</ele>
        <time>2013-12-15T11:05:13Z</time>
      </trkpt>
      <trkpt lat="48.62978" lon="2.12434">
        <ele>107</ele>
        <time>2013-12-15T11:05:19Z</time>
      </trkpt>
      <trkpt lat="48.62979" lon="2.12442">
        <ele>107</ele>
        <time>2013-12-15T11:05:23Z</time>
      </trkpt>
      <trkpt lat="48.62981" lon="2.12448">
        <ele>109</ele>
        <time>2013-12-15T11:05:33Z</time>
      </trkpt>
      <trkpt lat="48.62984" lon="2.12448">
        <ele>108</ele>
        <time>2013-12-15T11:05:49Z</time>
      </trkpt>
      <trkpt lat="48.62991" lon="2.12445">
        <ele>102</ele>
        <time>2013-12-15T11:06:07Z</time>
      </trkpt>
      <trkpt lat="48.62989" lon="2.12443">
        <ele>100</ele>
        <time>2013-12-15T11:06:19Z</time>
      </trkpt>
      <trkpt lat="48.62984" lon="2.12443">
        <ele>100</ele>
        <time>2013-12-15T11:06:20Z</time>
      </trkpt>
      <trkpt lat="48.62984" lon="2.12436">
        <ele>90</ele>
        <time>2013-12-15T11:07:03Z</time>
      </trkpt>
      <trkpt lat="48.6299" lon="2.12438">
        <ele>88</ele>
        <time>2013-12-15T11:07:06Z</time>
      </trkpt>
      <trkpt lat="48.62994" lon="2.12442">
        <ele>87</ele>
        <time>2013-12-15T11:07:08Z</time>
      </trkpt>
      <trkpt lat="48.6299" lon="2.12443">
        <ele>87</ele>
        <time>2013-12-15T11:07:17Z</time>
      </trkpt>
      <trkpt lat="48.62986" lon="2.1244">
        <ele>87</ele>
        <time>2013-12-15T11:07:19Z</time>
      </trkpt>
      <trkpt lat="48.62985" lon="2.12442">
        <ele>90</ele>
        <time>2013-12-15T11:07:37Z</time>
      </trkpt>
      <trkpt lat="48.62989" lon="2.12447">
        <ele>90</ele>
        <time>2013-12-15T11:07:42Z</time>
      </trkpt>
      <trkpt lat="48.62991" lon="2.12441">
        <ele>97</ele>
        <time>2013-12-15T11:09:25Z</time>
      </trkpt>
      <trkpt lat="48.62989" lon="2.12435">
        <ele>98</ele>
        <time>2013-12-15T11:09:33Z</time>
      </trkpt>
      <trkpt lat="48.62984" lon="2.12434">
        <ele>100</ele>
        <time>2013-12-15T11:09:41Z</time>
      </trkpt>
      <trkpt lat="48.62984" lon="2.12438">
        <ele>102</ele>
        <time>2013-12-15T11:09:53Z</time>
      </trkpt>
      <trkpt lat="48.6298" lon="2.1244">
        <ele>102</ele>
        <time>2013-12-15T11:10:38Z</time>
      </trkpt>
      <trkpt lat="48.62977" lon="2.12441">
        <ele>98</ele>
        <time>2013-12-15T11:11:35Z</time>
      </trkpt>
      <trkpt lat="48.62974" lon="2.12446">
        <ele>98</ele>
        <time>2013-12-15T11:11:40Z</time>
      </trkpt>
      <trkpt lat="48.62969" lon="2.12448">
        <ele>100</ele>
        <time>2013-12-15T11:11:49Z</time>
      </trkpt>
      <trkpt lat="48.62969" lon="2.12443">
        <ele>101</ele>
        <time>2013-12-15T11:12:13Z</time>
      </trkpt>
      <trkpt lat="48.62975" lon="2.12448">
        <ele>102</ele>
        <time>2013-12-15T11:12:25Z</time>
      </trkpt>
      <trkpt lat="48.62979" lon="2.12443">
        <ele>104</ele>
        <time>2013-12-15T11:13:00Z</time>
      </trkpt>
      <trkpt lat="48.62984" lon="2.12442">
        <ele>104</ele>
        <time>2013-12-15T11:13:04Z</time>
      </trkpt>
      <trkpt lat="48.62989" lon="2.12444">
        <ele>105</ele>
        <time>2013-12-15T11:13:08Z</time>
      </trkpt>
      <trkpt lat="48.62991" lon="2.12444">
        <ele>104</ele>
        <time>2013-12-15T11:13:14Z</time>
      </trkpt>
      <trkpt lat="48.62996" lon="2.12442">
        <ele>104</ele>
        <time>2013-12-15T11:13:20Z</time>
      </trkpt>
      <trkpt lat="48.62993" lon="2.12439">
        <ele>108</ele>
        <time>2013-12-15T11:14:08Z</time>
      </trkpt>
      <trkpt lat="48.62985" lon="2.12442">
        <ele>109</ele>
        <time>2013-12-15T11:14:18Z</time>
      </trkpt>
      <trkpt lat="48.62976" lon="2.12434">
        <ele>109</ele>
        <time>2013-12-15T11:14:29Z</time>
      </trkpt>
      <trkpt lat="48.62979" lon="2.12437">
        <ele>108</ele>
        <time>2013-12-15T11:15:15Z</time>
      </trkpt>
    </trkseg>
  </trk>
</gpx>